[[{"header":{"parameterUnit":"m.s-1","parameterCategory":1,"la1":31.0,"la2":29.5877,"lo1":-88.7671,"lo2":-86.6584,"dy":0.0162,"dx":0.0185,"nx":115,"ny":88,"refTime":"2023-09-23T12:00:00:Z","depth":0,"parameterNumber":2,"parameterNumberName":"U-component_of_WINDS"},"data":[0.0,0.0,0.0,0.0,0.0,0.0,0.0,0.0,0.0,0.0,0.0,0.0,0.0,0.0,0.0,0.0,0.0,0.0,0.0,0.0,0.0,0.0,0.0,0.0,0.0,0.0,0.0,0.0,0.0,0.0,0.0,0.0,0.0,0.0,0.0,0.0,0.0,0.0,0.0,0.0,0.0,0.0,0.0,0.0,0.0,0.0,0.0,0.0,0.0,0.0,0.0,0.0,0.0,0.0,0.0,0.0,0.0,0.0,0.0,0.0,0.0,0.0,0.0,0.0,0.0,0.0,0.0,0.0,0.0,0.0,0.0,0.0,0.0,0.0,0.0,0.0,0.0,0.0,0.0,0.0,0.0,0.0,0.0,0.0,0.0,0.0,0.0,0.0,0.0,0.0,0.0,0.0,0.0,0.0,0.0,0.0,0.0,0.0,0.0,0.0,0.0,0.0,0.0,0.0,0.0,0.0,0.0,0.0,0.0,0.0,0.0,0.0,0.0,0.0,0.0,0.0,0.0,0.0,0.0,0.0,0.0,0.0,0.0,0.0,0.0,0.0,0.0,0.0,0.0,0.0,0.0,0.0,0.0,0.0,0.0,0.0,0.0,0.0,0.0,0.0,0.0,0.0,0.0,0.0,0.0,0.0,0.0,0.0,0.0,0.0,0.0,0.0,0.0,0.0,0.0,0.0,0.0,0.0,0.0,0.0,0.0,0.0,0.0,0.0,0.0,0.0,0.0,0.0,0.0,0.0,0.0,0.0,0.0,0.0,0.0,0.0,0.0,0.0,0.0,0.0,0.0,0.0,0.0,0.0,0.0,0.0,0.0,0.0,0.0,0.0,0.0,0.0,0.0,0.0,0.0,0.0,0.0,0.0,0.0,0.0,0.0,0.0,0.0,0.0,0.0,0.0,0.0,0.0,0.0,0.0,0.0,0.0,0.0,0.0,0.0,0.0,0.0,0.0,0.0,0.0,0.0,0.0,0.0,0.0,0.0,0.0,0.0,0.0,0.0,0.0,0.0,0.0,0.0,0.0,0.0,0.0,0.0,0.0,0.0,0.0,0.0,0.0,0.0,0.0,0.0,0.0,0.0,0.0,0.0,0.0,0.0,0.0,0.0,0.0,0.0,0.0,0.0,0.0,0.0,0.0,0.0,0.0,0.0,0.0,0.0,0.0,0.0,0.0,0.0,0.0,0.0,0.0,0.0,0.0,0.0,0.0,0.0,0.0,0.0,0.0,0.0,0.0,0.0,0.0,0.0,0.0,0.0,0.0,0.0,0.0,0.0,0.0,0.0,0.0,0.0,0.0,0.0,0.0,0.0,0.0,0.0,0.0,0.0,0.0,0.0,0.0,0.0,0.0,0.0,0.0,0.0,0.0,0.0,0.0,0.0,0.0,0.0,0.0,0.0,0.0,0.0,0.0,0.0,0.0,0.0,0.0,0.0,0.0,0.0,0.0,0.0,0.0,0.0,0.0,0.0,0.0,0.0,0.0,0.0,0.0,0.0,0.0,0.0,0.0,0.0,0.0,0.0,0.0,0.0,0.0,0.0,0.0,0.0,0.0,0.0,0.0,0.0,0.0,0.0,0.0,0.0,0.0,0.0,0.0,0.0,0.0,0.0,0.0,0.0,0.0,0.0,0.0,0.0,0.0,0.0,0.0,0.0,0.0,0.0,0.0,0.0,0.0,0.0,0.0,0.0,0.0,0.0,0.0,0.0,0.0,0.0,0.0,0.0,0.0,0.0,0.0,0.0,0.0,0.0,0.0,0.0,0.0,0.0,0.0,0.0,0.0,0.0,0.0,0.0,0.0,0.0,0.0,0.0,0.0,0.0,0.0,0.0,0.0,0.0,0.0,0.0,0.0,0.0,0.0,0.0,0.0,0.0,0.0,0.0,0.0,0.0,0.0,0.0,0.0,0.0,0.0,0.0,0.0,0.0,0.0,0.0,0.0,0.0,0.0,0.0,0.0,0.0,0.0,0.0,0.0,0.0,0.0,0.0,0.0,0.0,0.0,0.0,0.0,0.0,0.0,0.0,0.0,0.0,0.0,0.0,0.0,0.0,0.0,0.0,0.0,0.0,0.0,0.0,0.0,0.0,0.0,0.0,0.0,0.0,0.0,0.0,0.0,0.0,0.0,0.0,0.0,0.0,0.0,0.0,0.0,0.0,0.0,0.0,0.0,0.0,0.0,0.0,0.0,0.0,0.0,0.0,0.0,0.0,0.0,0.0,0.0,0.0,0.0,0.0,0.0,0.0,0.0,0.0,0.0,0.0,0.0,0.0,0.0,0.0,0.0,0.0,0.0,0.0,0.0,0.0,0.0,0.0,0.0,0.0,0.0,0.0,0.0,0.0,0.0,0.0,0.0,0.0,0.0,0.0,0.0,0.0,0.0,0.0,0.0,0.0,0.0,0.0,0.0,0.0,0.0,0.0,0.0,0.0,0.0,0.0,0.0,0.0,0.0,0.0,0.0,0.0,0.0,0.0,0.0,0.0,0.0,0.0,0.0,0.0,0.0,0.0,0.0,0.0,0.0,0.0,0.0,0.0,0.0,0.0,0.0,0.0,0.0,0.0,0.0,0.0,0.0,0.0,0.0,0.0,0.0,0.0,0.0,0.0,0.0,0.0,0.0,0.0,0.0,0.0,0.0,0.0,0.0,0.0,0.0,0.0,0.0,0.0,0.0,0.0,0.0,0.0,0.0,0.0,0.0,0.0,0.0,0.0,0.0,0.0,0.0,0.0,0.0,0.0,0.0,0.0,0.0,0.0,0.0,0.0,0.0,0.0,0.0,0.0,0.0,0.0,0.0,0.0,0.0,0.0,0.0,0.0,0.0,0.0,0.0,0.0,0.0,0.0,0.0,0.0,0.0,0.0,0.0,0.0,0.0,0.0,0.0,0.0,0.0,0.0,0.0,0.0,0.0,0.0,0.0,0.0,0.0,0.0,0.0,0.0,0.0,0.0,0.0,0.0,0.0,0.0,0.0,0.0,0.0,0.0,0.0,0.0,0.0,0.0,0.0,0.0,0.0,0.0,0.0,0.0,0.0,0.0,0.0,0.0,0.0,0.0,0.0,0.0,0.0,0.0,0.0,0.0,0.0,0.0,0.0,0.0,0.0,0.0,0.0,0.0,0.0,0.0,0.0,0.0,0.0,0.0,0.0,0.0,0.0,0.0,0.0,0.0,0.0,0.0,0.0,0.0,0.0,0.0,0.0,0.0,0.0,0.0,0.0,0.0,0.0,0.0,0.0,0.0,0.0,0.0,0.0,0.0,0.0,0.0,0.0,0.0,0.0,0.0,0.0,0.0,0.0,0.0,0.0,0.0,0.0,0.0,0.0,0.0,0.0,0.0,0.0,0.0,0.0,0.0,0.0,0.0,0.0,0.0,0.0,0.0,0.0,0.0,0.0,0.0,0.0,0.0,0.0,0.0,0.0,0.0,0.0,0.0,0.0,0.0,0.0,0.0,0.0,0.0,0.0,0.0,0.0,0.0,0.0,0.0,0.0,0.0,0.0,0.0,0.0,0.0,0.0,0.0,0.0,0.0,0.0,0.0,0.0,0.0,0.0,0.0,0.0,0.0,0.0,0.0,0.0,0.0,0.0,0.0,0.0,0.0,0.0,0.0,0.0,0.0,0.0,0.0,0.0,0.0,0.0,0.0,0.0,0.0,0.0,0.0,0.0,0.0,0.0,0.0,0.0,0.0,0.0,0.0,0.0,0.0,0.0,0.0,0.0,0.0,0.0,0.0,0.0,0.0,0.0,0.0,0.0,0.0,0.0,0.0,0.0,0.0,0.0,0.0,0.0,0.0,0.0,0.0,0.0,0.0,0.0,0.0,0.0,0.0,0.0,0.0,0.0,0.0,0.0,0.0,0.0,0.0,0.0,0.0,0.0,0.0,0.0,0.0,0.0,0.0,0.0,0.0,0.0,0.0,0.0,0.0,0.0,0.0,0.0,0.0,0.0,0.0,0.0,0.0,0.0,0.0,0.0,0.0,0.0,0.0,0.0,0.0,0.0,0.0,0.0,0.0,0.0,0.0,0.0,0.0,0.0,0.0,0.0,0.0,0.0,0.0,0.0,0.0,0.0,0.0,0.0,0.0,0.0,0.0,0.0,0.0,0.0,0.0,0.0,0.0,0.0,0.0,0.0,0.0,0.0,0.0,0.0,0.0,0.0,0.0,0.0,0.0,0.0,0.0,0.0,0.0,0.0,0.0,0.0,0.0,0.0,0.0,0.0,0.0,0.0,0.0,0.0,0.0,0.0,-0.2289,0.0,0.0,0.0,0.0,0.0,0.0,0.0,0.0,0.0,0.0,0.0,0.0,0.0,0.0,0.0,0.0,0.0,0.0,0.0,0.0,0.0,0.0,0.0,0.0,0.0,0.0,0.0,0.0,0.0,0.0,0.0,0.0,0.0,0.0,0.0,0.0,0.0,0.0,0.0,0.0,0.0,0.0,0.0,0.0,0.0,0.0,0.0,0.0,0.0,0.0,0.0,0.0,0.0,0.0,0.0,0.0,0.0,0.0,0.0,0.0,0.0,0.0,0.0,0.0,0.0,0.0,0.0,0.0,0.0,0.0,0.0,0.0,0.0,0.0,0.0,0.0,0.0,0.0,0.0,0.0,0.0,0.0,0.0,0.0,0.0,0.0,0.0,0.0,0.0,0.0,0.0,0.0,0.0,0.0,0.0,0.0,0.0,0.0,0.0,0.0,0.0,0.0,0.0,0.0,0.0,0.0,0.0,0.0,0.0,0.0,-0.2147,-0.2136,-0.2195,-0.2191,-0.2195,0.0,0.0,0.0,0.0,0.0,0.0,0.0,0.0,0.0,0.0,0.0,0.0,0.0,0.0,0.0,0.0,0.0,0.0,0.0,0.0,0.0,0.0,0.0,0.0,0.0,0.0,0.0,0.0,0.0,0.0,0.0,0.0,0.0,0.0,0.0,0.0,0.0,0.0,0.0,0.0,0.0,0.0,0.0,0.0,0.0,0.0,0.0,0.0,0.0,0.0,0.0,0.0,0.0,0.0,0.0,0.0,0.0,0.0,0.0,0.0,0.0,0.0,0.0,0.0,0.0,0.0,0.0,0.0,0.0,0.0,0.0,0.0,0.0,0.0,0.0,0.0,0.0,0.0,0.0,0.0,0.0,0.0,0.0,0.0,0.0,0.0,0.0,0.0,0.0,0.0,0.0,0.0,0.0,0.0,0.0,0.0,0.0,0.0,0.0,0.0,0.0,0.0,0.0,0.0,0.0,0.0,0.0,0.0,0.0,0.0,0.0,0.0,-0.2156,-0.2156,-0.2144,0.0,0.0,0.0,0.0,0.0,0.0,0.0,0.0,0.0,0.0,0.0,0.0,0.0,0.0,0.0,0.0,0.0,0.0,0.0,0.0,0.0,0.0,0.0,0.0,0.0,0.0,0.0,0.0,0.0,0.0,0.0,0.0,0.0,0.0,0.0,0.0,0.0,0.0,0.0,0.0,0.0,0.0,0.0,0.0,0.0,0.0,0.0,0.0,0.0,0.0,0.0,0.0,0.0,0.0,0.0,0.0,0.0,0.0,0.0,0.0,0.0,0.0,0.0,0.0,0.0,0.0,0.0,0.0,0.0,0.0,0.0,0.0,0.0,0.0,0.0,0.0,0.0,0.0,0.0,0.0,0.0,0.0,0.0,0.0,0.0,0.0,0.0,0.0,0.0,0.0,0.0,0.0,0.0,0.0,0.0,0.0,0.0,0.0,0.0,0.0,0.0,0.0,0.0,0.0,0.0,0.0,0.0,0.0,0.0,0.0,-0.2187,-0.2363,-0.238,0.0,-0.227,0.0,0.0,0.0,0.0,0.0,0.0,0.0,0.0,0.0,0.0,0.0,0.0,0.0,0.0,0.0,0.0,0.0,0.0,0.0,0.0,0.0,0.0,0.0,0.0,0.0,0.0,0.0,0.0,0.0,0.0,0.0,0.0,0.0,0.0,0.0,0.0,0.0,0.0,0.0,0.0,0.0,0.0,0.0,0.0,0.0,0.0,0.0,0.0,0.0,0.0,0.0,0.0,0.0,0.0,0.0,0.0,0.0,0.0,0.0,0.0,0.0,0.0,0.0,0.0,0.0,0.0,0.0,0.0,0.0,0.0,0.0,0.0,0.0,0.0,0.0,0.0,0.0,0.0,0.0,0.0,0.0,0.0,0.0,0.0,0.0,0.0,0.0,0.0,0.0,0.0,0.0,0.0,0.0,0.0,0.0,0.0,0.0,0.0,0.0,0.0,0.0,0.0,0.0,0.0,0.0,0.0,0.0,0.0,0.0,0.0,-0.2384,-0.2575,-0.258,-0.2462,0.0,0.0,0.0,0.0,0.0,0.0,0.0,0.0,0.0,0.0,0.0,0.0,0.0,0.0,0.0,0.0,0.0,0.0,0.0,0.0,0.0,0.0,0.0,0.0,0.0,0.0,0.0,0.0,0.0,0.0,0.0,0.0,0.0,0.0,0.0,0.0,0.0,0.0,0.0,0.0,0.0,0.0,0.0,0.0,0.0,0.0,0.0,0.0,0.0,0.0,0.0,0.0,0.0,0.0,0.0,0.0,0.0,0.0,0.0,0.0,0.0,0.0,0.0,0.0,0.0,0.0,0.0,0.0,0.0,0.0,0.0,0.0,0.0,0.0,0.0,0.0,0.0,0.0,0.0,0.0,0.0,0.0,0.0,0.0,0.0,0.0,0.0,0.0,0.0,0.0,0.0,0.0,0.0,0.0,0.0,0.0,0.0,0.0,0.0,0.0,0.0,0.0,0.0,0.0,0.0,0.0,0.0,0.0,0.0,0.0,-0.2363,-0.251,-0.2729,-0.2718,-0.2575,-0.2297,0.0,0.0,0.0,0.0,0.0,0.0,0.0,0.0,0.0,0.0,0.0,0.0,0.0,0.0,0.0,0.0,0.0,0.0,0.0,0.0,0.0,0.0,0.0,0.0,0.0,0.0,0.0,0.0,0.0,0.0,0.0,0.0,0.0,0.0,0.0,0.0,0.0,0.0,0.0,0.0,0.0,0.0,0.0,0.0,0.0,0.0,0.0,0.0,0.0,0.0,0.0,0.0,0.0,0.0,0.0,0.0,0.0,0.0,0.0,0.0,0.0,0.0,0.0,0.0,0.0,0.0,0.0,0.0,0.0,0.0,0.0,0.0,0.0,0.0,0.0,0.0,0.0,0.0,0.0,0.0,0.0,0.0,0.0,0.0,0.0,0.0,0.0,0.0,0.0,0.0,0.0,0.0,0.0,0.0,0.0,0.0,0.0,0.0,0.0,0.0,0.0,0.0,0.0,0.0,0.0,0.0,0.0,0.0,-0.2135,-0.2315,-0.2557,-0.2859,-0.278,-0.2631,0.0,0.0,0.0,0.0,0.0,0.0,0.0,0.0,0.0,0.0,0.0,0.0,0.0,0.0,0.0,0.0,0.0,0.0,0.0,0.0,0.0,0.0,0.0,0.0,0.0,0.0,0.0,0.0,0.0,0.0,0.0,0.0,0.0,0.0,0.0,0.0,0.0,0.0,0.0,0.0,0.0,0.0,0.0,0.0,0.0,0.0,0.0,0.0,0.0,0.0,0.0,0.0,0.0,0.0,0.0,0.0,0.0,0.0,0.0,0.0,0.0,0.0,0.0,0.0,0.0,0.0,0.0,0.0,0.0,0.0,0.0,0.0,0.0,0.0,0.0,0.0,0.0,0.0,0.0,0.0,0.0,0.0,0.0,0.0,0.0,0.0,0.0,0.0,0.0,0.0,0.0,0.0,0.0,0.0,0.0,0.0,0.0,0.0,0.0,0.0,0.0,0.0,0.0,0.0,0.0,0.0,0.0,0.0,0.0,-0.2485,-0.2765,-0.2909,-0.2902,-0.285,-0.2642,0.0,0.0,0.0,0.0,0.0,0.0,0.0,0.0,0.0,0.0,0.0,0.0,0.0,0.0,0.0,0.0,0.0,0.0,0.0,0.0,0.0,0.0,0.0,0.0,0.0,0.0,0.0,0.0,0.0,0.0,0.0,0.0,0.0,0.0,0.0,0.0,0.0,0.0,0.0,0.0,0.0,0.0,0.0,0.0,0.0,0.0,0.0,0.0,0.0,0.0,0.0,0.0,0.0,0.0,0.0,0.0,0.0,0.0,0.0,0.0,0.0,0.0,0.0,0.0,0.0,0.0,0.0,0.0,0.0,0.0,0.0,0.0,0.0,0.0,0.0,0.0,0.0,0.0,0.0,0.0,0.0,0.0,0.0,0.0,0.0,0.0,0.0,0.0,0.0,0.0,0.0,0.0,0.0,0.0,0.0,0.0,0.0,0.0,0.0,0.0,0.0,0.0,0.0,0.0,0.0,0.0,0.0,0.0,0.0,-0.2699,0.0,-0.307,-0.3006,-0.2875,-0.2604,0.0,0.0,0.0,0.0,0.0,0.0,0.0,0.0,0.0,0.0,0.0,0.0,0.0,0.0,0.0,0.0,0.0,0.0,0.0,0.0,0.0,0.0,0.0,0.0,0.0,0.0,0.0,0.0,0.0,0.0,0.0,0.0,0.0,0.0,0.0,0.0,0.0,0.0,0.0,0.0,0.0,0.0,0.0,0.0,0.0,0.0,0.0,0.0,0.0,0.0,0.0,0.0,0.0,0.0,0.0,0.0,0.0,0.0,0.0,0.0,0.0,0.0,0.0,0.0,0.0,0.0,0.0,0.0,0.0,0.0,0.0,0.0,0.0,0.0,0.0,0.0,0.0,0.0,0.0,0.0,0.0,0.0,0.0,0.0,0.0,0.0,0.0,0.0,0.0,0.0,0.0,0.0,0.0,0.0,0.0,0.0,0.0,0.0,0.0,0.0,0.0,0.0,0.0,0.0,0.0,0.0,0.0,0.0,-0.2379,-0.269,-0.2856,-0.3042,-0.3179,-0.2816,-0.2497,0.0,0.0,0.0,0.0,0.0,0.0,0.0,0.0,0.0,0.0,0.0,0.0,0.0,0.0,0.0,0.0,0.0,0.0,0.0,0.0,0.0,0.0,0.0,0.0,0.0,0.0,0.0,0.0,0.0,0.0,0.0,0.0,0.0,0.0,0.0,0.0,0.0,0.0,0.0,0.0,0.0,0.0,0.0,0.0,0.0,0.0,0.0,0.0,0.0,0.0,0.0,0.0,0.0,0.0,0.0,0.0,0.0,0.0,0.0,0.0,0.0,0.0,0.0,0.0,0.0,0.0,0.0,0.0,0.0,0.0,0.0,0.0,0.0,0.0,0.0,0.0,0.0,0.0,0.0,0.0,0.0,0.0,0.0,0.0,0.0,0.0,0.0,0.0,0.0,0.0,0.0,0.0,0.0,0.0,0.0,0.0,0.0,0.0,0.0,0.0,0.0,0.0,0.0,0.0,0.0,0.0,0.0,0.0,0.0,-0.3046,-0.3304,-0.3385,-0.3265,-0.2877,-0.2441,0.0,0.0,0.0,0.0,0.0,0.0,0.0,0.0,0.0,0.0,0.0,0.0,0.0,0.0,0.0,0.0,0.0,0.0,0.0,0.0,0.0,0.0,0.0,0.0,0.0,0.0,0.0,0.0,0.0,0.0,0.0,0.0,0.0,0.0,0.0,0.0,0.0,0.0,0.0,0.0,0.0,0.0,0.0,0.0,0.0,0.0,0.0,0.0,0.0,0.0,0.0,0.0,0.0,0.0,0.0,0.0,0.0,0.0,0.0,0.0,0.0,0.0,0.0,0.0,0.0,0.0,0.0,0.0,0.0,0.0,0.0,0.0,0.0,0.0,0.0,0.0,0.0,0.0,0.0,0.0,0.0,0.0,0.0,0.0,0.0,0.0,0.0,0.0,0.0,0.0,0.0,0.0,0.0,0.0,0.0,0.0,0.0,0.0,0.0,0.0,0.0,0.0,0.0,0.0,0.0,0.0,0.0,0.0,0.0,-0.3906,-0.4126,-0.4122,-0.3909,-0.3399,-0.2808,-0.2089,0.0,0.0,0.0,0.0,0.0,0.0,0.0,0.0,0.0,0.0,0.0,0.0,0.0,0.0,0.0,0.0,0.0,0.0,0.0,0.0,0.0,0.0,0.0,0.0,0.0,0.0,0.0,0.0,0.0,0.0,0.0,0.0,0.0,0.0,0.0,0.0,0.0,0.0,0.0,0.0,0.0,0.0,0.0,0.0,0.0,0.0,0.0,0.0,0.0,0.0,0.0,0.0,0.0,0.0,0.0,0.0,0.0,0.0,0.0,0.0,0.0,0.0,0.0,0.0,0.0,0.0,0.0,0.0,0.0,0.0,0.0,0.0,0.0,0.0,0.0,0.0,0.0,0.0,0.0,0.0,0.0,0.0,0.0,0.0,0.0,0.0,0.0,0.0,0.0,0.0,0.0,0.0,0.0,0.0,0.0,0.0,0.0,0.0,0.0,0.0,0.0,0.0,0.0,0.0,0.0,0.0,0.0,0.0,-0.5155,-0.5229,-0.5156,-0.4983,-0.4286,-0.3481,0.0,0.0,0.0,0.0,0.0,0.0,0.0,0.0,0.0,0.0,0.0,0.0,0.0,0.0,0.0,0.0,0.0,0.0,0.0,0.0,0.0,0.0,0.0,0.0,0.0,0.0,0.0,0.0,0.0,0.0,0.0,0.0,0.0,0.0,0.0,0.0,0.0,0.0,0.0,0.0,0.0,0.0,0.0,0.0,0.0,0.0,0.0,0.0,0.0,0.0,0.0,0.0,0.0,0.0,0.0,0.0,0.0,0.0,0.0,0.0,0.0,0.0,0.0,0.0,0.0,0.0,0.0,0.0,0.0,0.0,0.0,0.0,0.0,0.0,0.0,0.0,0.0,0.0,0.0,0.0,0.0,0.0,0.0,0.0,0.0,0.0,0.0,0.0,0.0,0.0,0.0,0.0,0.0,0.0,0.0,0.0,0.0,0.0,0.0,0.0,0.0,0.0,0.0,0.0,0.0,0.0,0.0,0.0,0.0,-0.5908,-0.6682,-0.6706,-0.595,-0.4813,-0.3851,0.0,0.0,0.0,0.0,0.0,0.0,0.0,0.0,0.0,0.0,0.0,0.0,0.0,0.0,0.0,0.0,0.0,0.0,0.0,0.0,0.0,0.0,0.0,0.0,0.0,0.0,0.0,0.0,0.0,0.0,0.0,0.0,0.0,0.0,0.0,0.0,0.0,0.0,0.0,0.0,0.0,0.0,0.0,0.0,0.0,0.0,0.0,0.0,0.0,0.0,0.0,0.0,0.0,0.0,0.0,0.0,0.0,0.0,0.0,0.0,0.0,0.0,0.0,0.0,0.0,0.0,0.0,0.0,0.0,0.0,0.0,0.0,0.0,0.0,0.0,0.0,0.0,0.0,0.0,0.0,0.0,0.0,0.0,0.0,0.0,0.0,0.0,0.0,0.0,0.0,0.0,0.0,0.0,0.0,0.0,0.0,0.0,0.0,0.0,0.0,0.0,0.0,0.0,0.0,0.0,0.0,0.0,0.0,-0.5218,-0.5869,-0.735,-0.7725,-0.6832,-0.5624,-0.4515,0.0,0.0,0.0,0.0,0.0,0.0,0.0,0.0,0.0,0.0,0.0,0.0,0.0,0.0,0.0,0.0,0.0,0.0,0.0,0.0,0.0,0.0,0.0,0.0,0.0,0.0,0.0,0.0,0.0,0.0,0.0,0.0,0.0,0.0,0.0,0.0,0.0,0.0,0.0,0.0,0.0,0.0,0.0,0.0,0.0,0.0,0.0,0.0,0.0,0.0,0.0,0.0,0.0,0.0,0.0,0.0,0.0,0.0,0.0,0.0,0.0,0.0,0.0,0.0,0.0,0.0,0.0,0.0,0.0,0.0,0.0,0.0,0.0,0.0,0.0,0.0,0.0,0.0,0.0,0.0,0.0,0.0,0.0,0.0,0.0,0.0,0.0,0.0,0.0,0.0,0.0,0.0,0.0,0.0,0.0,0.0,0.0,0.0,0.0,0.0,0.0,0.0,0.0,0.0,0.0,0.0,0.0,0.0,-0.5384,-0.544,-0.7349,-0.8055,-0.7438,-0.6429,-0.5332,0.0,0.0,0.0,0.0,0.0,0.0,0.0,0.0,0.0,0.0,0.0,0.0,0.0,0.0,0.0,0.0,0.0,0.0,0.0,0.0,0.0,0.0,0.0,0.0,0.0,0.0,0.0,0.0,0.0,0.0,0.0,0.0,0.0,0.0,0.0,0.0,0.0,0.0,0.0,0.0,0.0,0.0,0.0,0.0,0.0,0.0,0.0,0.0,0.0,0.0,0.0,0.0,0.0,0.0,0.0,0.0,0.0,0.0,0.0,0.0,0.0,0.0,0.0,0.0,0.0,0.0,0.0,0.0,0.0,0.0,0.0,0.0,0.0,0.0,0.0,0.0,0.0,0.0,0.0,0.0,0.0,0.0,0.0,0.0,0.0,0.0,0.0,0.0,0.0,0.0,0.0,0.0,0.0,0.0,0.0,0.0,0.0,0.0,0.0,0.0,0.0,0.0,0.0,0.0,0.0,0.0,0.0,0.0,-0.4938,-0.5415,-0.6474,-0.6956,-0.6769,-0.6317,-0.5642,0.0,0.0,0.0,0.0,0.0,0.0,0.0,0.0,0.0,0.0,0.0,0.0,0.0,0.0,0.0,0.0,0.0,0.0,0.0,0.0,0.0,0.0,0.0,0.0,0.0,0.0,0.0,0.0,0.0,0.0,0.0,0.0,0.0,0.0,0.0,0.0,0.0,0.0,0.0,0.0,0.0,0.0,0.0,0.0,0.0,0.0,0.0,0.0,0.1302,0.0,0.0,0.0,0.0,0.0,0.0,0.0,0.0,0.0,0.0,0.0,0.0,0.0,0.0,0.0,0.0,0.0,0.0,0.0,0.0,0.0,0.0,0.0,0.0,0.0,0.0,0.0,0.0,0.0,0.0,0.0,0.0,0.0,0.0,0.0,0.0,0.0,0.0,0.0,0.0,0.0,0.0,0.0,0.0,0.0,0.0,0.0,0.0,0.0,0.0,0.0,0.0,0.0,0.0,0.0,0.0,0.0,0.0,0.0,-0.4748,-0.5042,-0.6091,-0.6499,-0.6149,-0.5948,-0.5498,0.0,0.0,0.0,0.0,0.0,0.0,0.0,0.0,0.0,0.0,0.0,0.0,0.0,0.0,0.0,0.0,0.0,0.0,0.0,0.0,0.0,0.0,0.0,0.0,0.0,0.0,0.0,0.0,0.0,0.0,0.0,0.0,0.0,0.0,0.0,0.0,0.0,0.0,0.0,0.0,0.0,0.0,0.0,0.0,0.0,0.0,0.0,0.0,0.0,0.0,0.0,0.0,0.0,0.0,0.0,0.0,0.0,0.0,0.0,0.0,0.0,0.0,0.0,0.0,0.0,0.0,0.0,0.0,0.0,0.0,0.0,0.0,0.0,0.0,0.0,0.0,0.0,0.0,0.0,0.0,0.0,0.0,0.0,0.0,0.0,0.0,0.0,0.0,0.0,0.0,0.0,0.0,0.0,0.0,0.0,0.0,0.0,0.0,0.0,0.0,0.0,0.0,0.0,0.0,0.0,0.0,0.0,-0.4004,-0.4566,-0.4646,-0.5757,-0.6108,-0.5484,-0.5415,-0.5007,-0.418,0.0,0.0,0.0,0.0,0.0,0.0,0.0,0.0,0.0,0.0,0.0,0.0,0.0,0.0,0.0,0.0,0.0,0.0,0.0,0.0,0.0,0.0,0.0,0.0,0.0,0.0,0.0,0.0,0.0,0.0,0.0,0.0,0.0,0.0,0.0,0.0,0.0,0.0,0.0908,0.103,0.0,0.0,0.0,0.0,0.0,0.0,0.0,0.0,0.218,0.0,0.0,0.0,0.0,0.0,0.0,0.0,0.0,0.0,0.0,0.0,0.0,0.0,0.0,0.0,0.0,0.0,0.0,0.0,0.0,0.0,0.0,0.0,0.0,0.0,0.0,0.0,0.0,0.0,0.0,0.0,0.0,0.0,0.0,0.0,0.0,0.0,0.0,0.0,0.0,0.0,0.0,0.0,0.0,0.0,0.0,0.0,0.0,0.0,0.0,0.0,0.0,0.0,0.0,0.0,0.0,-0.2975,-0.3569,-0.4082,-0.4578,-0.4862,-0.4977,-0.4825,-0.4695,-0.4244,-0.3578,0.0,0.0,0.0,0.0,0.0,0.0,0.0,0.0,0.0,0.0,0.0,0.0,0.0,0.0,0.0,0.0,0.0,0.0,0.0,0.0,0.0,0.0,0.0,0.0,0.0,0.0,0.0,0.0,0.0,0.0,0.0,0.0,0.0,0.0,0.0,0.0,0.0,0.0,0.0,0.1161,0.1258,0.0,0.0,0.0,0.0,0.0,0.0,0.0,0.0,0.2218,0.0,0.0,0.0,0.0,0.0,0.0,0.0,0.0,0.0,0.0,0.0,0.0,0.0,0.0,0.0,0.0,0.0,0.0,0.0,0.0,0.0,0.0,0.0,0.0,0.0,0.0,0.0,0.0,0.0,0.0,0.0,0.0,0.0,0.0,0.0,0.0,0.0,0.0,0.0,0.0,0.0,0.0,0.0,0.0,0.0,0.0,0.0,0.0,0.0,0.0,0.0,0.0,0.0,0.0,0.0,-0.3049,-0.3682,-0.4255,-0.4687,-0.4751,-0.4773,-0.4769,-0.4461,-0.405,0.0,0.0,0.0,0.0,0.0,0.0,0.0,0.0,0.0,0.0,0.0,0.0,0.0,0.0,0.0,0.0,0.0,0.0,0.0,0.0,0.0,0.0,0.0,0.0,0.0,0.0,0.0,0.0,0.0,0.0,0.0,0.0,0.0,0.0,0.0,0.0,0.0,0.0,0.0,0.0,0.1348,0.1483,0.1504,0.0,0.0,0.0,0.0,0.0,0.0,0.2407,0.241,0.0,0.0,0.0,0.0,0.0,0.0,0.0,0.0,0.0,0.0,0.0,0.0,0.0,0.0,0.0,0.0,0.0,0.0,0.0,0.0,0.0,0.0,0.0,0.0,0.0,0.0,0.0,0.0,0.0,0.0,0.0,0.0,0.0,0.0,0.0,0.0,0.0,0.0,0.0,0.0,0.0,0.0,0.0,0.0,0.0,0.0,0.0,0.0,0.0,0.0,0.0,0.0,0.0,0.0,0.0,-0.3248,-0.3989,-0.4566,-0.4866,-0.4834,-0.4782,-0.4776,-0.4434,-0.3932,0.0,0.0,0.0,0.0,0.0,0.0,0.0,0.0,0.0,0.0,0.0,0.0,0.0,0.0,0.0,0.0,0.0,0.0,0.0,0.0,0.0,0.0,0.0,0.0,0.0,0.0,0.0,0.0,0.0,0.0,0.0,0.0,0.0,0.0,0.0,0.0,0.0,0.0,0.0,0.0,0.0,0.1593,0.1709,0.1853,0.0,0.0,0.0,0.0,0.2336,0.2453,0.0,0.0,0.0,0.0,0.0,0.0,0.0,0.0,0.0,0.0,0.0,0.0,0.0,0.0,0.0,0.0,0.0,0.0,0.0,0.0,0.0,0.0,0.0,0.0,0.0,0.0,0.0,0.0,0.0,0.0,0.0,0.0,0.0,0.0,0.0,0.0,0.0,0.0,0.0,0.0,0.0,0.0,0.0,0.0,0.0,0.0,0.0,0.0,0.0,0.0,0.0,0.0,0.0,0.0,0.0,0.0,-0.3703,-0.4339,-0.4802,-0.5116,-0.4935,-0.4782,-0.4774,-0.4257,-0.3687,0.0,0.0,0.0,0.0,0.0,0.0,0.0,0.0,0.0,0.0,0.0,0.0,0.0,0.0,0.0,0.0,0.0,0.0,0.0,0.0,0.0,0.0,0.0,0.0,0.0,0.0,0.0,0.0,0.0,0.0,0.0,0.0,0.0,0.0,0.0,0.0,0.0,0.0,0.0,0.0,0.0,0.153,0.1751,0.2011,0.2162,0.0,0.0,0.2099,0.2118,0.2069,0.0,0.0,0.0,0.0,0.0,0.0,0.0,0.0,0.0,0.0,0.0,0.0,0.0,0.0,0.0,0.0,0.0,0.0,0.0,0.0,0.0,0.0,0.0,0.0,0.0,0.0,0.0,0.0,0.0,0.0,0.0,0.0,0.0,0.0,0.0,0.0,0.0,0.0,0.0,0.0,0.0,0.0,0.0,0.0,0.0,0.0,0.0,0.0,0.0,0.0,0.0,0.0,0.0,0.0,0.0,-0.3362,-0.386,-0.4745,-0.5262,-0.5429,-0.5336,-0.5286,-0.5281,-0.4531,-0.3895,0.0,0.0,0.0,0.0,0.0,0.0,0.0,0.0,0.0,0.0,0.0,0.0,0.0,0.0,0.0,0.0,0.0,0.0,0.0,0.0,0.0,0.0,0.0,0.0,0.0,0.0,0.0,0.0,0.0,0.0,0.0,0.0,0.0,0.0,0.0,0.0,0.0,0.0,0.0,0.0,0.0,0.0,0.1749,0.1921,0.0,0.0,0.0,0.194,0.2008,0.0,0.0,0.0,0.0,0.0,0.0,0.0,0.0,0.0,0.0,0.0,0.0,0.0,0.0,0.0,0.0,0.0,0.0,0.0,0.0,0.0,0.0,0.0,0.0,0.0,0.0,0.0,0.0,0.0,0.0,0.0,0.0,0.0,0.0,0.0,0.0,0.0,0.0,0.0,0.0,0.0,0.0,0.0,0.0,0.0,0.0,0.0,0.0,0.0,0.0,0.0,0.0,0.0,0.0,0.0,0.0,0.0,-0.4071,-0.5155,-0.5687,-0.5687,-0.5636,-0.5584,-0.5572,-0.4865,0.0,0.0,0.0,0.0,0.0,0.0,0.0,0.0,0.0,0.0,0.0,0.0,0.0,0.0,0.0,0.0,0.0,0.0,0.0,0.0,0.0,0.0,0.0,0.0,0.0,0.0,0.0,0.0643,0.0,0.0,0.0,0.0,0.0,0.0,0.0,0.0,0.0,0.0,0.0,0.0,0.0,0.0,0.1456,0.1685,0.1758,0.1756,0.0,0.0,0.1821,0.1935,0.1978,0.2008,0.0,0.0,0.0,0.0,0.0,0.0,0.0,0.0,0.0,0.0,0.0,0.0,0.0,0.0,0.0,0.0,0.0,0.0,0.0,0.0,0.0,0.0,0.0,0.0,0.0,0.0,0.0,0.0,0.0,0.0,0.0,0.0,0.0,0.0,0.0,0.0,0.0,0.0,0.0,0.0,0.0,0.0,0.0,0.0,0.0,0.0,0.0,0.0,0.0,0.0,0.0,0.0,0.0,0.0,0.0,-0.4478,-0.5466,-0.5992,-0.5942,-0.5737,-0.5584,-0.5579,-0.521,-0.4594,0.0,0.0,0.0,0.0,0.0,0.0,0.0,0.0,0.0,0.0,0.0,0.0,0.0,0.0,0.0,0.0,0.0,0.0,0.0,0.0,0.0,0.0,0.0,0.0,0.0,0.0,0.0,0.0,0.0,0.0,0.0,0.0,0.0,0.0,0.0,0.0,0.0,0.0,0.0,0.0,0.0,0.1347,0.1526,0.1633,0.1709,0.0,0.0,0.1707,0.1781,0.1735,0.1608,0.1635,0.0,0.0,0.0,0.0,0.0,0.0,0.0,0.0,0.0,0.0,0.0,0.0,0.0,0.0,0.0,0.0,0.0,0.0,0.0,0.0,0.0,0.0,0.0,0.0,0.0,0.0,0.0,0.0,0.0,0.0,0.0,0.0,0.0,0.0,0.0,0.0,0.0,0.0,0.0,0.0,0.0,0.0,0.0,0.0,0.0,0.0,0.0,0.0,0.0,0.0,0.0,0.0,0.0,-0.4105,-0.462,-0.5695,-0.6239,-0.6239,-0.6137,-0.6087,-0.6087,-0.5672,-0.5074,0.0,0.0,0.0,0.0,0.0,0.0,0.0,0.0,0.0,0.0,0.0,0.0,0.0,0.0,0.0,0.0,0.0,0.0,0.0,0.0,0.0,0.0,0.0,0.0,0.0,0.0,0.0,0.0,0.0618,0.0656,0.0662,0.0,0.0,0.0,0.0,0.0,0.0,0.0,0.0,0.0,0.0,0.0959,0.1109,0.1129,0.0,0.0,0.1077,0.1158,0.1275,0.131,0.1323,0.1441,0.1355,0.0,0.0,0.0,0.0,0.0,0.0,0.0,0.0,0.0,0.0,0.0,0.0,0.0,0.0,0.0,0.0,0.0,0.0,0.0,0.0,0.0,0.0,0.0,0.0,0.0,0.0,0.0,0.0,0.0,0.0,0.0,0.0,0.0,0.0,0.0,0.0,0.0,0.0,0.0,0.0,0.0,0.0,0.0,0.0,0.0,0.0,0.0,0.0,0.0,0.0,0.0,0.0,-0.4156,-0.4742,-0.585,-0.6387,-0.6387,-0.6387,-0.6387,-0.6381,-0.6051,-0.5523,0.0,0.0,0.0,0.0,0.0,0.0,0.0,0.0,0.0,0.0,0.0,0.0,0.0,0.0,0.0,0.0,0.0,0.0,0.0,0.0,0.0,0.0,0.0,0.0,0.0,0.0,0.0,0.0,0.0502,0.0551,0.0502,0.0,0.0,0.0,0.0,0.0,0.0,0.0,0.0,0.0,0.0,0.0692,0.0836,0.0783,0.0754,0.075,0.0745,0.0782,0.0893,0.099,0.1054,0.1144,0.0,0.0,0.0,0.0,0.0,0.0,0.0,0.0,0.0,0.0,0.0,0.0,0.0,0.0,0.0,0.0,0.0,0.0,0.0,0.0,0.0,0.0,0.0,0.0,0.0,0.0,0.0,0.0,0.0,0.0,-0.1288,0.0,0.0,0.0,0.0,0.0,0.0,0.0,0.0,0.0,0.0,0.0,0.0,0.0,0.0,0.0,0.0,0.0,0.0,0.0,0.0,0.0,0.0,-0.4197,-0.4795,-0.5845,-0.6387,-0.6387,-0.6387,-0.6387,-0.6387,-0.6379,-0.6045,-0.5365,0.0,0.0,0.0,0.0,0.0,0.0,0.0,0.0,0.0,0.0,0.0,0.0,0.0,0.0,0.0,0.0,0.0,0.0,0.0,0.0,0.0,0.0,0.0,0.0,0.0,0.0,0.0377,0.0557,0.0641,0.0,0.0,0.0,0.0,0.0,0.0,0.0,0.0,0.0,0.0,0.051,0.0608,0.0654,0.0722,0.0735,0.0767,0.0752,0.0785,0.0785,0.0784,0.073,0.0,0.0,0.0,0.0,0.0,0.0,0.0,0.0,0.0,0.0,0.0,0.0,0.0,0.0,0.0,0.0,0.0,0.0,0.0,0.0,0.0,0.0,0.0,0.0,0.0,0.0,0.0,-0.3554,-0.3569,0.0,0.0,0.0,0.0,0.0,0.0,0.0,0.0,0.0,0.0,0.0,-0.7251,-0.7256,0.0,0.0,0.0,0.0,0.0,0.0,0.0,0.0,0.0,0.0,0.0,0.0,-0.4278,-0.4817,-0.5845,-0.6387,-0.6387,-0.6387,-0.6387,-0.6387,-0.6387,-0.6112,-0.5478,0.0,0.0,0.0,0.0,0.0,0.0,0.0,0.0,0.0,0.0,0.0,0.0,0.0,0.0,0.0,0.0,0.0,0.0,0.0,0.0,0.0,0.0,0.0,0.0,0.0,-0.0142,0.0,0.0,0.0,0.0,0.0,0.0,0.0,0.0,0.0,0.0,0.0,-0.0307,-0.0265,-0.0483,-0.0677,-0.0618,-0.0577,-0.0449,0.0,0.0,0.0,0.0,0.0,0.0,0.0,0.0,0.0,0.0,0.0,0.0,0.0,0.0,-0.1629,-0.0143,0.0285,0.0406,0.0464,0.0,0.0,0.0,0.0,0.0,0.0,0.0,0.0,0.0,0.0,0.0,0.0,0.0,0.0,-0.5285,0.0,-0.5133,0.0,0.0,0.0,0.0,0.0,0.0,0.0,0.0,-0.7894,-0.8794,-0.9381,-0.9386,-0.9299,0.0,-0.837,-0.7094,0.0,0.0,0.0,0.0,0.0,0.0,0.0,0.0,-0.4502,-0.5054,-0.5975,-0.6449,-0.6449,-0.654,-0.6564,-0.6564,-0.6562,-0.6333,-0.595,-0.544,-0.4876,0.0,0.0,0.0,0.0,0.0,0.0,0.0,0.0,0.0,0.0,0.0,0.0,0.0,0.0,0.0,0.0,0.0,0.0,0.0,0.0,0.0,0.0,0.0,-0.0862,0.0,0.0,0.0,0.0,0.0,0.0,0.0,0.0,0.0,-0.1391,-0.1373,-0.1423,-0.1443,-0.1753,-0.1834,-0.1534,0.0,0.0,0.0,0.0,0.0,0.0,0.0,-0.1221,-0.1263,-0.1486,-0.1856,-0.2533,-0.3166,-0.3588,-0.3712,0.0,0.0,-0.1485,-0.1033,-0.0899,-0.0784,-0.0824,-0.083,-0.083,-0.0909,-0.0918,0.0,0.0,0.0,0.0,0.0,0.0,0.0,0.0,-0.7077,-0.6938,0.0,-0.7049,0.0,0.0,0.0,0.0,0.0,-0.733,0.0,0.0,-1.1366,-1.2361,-1.1686,-1.1654,-1.1684,-1.1591,-0.9442,-0.8802,-0.9566,-0.8262,0.0,0.0,0.0,0.0,0.0,0.0,-0.4935,-0.5679,-0.6435,-0.6727,-0.6678,-0.6791,-0.6851,-0.6798,-0.6798,-0.6793,-0.6774,-0.623,-0.5812,-0.5513,-0.4389,0.0,0.0,0.0,0.0,0.0,0.0,0.0,0.0,0.0,0.0,0.0,0.0,0.0,0.0,0.0,0.0,0.0,0.0,0.0,0.0,-0.1815,0.0,0.0,0.0,0.0,0.0,0.0,0.0,0.0,0.0,0.0,-0.333,-0.318,-0.3006,-0.3023,0.0,0.0,0.0,0.0,-0.3071,-0.2251,-0.2206,-0.2304,-0.2304,-0.2669,-0.2952,-0.2936,0.0,0.0,-0.3919,-0.4163,-0.4382,-0.4368,-0.4235,-0.3876,-0.3421,-0.3213,-0.3063,-0.2876,-0.2841,-0.2991,-0.2997,-0.2896,-0.3059,-0.9316,0.0,0.0,0.0,0.0,-0.7405,-0.8143,-0.915,-0.9299,-0.9281,-0.9169,-0.9138,0.0,0.0,0.0,0.0,0.0,0.0,-0.9613,-1.0677,-1.1689,-1.2439,-1.2931,-1.2978,-1.298,-1.2954,-1.2278,-1.2097,-1.2338,-1.1954,-0.9963,-0.647,0.0,0.0,0.0,0.0,-0.7283,-0.8378,-0.8958,-0.8875,-0.8043,-0.8082,-0.7691,-0.6801,-0.6804,-0.6804,-0.6801,-0.6635,-0.6355,-0.5947,-0.536,0.0,0.0,0.0,0.0,0.0,0.0,0.0,0.0,0.0,0.0,0.0,0.0,0.0,0.0,0.0,0.0,0.0,0.0,0.0,-0.1388,-0.2095,-0.2265,0.0,0.0,0.0,0.0,0.0,0.0,0.0,0.0,0.0,-0.4831,-0.4033,-0.359,0.0,0.0,-0.4326,-0.4216,-0.443,-0.4544,-0.412,-0.4277,0.0,0.0,-0.4078,-0.4162,-0.4367,-0.4932,-0.5437,-0.5534,-0.5984,-0.6325,-0.6355,-0.6278,-0.6187,-0.5853,-0.4531,-0.369,-0.3895,-0.3725,-0.3466,-0.3418,-0.3483,-0.3488,-1.1752,-1.0523,-0.9681,-0.9359,-0.9395,-0.9571,-1.0217,-1.1203,-1.1353,-1.1309,-1.1096,-1.1257,-1.0499,-0.907,-0.8908,0.0,0.0,0.0,-1.023,-1.1086,-1.1681,-1.2339,-1.3028,-1.3039,-1.3335,-1.3732,-1.2492,-1.2588,-1.3932,-1.2694,-1.1071,-0.8954,0.0,0.0,-0.7282,-0.72,-0.7585,-0.8328,-0.8769,-0.867,-0.798,-0.8031,-0.7687,-0.6996,-0.6942,-0.6942,-0.6942,-0.6942,-0.6787,-0.6456,-0.6077,-0.5462,0.0,0.0,0.0,0.0,0.0,0.0,0.0,0.0,0.0,0.0,0.0,-0.1555,-0.1262,0.0,0.0,0.0,-0.1162,-0.1636,-0.2984,-0.3336,0.0,0.0,0.0,0.0,0.0,0.0,0.0,-0.3563,-0.5143,-0.621,-0.5973,-0.5544,-0.5273,-0.5423,-0.5734,-0.5836,-0.5628,0.0,-0.6044,-0.5601,-0.5681,-0.5745,-0.5503,-0.5598,-0.577,-0.6125,-0.6532,-0.6848,-0.6928,-0.7276,-0.7487,-0.749,-0.7435,-0.7293,-0.7081,-0.5936,-0.512,-0.536,-0.514,-0.4886,-0.4884,-0.4886,-0.4884,-1.358,-1.3403,-1.1636,-1.1136,-1.1477,-1.1667,-1.2148,-1.2854,-1.3129,-1.2871,-1.2367,-1.3136,-1.2529,-1.0947,-1.0573,0.0,-1.027,-1.0557,-1.0724,-1.0752,-1.1731,-1.2327,-1.2565,-1.2619,-1.3212,-1.4274,-1.1302,-1.1551,-1.4485,-1.187,-1.0936,-1.1913,-1.0815,-0.9509,-0.8149,-0.7307,-0.6879,-0.6874,-0.7191,-0.7268,-0.7162,-0.7213,-0.721,-0.721,-0.721,-0.721,-0.721,-0.721,-0.7161,-0.6991,-0.6578,-0.6168,-0.5676,0.0,0.0,0.0,0.0,0.0,0.0,0.0,0.0,0.0,0.0,0.0,0.0,0.0,0.0,0.0,-0.2619,0.0,-0.5651,-0.5181,0.0,0.0,0.0,-0.4298,-0.5104,-0.5359,-0.5398,-0.5184,0.0,0.0,-0.6927,-0.7348,-0.754,-0.7538,-0.7585,-0.735,-0.6592,-0.7243,-0.7559,-0.6781,-0.6775,-0.6799,-0.6839,-0.709,-0.744,-0.7765,-0.7992,-0.7922,-0.7925,-0.7928,-0.7992,-0.7989,-0.7826,-0.7546,-0.7265,-0.7196,-0.7221,-0.7013,-0.6883,-0.6783,-0.6688,-0.6688,-0.664,-1.41,-1.4082,-1.3631,-1.3263,-1.2954,-1.301,-1.3153,-1.3368,-1.3419,-1.3332,-1.3188,-1.3417,-1.3339,-1.3136,-1.3032,-1.3101,-1.3256,-1.332,-1.3351,-1.3372,-1.3619,-1.3879,-1.4164,-1.417,-1.4418,-1.4813,-1.4105,-1.4185,-1.496,-1.4284,-1.4145,-1.4521,-1.3426,-1.1577,-0.9211,-0.9747,-0.9957,-0.9709,-0.9764,-0.9359,-0.8433,-0.7636,-0.721,-0.721,-0.721,-0.721,-0.721,-0.721,-0.7199,-0.7169,-0.7059,-0.6752,-0.6162,-0.52,0.0,0.0,0.0,0.0,0.0,0.0,0.0,0.0,0.0,-0.266,-0.2391,0.0,-0.4306,0.0,-0.4474,-0.5926,-0.5492,-0.6183,0.0,0.0,-0.5566,-0.563,-0.5938,-0.6548,-0.6867,-0.6536,-0.7411,-0.8098,-0.8377,-0.83,-0.8324,-0.8515,-0.815,-0.7892,-0.7855,-0.8104,-0.8335,-0.8184,-0.8232,-0.8342,-0.8275,-0.8285,-0.8127,-0.8033,-0.7992,-0.7992,-0.7992,-0.7992,-0.7992,-0.7992,-0.7934,-0.7826,-0.7662,-0.7715,-0.7867,-0.7883,-0.7523,-0.7125,-0.7125,-0.7122,-0.7122,-1.4654,-1.4654,-1.4654,-1.4463,-1.4205,-1.3977,-1.3871,-1.3871,-1.3871,-1.3871,-1.3865,-1.3871,-1.3919,-1.4082,-1.4194,-1.409,-1.3785,-1.39,-1.3705,-1.3303,-1.3749,-1.3734,-1.3405,-1.3405,-1.3476,-1.355,-1.3194,-1.3299,-1.3724,-1.4406,-1.4524,-1.4113,-1.4013,-1.2553,-0.9926,-1.0435,-1.0478,-0.99,-0.9908,-0.9578,-0.8865,-0.7765,-0.7133,-0.6921,-0.6864,-0.6813,-0.6603,-0.6548,-0.6524,-0.6524,-0.657,-0.6498,-0.6113,-0.5366,-0.4615,0.0,0.0,0.0,0.0,0.0,0.0,0.0,0.0,0.0,0.0,0.0,-0.5655,-0.4047,-0.6385,-0.7497,-0.6285,-0.684,-0.7107,-0.6739,-0.6838,-0.705,-0.7383,-0.783,-0.8066,-0.7862,-0.8325,-0.875,-0.8854,-0.8791,-0.8743,-0.8861,-0.8598,-0.8416,-0.855,-0.8638,-0.8716,-0.875,-0.8828,-0.8937,-0.8937,-0.8768,-0.8602,-0.8436,-0.8436,-0.838,-0.838,-0.838,-0.8383,-0.838,-0.8322,-0.8211,-0.8103,-0.8048,-0.8048,-0.8048,-0.7823,-0.7543,-0.7435,-0.7382,-0.7324,-1.5113,-1.5113,-1.5113,-1.5113,-1.5077,-1.46,-1.4401,-1.4401,-1.4401,-1.4401,-1.4401,-1.4401,-1.4401,-1.4413,-1.466,-1.4249,-1.3396,-1.3453,-1.2987,-1.2267,-1.2936,-1.274,-1.1836,-1.1836,-1.1789,-1.1666,-1.1062,-1.1198,-1.2046,-1.336,-1.3452,-1.2467,-1.3457,-1.2689,-1.0288,-1.0233,-0.9849,-0.8975,-0.8848,-0.8718,-0.8646,-0.7697,-0.6977,-0.6589,-0.6456,-0.6236,-0.5918,-0.5793,-0.5688,-0.5694,-0.5844,-0.5926,-0.5953,-0.5281,-0.486,0.0,-0.3832,0.0,0.0,0.0,0.0,0.0,0.0,0.0,0.0,-0.6105,-0.6387,-0.6713,-0.8056,-0.8508,-0.7521,-0.7411,-0.7612,-0.8055,-0.8092,-0.8348,-0.8831,-0.8937,-0.8937,-0.8937,-0.8937,-0.8937,-0.8937,-0.8937,-0.8937,-0.8881,-0.8888,-0.8868,-0.8954,-0.8875,-0.8916,-0.8937,-0.8937,-0.8898,-0.8949,-0.8942,-0.8935,-0.8942,-0.8962,-0.8994,-0.8959,-0.8952,-0.8946,-0.8949,-0.8792,-0.8611,-0.8595,-0.8382,-0.8214,-0.8286,-0.823,-0.8106,-0.7782,-0.7662,-0.7549,-1.5113,-1.5113,-1.5113,-1.5113,-1.5101,-1.4998,-1.4956,-1.495,-1.4956,-1.4956,-1.495,-1.495,-1.4962,-1.4962,-1.501,-1.4927,-1.4669,-1.3835,-1.3346,-1.3084,-1.2304,-1.1987,-1.1939,-1.1948,-1.2032,-1.2241,-1.2126,-1.214,-1.2302,-1.2615,-1.2635,-1.2417,-1.2635,-1.1869,-1.0288,0.0,0.0,0.0,-0.8413,-0.7771,-0.7242,-0.7092,-0.6807,-0.6394,-0.6217,0.0,-0.5909,-0.5748,-0.5688,-0.5694,-0.5841,0.0,0.0,0.0,0.0,0.0,0.0,0.0,0.0,0.0,0.0,0.0,-0.6309,-0.6369,-0.6326,-0.6642,-0.7076,-0.7712,-0.8448,-0.8828,-0.8581,-0.8564,-0.8642,-0.8692,-0.8753,-0.8794,-0.8875,-0.8937,-0.8937,-0.8937,-0.8937,-0.8937,-0.8937,-0.8937,-0.8885,-0.895,-0.9042,-0.9106,-0.9169,-0.9022,-0.8947,-0.8937,-0.8957,-0.9035,-0.9262,-0.9225,-0.9205,-0.9273,-0.9296,-0.9289,-0.9279,-0.9286,-0.9289,-0.9283,-0.9235,-0.9229,-0.9232,-0.9181,-0.9046,-0.912,-0.9117,-0.8879,-0.8094,-0.7937,-0.7934,-1.5493,0.0,-1.5499,-1.5493,0.0,-1.5493,-1.5493,-1.5475,-1.5221,-1.5113,-1.5056,-1.4536,-1.427,-1.4231,-1.3778,-1.3574,-1.3527,-1.311,-1.2893,-1.2893,-1.2308,-1.178,-1.1347,-1.1347,-1.1129,-1.0676,-1.1273,-1.1273,-1.0731,-1.1819,-1.2091,-1.1542,-1.1542,-1.1164,-1.0453,-1.0021,-0.9801,-0.9739,-0.9115,-0.8608,-0.8268,-0.7615,-0.7116,-0.6709,-0.6421,0.0,0.0,0.0,0.0,0.0,0.0,0.0,0.0,0.0,0.0,-0.589,-0.5697,-0.5782,-0.6263,-0.6477,-0.6921,-0.7533,-0.7802,-0.7759,-0.7375,-0.7704,-0.8095,-0.8415,-0.8753,-0.8937,-0.8937,-0.8937,-0.8937,-0.8937,-0.8937,-0.8937,-0.8937,-0.8937,-0.8937,-0.8937,-0.8937,-0.8937,-0.8937,-0.9005,-0.9042,-0.9052,-0.9174,-0.9266,-0.9316,-0.9208,-0.9157,-0.9154,-0.911,-0.9097,-0.9334,-0.9391,-0.9371,-0.9384,-0.9381,-0.9381,-0.9381,-0.9381,-0.9381,-0.9381,-0.9381,-0.9381,-0.9381,-0.9381,-0.9381,-0.9381,-0.9381,-0.9286,-0.8777,-0.8533,-0.8314,-1.5885,-1.5885,-1.5885,-1.5885,-1.5885,-1.5885,-1.5885,-1.5861,0.0,0.0,0.0,-1.4253,-1.383,-1.3795,-1.2831,-1.238,-1.2389,-1.2175,-1.2091,-1.2091,-1.1873,-1.1273,-1.0402,-1.0398,-0.986,-0.8992,-0.9915,-0.986,-0.8992,-1.084,-1.1328,-1.0457,-1.0398,-1.0402,-1.0351,-0.9372,-0.9268,-0.9923,-0.9724,-0.9523,-0.9388,-0.8275,-0.744,-0.7031,-0.6692,-0.637,-0.6009,-0.5882,-0.5863,-0.5869,-0.5975,-0.6072,-0.6133,-0.6158,-0.62,-0.6258,-0.6409,-0.6822,-0.7449,-0.7788,-0.8196,-0.8851,-0.8937,-0.8781,-0.8414,-0.8672,-0.8937,-0.8937,-0.8937,-0.8937,-0.8937,-0.8937,-0.8937,-0.8937,-0.8937,-0.8937,-0.8937,-0.8937,-0.8892,-0.8967,-0.8981,-0.8991,-0.9028,-0.9123,-0.9251,-0.9268,-0.9327,-0.9439,-0.9445,-0.9405,-0.9367,-0.9395,-0.932,-0.9303,-0.9439,-0.9527,-0.9537,-0.9493,-0.9473,-0.9459,-0.9459,-0.9459,-0.9459,-0.9483,-0.9459,-0.9469,-0.9462,-0.9479,-0.9462,-0.9456,-0.9462,-0.9459,-0.9449,-0.917,-0.8781,-1.5885,-1.5885,-1.5885,-1.5885,-1.5885,-1.5885,-1.5885,-1.5885,-1.5807,-1.5777,-1.5777,-1.5618,-1.5559,-1.5506,-1.4373,-1.3901,-1.3739,-1.186,-1.0945,-1.0891,-0.9864,-0.932,-0.9154,-0.9158,-0.9044,-0.8937,-0.9099,-0.9047,-0.8992,-0.9265,-0.932,-0.921,-0.9158,-0.9154,-0.9154,-0.8992,-0.894,-0.9099,-0.8913,-0.8572,-0.8024,-0.79,-0.749,-0.6816,-0.6888,-0.6729,-0.6374,-0.6433,-0.6482,-0.6485,-0.6611,-0.6792,-0.7082,-0.7216,-0.7382,-0.7651,-0.772,-0.7909,-0.8301,-0.8365,-0.8565,-0.8868,-0.8937,-0.8854,-0.8801,-0.8848,-0.8937,-0.8937,-0.8937,-0.8937,-0.8937,-0.8937,-0.8937,-0.8937,-0.8937,-0.8937,-0.8892,-0.8947,-0.8994,-0.9106,-0.918,-0.9178,-0.9273,-0.933,-0.9347,-0.9371,-0.9479,-0.9618,-0.9669,-0.954,-0.9456,-0.9523,-0.9452,-0.9486,-0.9663,-0.9761,-0.9751,-0.9761,-0.9741,-0.9724,-0.9724,-0.972,-0.9724,-0.9747,-0.9727,-0.9734,-0.9737,-0.9758,-0.9734,-0.9724,-0.972,-0.973,-0.972,-0.9559,-0.9382,-1.6365,-1.6311,-1.6211,-1.6105,-1.6105,-1.5945,-1.5885,-1.5885,-1.5885,-1.5885,-1.5832,-1.5244,-1.4976,-1.4809,-1.3122,-1.2309,-1.22,-1.0515,-0.9695,-0.9695,-0.9158,-0.8937,-0.8937,-0.8937,-0.8937,-0.8937,-0.8937,-0.8937,-0.8937,-0.8937,-0.8937,-0.8937,-0.8937,-0.8937,-0.8937,-0.8937,-0.8937,-0.8937,-0.8814,-0.8638,-0.8358,-0.8287,-0.8024,-0.7691,-0.7629,-0.747,-0.7256,-0.7345,-0.7359,-0.7359,-0.7417,-0.7537,-0.7663,-0.7736,-0.7855,-0.8029,-0.8156,-0.8322,-0.8481,-0.8654,-0.8768,-0.8881,-0.8937,-0.8937,-0.8937,-0.8937,-0.8937,-0.8937,-0.8937,-0.8937,-0.8937,-0.8937,-0.8937,-0.8937,-0.8937,-0.8971,-0.9039,-0.9055,-0.9113,-0.9303,-0.9333,-0.9303,-0.9374,-0.9452,-0.9503,-0.9517,-0.9632,-0.9751,-0.9812,-0.9713,-0.9639,-0.9703,-0.9666,-0.9676,-0.9798,-0.9819,-0.9819,-0.9819,-0.9819,-0.9819,-0.9819,-0.9819,-0.9819,-0.9819,-0.9819,-0.9819,-0.9819,-0.9819,-0.9819,-0.9819,-0.9819,-0.9819,-0.9808,-0.9764,-0.9649,-1.6677,-1.6583,-1.6371,-1.6271,-1.6164,-1.5998,-1.5885,-1.5885,-1.5885,-1.5885,-1.5779,-1.497,-1.4628,-1.4451,-1.2441,-1.1324,-1.0945,-0.986,-0.9158,-0.8937,-0.8937,-0.8937,-0.8937,-0.8937,-0.8937,-0.8937,-0.8937,-0.8937,-0.8937,-0.8937,-0.8937,-0.8937,-0.8937,-0.8937,-0.8937,-0.8937,-0.8937,-0.8937,-0.8937,-0.8937,-0.8881,-0.8709,-0.8595,-0.8484,-0.8318,-0.8156,-0.81,-0.8159,-0.8211,-0.8214,-0.8211,-0.8214,-0.8214,-0.8214,-0.8211,-0.8214,-0.8432,-0.8595,-0.8598,-0.8768,-0.8937,-0.8937,-0.8937,-0.8937,-0.8937,-0.8937,-0.8937,-0.8937,-0.8937,-0.8937,-0.8888,-0.8974,-0.8988,-0.8984,-0.9018,-0.9096,-0.9245,-0.9258,-0.9266,-0.9398,-0.9435,-0.9442,-0.949,-0.9581,-0.9649,-0.9673,-0.9754,-0.9815,-0.9819,-0.9819,-0.9819,-0.9819,-0.9819,-0.9812,-0.9819,-0.9819,-0.9819,-0.9819,-0.9819,-0.9819,-0.9819,-0.9819,-0.9819,-0.9819,-0.9819,-0.9819,-0.9819,-0.9819,-0.9819,-0.9819,-0.9819,-0.9879,-1.0304,-0.9997,-0.9758,-1.6583,-1.6377,-1.6324,-1.6158,-1.5945,-1.5885,-1.5885,-1.5885,-1.5885,-1.5885,-1.5903,-1.5779,-1.5863,-1.5915,-1.4478,-1.3251,-1.2214,-1.1059,-0.9974,-0.8999,-0.8937,-0.8937,-0.8937,-0.8937,-0.8937,-0.8937,-0.8937,-0.8937,-0.8937,-0.8937,-0.8937,-0.8937,-0.8937,-0.8937,-0.8937,-0.8937,-0.8937,-0.8937,-0.8937,-0.8937,-0.8881,-0.8881,-0.8768,-0.854,-0.8712,-0.8712,-0.8484,-0.866,-0.8826,-0.8826,-0.8771,-0.883,-0.8774,-0.8826,-0.8826,-0.883,-0.8826,-0.8826,-0.8881,-0.8881,-0.8885,-0.8937,-0.8888,-0.8895,-0.895,-0.8885,-0.8937,-0.8954,-0.8947,-0.896,-0.8947,-0.9059,-0.919,-0.914,-0.9239,-0.9347,-0.9354,-0.9361,-0.9418,-0.9568,-0.9588,-0.9635,-0.9727,-0.9771,-0.9788,-0.9778,-0.9795,-0.9819,-0.9819,-0.9819,-0.9819,-0.9819,-0.9819,-0.9819,-0.9819,-0.9819,-0.9819,-0.9819,-0.9819,-0.9819,-0.9819,-0.9819,-0.9819,-0.9819,-0.9819,-0.9819,-0.9819,-0.9819,-0.9819,-0.9819,-0.9879,-1.0122,-1.0967,-1.0668,-1.0027,-1.7113,-1.6808,-1.6636,-1.6311,-1.5945,-1.5885,-1.5885,-1.5885,-1.5885,-1.5982,-1.6127,-1.6127,-1.6181,-1.6217,-1.5014,-1.4224,-1.378,-1.1882,-1.0675,-1.0114,-0.931,-0.8937,-0.8937,-0.8937,-0.8937,-0.8937,-0.8937,-0.8937,-0.8937,-0.8937,-0.8937,-0.8937,-0.8937,-0.8937,-0.8937,-0.8937,-0.8937,-0.8937,-0.8937,-0.8937,-0.8937,-0.8937,-0.8826,-0.8768,-0.8826,-0.8826,-0.8768,-0.8826,-0.8937,-0.8937,-0.8937,-0.8937,-0.8937,-0.8937,-0.8937,-0.8937,-0.8937,-0.8937,-0.8937,-0.8937,-0.8974,-0.9055,-0.9066,-0.91,-0.9181,-0.9042,-0.9005,-0.9171,-0.9198,-0.9198,-0.9205,-0.9256,-0.9347,-0.9354,-0.9405,-0.9415,-0.951,-0.9517,-0.9574,-0.971,-0.9734,-0.9751,-0.9805,-0.9819,-0.9819,-0.9819,-0.9819,-0.9819,-0.9819,-0.9819,-0.9819,-0.9819,-0.9819,-0.9819,-0.9819,-0.9819,-0.9819,-0.9819,-0.9819,-0.9819,-0.9819,-0.9819,-0.9819,-0.9819,-0.9819,-0.9819,-0.9819,-0.9819,-0.9819,-0.994,-0.9819,-1.0001,-1.0486,-1.0789,-1.0846,-1.7675,-1.7407,-1.7019,-1.6588,-1.6271,-1.6271,-1.6271,-1.6271,-1.6271,-1.635,-1.6405,-1.6344,-1.6332,-1.6282,-1.5504,-1.4937,-1.4256,-1.249,-1.1218,-1.0558,-0.9476,-0.9018,-0.8895,-0.8981,-0.8922,-0.8888,-0.8937,-0.8937,-0.8937,-0.8937,-0.8937,-0.8937,-0.8937,-0.8937,-0.8937,-0.8937,-0.8937,-0.8885,-0.8919,-0.8998,-0.9005,-0.8983,-0.9039,-0.9005,-0.9039,-0.9062,-0.9003,-0.9059,-0.9003,-0.9062,-0.9062,-0.9062,-0.9059,-0.9059,-0.9059,-0.9059,-0.9059,-0.9059,-0.9059,-0.9059,-0.9103,-0.9258,-0.9272,-0.932,-0.932,-0.9181,-0.9184,-0.9401,-0.9476,-0.9483,-0.9388,-0.9418,-0.9445,-0.9445,-0.9473,-0.9551,-0.9652,-0.9669,-0.9703,-0.9802,-0.9808,-0.9819,-0.9819,-0.9819,-0.9819,-0.9819,-0.9819,-0.9819,-0.9819,-0.9819,-0.9819,-0.9819,-0.9819,-0.9819,-0.9819,-0.9819,-0.9819,-0.9819,-0.9819,-0.9819,-0.9819,-0.9819,-1.0183,-1.0425,-1.0061,-1.0361,-1.1144,-1.1023,-1.0604,-1.0785,-1.0842,-1.1023,-1.1981,-1.2105,-1.2586,-1.834,-1.7981,-1.7433,-1.7179,-1.7154,-1.7129,-1.7136,-1.7104,-1.7129,-1.7017,-1.6776,-1.6484,-1.649,-1.6676,-1.6582,-1.5321,-1.3393,-1.2965,-1.1667,-0.9748,-0.9401,-0.9208,-0.8902,-0.9072,-0.9076,-0.8967,-0.8957,-0.8947,-0.8885,-0.8937,-0.8937,-0.8937,-0.8937,-0.8937,-0.8937,-0.8937,-0.8885,-0.8964,-0.9069,-0.9197,-0.9217,-0.9286,-0.9286,-0.9241,-0.9276,-0.934,-0.9347,-0.9357,-0.9354,-0.9354,-0.934,-0.9347,-0.9351,-0.9347,-0.934,-0.9344,-0.9347,-0.9351,-0.9344,-0.9337,-0.9351,-0.9371,-0.9371,-0.9378,-0.9418,-0.9388,-0.9435,-0.9588,-0.97,-0.9669,-0.9473,-0.9534,-0.9595,-0.9608,-0.9713,-0.9778,-0.9798,-0.9788,-0.9808,-0.9819,-0.9819,-0.9819,-0.9819,-0.9819,-0.9822,-0.9822,-0.9819,-0.9819,-0.9819,-0.9819,-0.9819,-0.9819,-0.9819,-0.9819,-0.9819,-0.9819,-0.9819,-0.9819,-0.9819,-0.9879,-0.9819,-0.994,-1.0604,-1.1027,-1.0781,-1.1261,-1.2586,-1.2946,-1.247,-1.253,-1.2826,-1.3246,-1.3301,-1.3725,-1.4143,-1.8317,-1.7971,-1.7644,-1.7483,-1.7483,-1.7477,-1.7421,-1.7427,-1.7477,-1.7426,-1.7327,-1.7167,-1.719,-1.7289,-1.7238,-1.6727,-1.5748,-1.3911,-1.2539,-1.157,-1.0156,-0.9273,-0.911,-0.9228,-0.9218,-0.9093,-0.9076,-0.9028,-0.8888,-0.8937,-0.8937,-0.8937,-0.8937,-0.8937,-0.8937,-0.8937,-0.8981,-0.9072,-0.9187,-0.9255,-0.9364,-0.9449,-0.9496,-0.9445,-0.9401,-0.9381,-0.9381,-0.9381,-0.9381,-0.9381,-0.9381,-0.9381,-0.9381,-0.9381,-0.9381,-0.9381,-0.9381,-0.9381,-0.9381,-0.9381,-0.9429,-0.9517,-0.9527,-0.9564,-0.9639,-0.9663,-0.9686,-0.9741,-0.9785,-0.9754,-0.9713,-0.9717,-0.9744,-0.9754,-0.9788,-0.9819,-0.9819,-0.9819,-0.9819,-0.9819,-0.9819,-0.9819,-0.9822,-1.0004,-1.0061,-0.9883,-0.994,-1.0001,-0.9819,-0.9819,-0.9883,-0.9819,-0.9822,-1.0126,-1.097,-1.0243,-0.9822,-0.9819,-0.9879,-1.0482,-1.0664,-1.0967,-1.1567,-1.2586,-1.2221,-1.2221,-1.3605,-1.3904,-1.3605,-1.3665,-1.4023,-1.4441,-1.4262,-1.4738,-1.5337,-1.8652,-1.842,-1.8138,-1.8031,-1.8031,-1.8025,-1.8031,-1.8031,-1.8025,-1.798,-1.7898,-1.7749,-1.7716,-1.7665,-1.7477,-1.7211,-1.6774,-1.4354,-1.3028,-1.2454,-1.0482,-0.9418,-0.9276,-0.9384,-0.9378,-0.9296,-0.9228,-0.9156,-0.9011,-0.896,-0.8937,-0.8937,-0.8937,-0.8937,-0.8937,-0.8937,-0.9008,-0.9187,-0.9255,-0.9357,-0.9452,-0.9602,-0.9676,-0.9663,-0.9578,-0.952,-0.9523,-0.9523,-0.9523,-0.9523,-0.952,-0.9523,-0.952,-0.952,-0.9523,-0.9523,-0.9527,-0.9523,-0.9523,-0.9523,-0.9571,-0.9666,-0.968,-0.9724,-0.9812,-0.9819,-0.9819,-0.9819,-0.9819,-0.9819,-0.9819,-0.9819,-0.9819,-0.9819,-0.9819,-0.9819,-0.9819,-0.9819,-0.9819,-0.9819,-0.9819,-0.9819,-0.9819,-1.0004,-1.0004,-0.9822,-1.0001,-1.0001,-0.9879,-1.0183,-1.0425,-1.0486,-1.0967,-1.1567,-1.2169,-1.1864,-1.1623,-1.1563,-1.1261,-1.1563,-1.1864,-1.2165,-1.2766,-1.3784,-1.4143,-1.4083,-1.4202,-1.4619,-1.4738,-1.4798,-1.5213,-1.5752,-1.5752,-1.5811,-1.6231,-1.9345,-1.9261,-1.9049,-1.8816,-1.8803,-1.8861,-1.8906,-1.8816,-1.888,-1.8723,-1.8483,-1.8198,-1.8052,-1.7938,-1.7585,-1.6906,-1.6135,-1.4494,-1.2903,-1.1589,-1.0377,-0.9639,-0.9401,-0.9537,-0.9527,-0.9378,-0.9289,-0.9217,-0.915,-0.9028,-0.896,-0.895,-0.8892,-0.8937,-0.8937,-0.8954,-0.9022,-0.9228,-0.9367,-0.9456,-0.9605,-0.9737,-0.9798,-0.9805,-0.9791,-0.9785,-0.9798,-0.9795,-0.9781,-0.9791,-0.9791,-0.9812,-0.9781,-0.9785,-0.9802,-0.9781,-0.9802,-0.9808,-0.9802,-0.9788,-0.9774,-0.9798,-0.9812,-0.9802,-0.9815,-0.9819,-0.9819,-0.9819,-0.9819,-0.9819,-0.9819,-0.9819,-0.9819,-0.9819,-0.9819,-0.9819,-0.9819,-0.9819,-0.9819,-0.9819,-0.9819,-0.9819,-0.9819,-0.9879,-0.9943,-1.0065,-1.0122,-1.0301,-1.0539,-1.1261,-1.1687,-1.1985,-1.2526,-1.3181,-1.3481,-1.3725,-1.372,-1.372,-1.3301,-1.3241,-1.3421,-1.3725,-1.4262,-1.51,-1.5159,-1.5095,-1.5569,-1.593,-1.6408,-1.6585,-1.6944,-1.6826,-1.6826,-1.6767,-1.7003,-1.9424,-1.9424,-1.9301,-1.9249,-1.9243,-1.9243,-1.9243,-1.9243,-1.9243,-1.919,-1.9066,-1.8751,-1.8635,-1.8558,-1.8186,-1.7838,-1.7461,-1.5128,-1.3067,-1.1537,-1.0353,-0.9724,-0.9598,-0.9686,-0.9683,-0.9534,-0.9442,-0.9313,-0.9283,-0.9161,-0.9086,-0.9072,-0.8932,-0.8885,-0.8902,-0.9035,-0.9217,-0.931,-0.9462,-0.9608,-0.9741,-0.9795,-0.9819,-0.9819,-0.9819,-0.9819,-0.9819,-0.9819,-0.9819,-0.9819,-0.9819,-0.9819,-0.9819,-0.9819,-0.9819,-0.9819,-0.9819,-0.9819,-0.9819,-0.9819,-0.9819,-0.9819,-0.9819,-0.9819,-0.9819,-0.9819,-0.9819,-0.9819,-0.9819,-0.9819,-0.9819,-0.9819,-0.9819,-0.9819,-0.9819,-0.9819,-0.9819,-0.9819,-0.9819,-0.9819,-0.9819,-0.9819,-0.9879,-1.0061,-1.0604,-1.1088,-1.1329,-1.1627,-1.2513,-1.2928,-1.3471,-1.371,-1.4312,-1.4852,-1.5208,-1.5505,-1.5623,-1.5445,-1.503,-1.4798,-1.4976,-1.51,-1.5693,-1.6053,-1.6053,-1.6231,-1.6703,-1.7062,-1.7361,-1.7485,-1.7303,-1.7303,-1.742,-1.7485,-1.7485,-1.9424,-1.9424,-1.9424,-1.9424,-1.9424,-1.9424,-1.9424,-1.9424,-1.9424,-1.9424,-1.9366,-1.9178,-1.8816,-1.8467,-1.8467,-1.7701,-1.645,-1.4837,-1.3163,-1.1363,-1.0307,-0.9768,-0.9703,-0.9771,-0.9781,-0.968,-0.954,-0.9469,-0.9456,-0.9317,-0.9296,-0.9275,-0.9147,-0.911,-0.911,-0.9195,-0.9371,-0.9459,-0.9561,-0.968,-0.9788,-0.9819,-0.9819,-0.9819,-0.9819,-0.9819,-0.9819,-0.9819,-0.9819,-0.9819,-0.9819,-0.9819,-0.9819,-0.9819,-0.9819,-0.9819,-0.9819,-0.9819,-0.9819,-0.9819,-0.9819,-0.9819,-0.9819,-0.9819,-0.9819,-0.9819,-0.9819,-0.9819,-0.9819,-0.9819,-0.9819,-0.9819,-0.9819,-0.9819,-0.9819,-0.9819,-0.9819,-0.9819,-0.9819,-0.9879,-1.0301,-1.0899,-1.1499,-1.1736,-1.2101,-1.2702,-1.2942,-1.3241,-1.4183,-1.4653,-1.5015,-1.5435,-1.5972,-1.6509,-1.7044,-1.7343,-1.7519,-1.7109,-1.6644,-1.6467,-1.6473,-1.6349,-1.6649,-1.6826,-1.6885,-1.6826,-1.7244,-1.7303,-1.7485,-1.7485,-1.7485,-1.7485,-1.7485,-1.7485,-1.7485,-1.9424,-1.9424,-1.9424,-1.9424,-1.9424,-1.9424,-1.9424,-1.9424,-1.9424,-1.9307,-1.9243,-1.9068,-1.8467,-1.7812,-1.8163,-1.7038,-1.4187,-1.4366,-1.3586,-1.1663,-1.0482,-0.9926,-0.9862,-0.9815,-0.9808,-0.9781,-0.9676,-0.9622,-0.9612,-0.9469,-0.9395,-0.9388,-0.9357,-0.9367,-0.9344,-0.9381,-0.9459,-0.9571,-0.9615,-0.9703,-0.9815,-0.9819,-0.9819,-0.9819,-0.9819,-0.9819,-0.9819,-0.9819,-0.9819,-0.9819,-0.9819,-0.9819,-0.9819,-0.9819,-0.9819,-0.9819,-0.9819,-0.9819,-0.9819,-0.9819,-0.9819,-0.9819,-0.9819,-0.9819,-0.9819,-0.9819,-0.9819,-0.9819,-0.9819,-0.9819,-0.9819,-1.0001,-1.0061,-1.0119,-1.0061,-0.9879,-0.994,-1.0058,-1.0061,-1.0179,-1.1197,-1.2988,-1.4421,-1.4599,-1.4307,-1.4604,-1.4663,-1.4782,-1.537,-1.6085,-1.6503,-1.7038,-1.7519,-1.7818,-1.8175,-1.8233,-1.8357,-1.8175,-1.7766,-1.7596,-1.7543,-1.742,-1.7361,-1.7537,-1.7602,-1.7543,-1.7543,-1.7543,-1.7543,-1.7485,-1.7485,-1.7485,-1.7485,-1.7485,-1.7485,-1.9424,-1.9424,-1.9424,-1.9424,-1.9424,-1.9424,-1.9424,-1.9424,-1.9424,-1.8946,-1.8227,-1.7987,-1.7461,-1.6338,-1.7396,-1.7214,-1.6085,-1.5316,-1.4787,-1.3715,-1.1507,-1.0486,-1.0122,-0.9883,-0.9819,-0.9812,-0.9778,-0.9764,-0.9754,-0.9615,-0.9551,-0.9544,-0.9449,-0.9391,-0.9391,-0.95,-0.9561,-0.9622,-0.972,-0.9774,-0.9808,-0.9819,-0.9819,-0.9819,-0.9819,-0.9819,-0.9819,-0.9819,-0.9819,-0.9819,-0.9819,-0.9819,-0.9819,-0.9819,-0.9819,-0.9819,-0.9819,-0.9819,-0.9819,-0.9819,-0.9819,-0.9819,-0.9819,-0.9819,-0.9819,-0.9822,-0.9819,-0.9819,-0.9819,-0.9883,-1.0004,-1.0664,-1.1559,-1.2509,-1.1257,-1.0482,-1.1318,-1.1555,-1.1197,-1.0358,-1.2393,-1.4955,-1.6621,-1.6267,-1.5257,-1.5849,-1.6149,-1.6391,-1.7097,-1.7572,-1.7987,-1.8467,-1.8887,-1.901,-1.9127,-1.9127,-1.9127,-1.9062,-1.8771,-1.8357,-1.824,-1.8064,-1.8071,-1.8188,-1.796,-1.7843,-1.7784,-1.7726,-1.7667,-1.7543,-1.7485,-1.7485,-1.7485,-1.7485,-1.7485,-1.9424,-1.9424,-1.9424,-1.9424,-1.9424,-1.9424,-1.9424,-1.9424,-1.9366,-1.901,-1.8409,-1.8292,-1.7578,-1.6632,-1.7695,-1.7273,-1.5972,-1.5505,-1.4733,-1.337,-1.1752,-1.0789,-1.0304,-0.9943,-0.9819,-0.9819,-0.9819,-0.9819,-0.9805,-0.9734,-0.9703,-0.9686,-0.9612,-0.9568,-0.9585,-0.9642,-0.9696,-0.9713,-0.9781,-0.9819,-0.9819,-0.9819,-0.9819,-0.9819,-0.9819,-0.9819,-0.9819,-0.9819,-0.9819,-0.9819,-0.9819,-0.9819,-0.9819,-0.9819,-0.9819,-0.9819,-0.9819,-0.9819,-0.9819,-0.9819,-0.9819,-0.9819,-0.9819,-0.9819,-0.994,-1.0183,-1.0486,-0.9879,-1.0725,-1.1088,-1.0906,-1.186,-1.3057,-1.3646,-1.2689,-1.2213,-1.3172,-1.3232,-1.2808,-1.2689,-1.4059,-1.6497,-1.9062,-1.7578,-1.722,-1.7519,-1.776,-1.8233,-1.8765,-1.9062,-1.912,-1.9301,-1.9424,-1.9366,-1.9307,-1.9307,-1.9307,-1.9307,-1.9243,-1.8946,-1.8713,-1.848,-1.8421,-1.8421,-1.8252,-1.8135,-1.8077,-1.796,-1.7849,-1.7726,-1.7608,-1.7543,-1.7543,-1.7485,-1.7485,-1.9424,-1.9424,-1.9424,-1.9424,-1.9424,-1.9424,-1.9424,-1.9424,-1.9424,-1.9249,-1.9004,-1.9127,-1.8058,-1.7396,-1.8052,-1.7343,-1.4436,-1.5332,-1.3913,-1.2603,-1.1402,-1.097,-1.0547,-1.0122,-0.994,-0.9883,-0.9822,-0.9819,-0.9815,-0.9812,-0.9812,-0.9795,-0.9795,-0.9808,-0.9771,-0.9802,-0.9815,-0.9805,-0.9808,-0.9819,-0.9819,-0.9819,-0.9819,-0.9819,-0.9819,-0.9819,-0.9819,-0.9819,-0.9819,-0.9819,-0.9819,-0.9819,-0.9819,-0.9819,-0.9819,-0.9819,-0.9819,-0.9819,-0.9819,-0.9819,-0.9819,-0.9819,-0.994,-1.0001,-1.0361,-1.1209,-1.1571,-1.0781,-1.2406,-1.2826,-1.2822,-1.3586,-1.4475,-1.5015,-1.4955,-1.502,-1.5079,-1.496,-1.4901,-1.5138,-1.6492,-1.7806,-1.8823,-1.9424,-1.9307,-1.8473,-1.8771,-1.8887,-1.9185,-1.9243,-1.9301,-1.9366,-1.9424,-1.9424,-1.9424,-1.9424,-1.9366,-1.9366,-1.9366,-1.9185,-1.8887,-1.8713,-1.8596,-1.8538,-1.8544,-1.8544,-1.8421,-1.8311,-1.8083,-1.7966,-1.7843,-1.7719,-1.7543,-1.7485,-1.7485,-1.9424,-1.9424,-1.9424,-1.9424,-1.9424,-1.9424,-1.9424,-1.9424,-1.9424,-1.8887,-1.8169,-1.7987,-1.7285,-1.622,-1.7519,-1.7331,-1.6391,-1.58,-1.4212,-1.201,-1.1458,-1.1273,-1.097,-1.0486,-1.0247,-1.0126,-0.9943,-0.9822,-0.9822,-0.9822,-0.9819,-0.9819,-0.9819,-0.9819,-0.9819,-0.9819,-0.9819,-0.9819,-0.9819,-0.9819,-0.9819,-0.9819,-0.9819,-0.9819,-0.9819,-0.9819,-0.9819,-0.9819,-0.9819,-0.9819,-0.9819,-0.9819,-0.9819,-0.9819,-0.9819,-0.9819,-0.9819,-0.9819,-0.9819,-0.9819,-0.9819,-1.0004,-1.0668,-1.1329,-1.139,-1.2466,-1.3066,-1.2886,-1.3426,-1.4252,-1.4901,-1.5311,-1.6197,-1.7091,-1.763,-1.787,-1.8052,-1.7214,-1.7032,-1.7929,-1.8467,-1.9004,-1.9307,-1.9424,-1.9424,-1.9424,-1.9424,-1.9424,-1.9424,-1.9424,-1.9424,-1.9424,-1.9424,-1.9424,-1.9424,-1.9424,-1.9424,-1.9424,-1.9424,-1.9424,-1.9127,-1.901,-1.8952,-1.8946,-1.8946,-1.8887,-1.8771,-1.8532,-1.8305,-1.8194,-1.8077,-1.7901,-1.7778,-1.7661,-1.7485,-1.9424,-1.9424,-1.9424,-1.9424,-1.9424,-1.9424,-1.9424,-1.9424,-1.9424,-1.9068,-1.8525,-1.8402,-1.7994,-1.7467,-1.8058,-1.8169,-1.7097,-1.5505,-1.3674,-1.207,-1.1587,-1.1522,-1.1462,-1.1035,-1.0728,-1.0547,-1.0183,-1.0061,-1.0001,-0.9883,-0.9819,-0.9819,-0.9819,-0.9819,-0.9819,-0.9819,-0.9819,-0.9819,-0.9819,-0.9819,-0.9819,-0.9819,-0.9819,-0.9819,-0.9819,-0.9819,-0.9819,-0.9819,-0.9819,-0.9819,-0.9819,-0.9819,-0.9819,-0.9819,-0.9819,-0.9819,-0.9819,-0.9819,-0.9819,-0.9819,-1.0061,-1.0668,-1.1329,-1.1989,-1.2651,-1.3665,-1.3963,-1.4143,-1.4911,-1.622,-1.7038,-1.7331,-1.8046,-1.8519,-1.9062,-1.9178,-1.9243,-1.8642,-1.8344,-1.9185,-1.9243,-1.9307,-1.9424,-1.9424,-1.9424,-1.9424,-1.9424,-1.9424,-1.9424,-1.9424,-1.9424,-1.9424,-1.9424,-1.9424,-1.9424,-1.9424,-1.9424,-1.9424,-1.9424,-1.9424,-1.9307,-1.9307,-1.9366,-1.9301,-1.9185,-1.9185,-1.9068,-1.8829,-1.8648,-1.859,-1.8421,-1.8194,-1.8018,-1.7901,-1.7661,-1.9424,-1.9424,-1.9424,-1.9424,-1.9424,-1.9424,-1.9424,-1.9424,-1.9424,-1.9366,-1.9366,-1.9424,-1.9127,-1.9307,-1.9249,-1.859,-1.6926,-1.5327,-1.3495,-1.1953,-1.1772,-1.1772,-1.1651,-1.1462,-1.1216,-1.091,-1.0547,-1.0425,-1.0304,-1.0122,-1.0122,-1.0001,-0.9879,-1.0001,-1.0001,-0.9819,-0.9819,-0.9879,-0.9822,-0.9819,-0.9819,-0.9819,-0.9819,-0.9819,-0.9819,-0.9819,-0.9819,-0.9819,-0.9819,-0.9819,-0.9819,-0.9819,-0.9819,-0.9819,-0.9819,-0.9819,-0.9819,-0.9819,-1.0001,-1.0122,-1.0668,-1.1692,-1.229,-1.2826,-1.3904,-1.4798,-1.5095,-1.551,-1.6338,-1.7941,-1.8473,-1.8467,-1.87,-1.8997,-1.9249,-1.9366,-1.9424,-1.9424,-1.9366,-1.9366,-1.9424,-1.9424,-1.9424,-1.9424,-1.9424,-1.9424,-1.9424,-1.9424,-1.9424,-1.9424,-1.9424,-1.9424,-1.9424,-1.9424,-1.9424,-1.9424,-1.9424,-1.9424,-1.9424,-1.9424,-1.9424,-1.9424,-1.9424,-1.9424,-1.9366,-1.9366,-1.9307,-1.9127,-1.9004,-1.8939,-1.8765,-1.8538,-1.8311,-1.8142,-1.796,-1.9424,-1.9424,-1.9424,-1.9424,-1.9424,-1.9424,-1.9424,-1.9424,-1.9424,-1.9424,-1.9424,-1.9424,-1.9424,-1.9424,-1.9424,-1.8123,-1.6338,-1.5154,-1.3913,-1.213,-1.1837,-1.1837,-1.1772,-1.1712,-1.1651,-1.1466,-1.1095,-1.0793,-1.0728,-1.0668,-1.0547,-1.0547,-1.0365,-1.0304,-1.0365,-1.0122,-1.0001,-1.0183,-1.0004,-0.994,-0.9879,-0.9879,-0.9879,-0.9879,-0.9879,-0.9879,-0.9822,-0.9822,-0.9819,-0.9819,-0.9819,-0.9819,-0.9879,-0.9879,-0.9883,-0.9822,-0.9883,-1.0061,-1.0422,-1.0967,-1.1511,-1.2414,-1.3725,-1.4793,-1.551,-1.6284,-1.6591,-1.7062,-1.7642,-1.8648,-1.8816,-1.8939,-1.9062,-1.9243,-1.9366,-1.9424,-1.9424,-1.9424,-1.9424,-1.9424,-1.9424,-1.9424,-1.9424,-1.9424,-1.9424,-1.9424,-1.9424,-1.9424,-1.9424,-1.9424,-1.9424,-1.9424,-1.9424,-1.9424,-1.9424,-1.9424,-1.9424,-1.9424,-1.9424,-1.9424,-1.9424,-1.9424,-1.9424,-1.9424,-1.9424,-1.9366,-1.9366,-1.9307,-1.9301,-1.9185,-1.9004,-1.8823,-1.859,-1.8421,-1.8305,-1.9424,-1.9424,-1.9424,-1.9424,-1.9424,-1.9424,-1.9424,-1.9424,-1.9424,-1.9424,-1.9424,-1.9424,-1.9424,-1.9424,-1.9424,-1.8,-1.6161,-1.5569,-1.4152,-1.2251,-1.1837,-1.1837,-1.1837,-1.1837,-1.1837,-1.1716,-1.147,-1.1216,-1.1031,-1.0849,-1.0853,-1.0789,-1.0607,-1.0668,-1.0728,-1.0486,-1.0425,-1.0482,-1.0365,-1.0304,-1.0304,-1.0304,-1.0304,-1.0243,-1.0122,-1.0061,-1.0061,-1.0065,-1.0061,-1.0122,-1.0243,-1.0304,-1.0304,-1.0304,-1.0247,-1.0126,-1.0186,-1.0725,-1.1382,-1.2105,-1.2822,-1.4376,-1.5564,-1.6338,-1.6873,-1.7355,-1.7772,-1.8363,-1.8421,-1.8829,-1.9127,-1.912,-1.9243,-1.9366,-1.9424,-1.9424,-1.9424,-1.9424,-1.9424,-1.9424,-1.9424,-1.9424,-1.9424,-1.9424,-1.9424,-1.9424,-1.9424,-1.9424,-1.9424,-1.9424,-1.9424,-1.9424,-1.9424,-1.9424,-1.9424,-1.9424,-1.9424,-1.9424,-1.9649,-1.9649,-1.9649,-1.9764,-1.9597,-1.9424,-1.9424,-1.9822,-1.9424,-1.9366,-1.9424,-1.9482,-1.941,-1.9287,-1.8991,-1.8758,-1.8765,-1.9424,-1.9424,-1.9424,-1.9424,-1.9424,-1.9424,-1.9424,-1.9424,-1.9424,-1.9424,-1.9424,-1.9424,-1.9424,-1.9424,-1.9127,-1.8058,-1.5747,-1.5569,-1.4152,-1.2251,-1.1837,-1.1837,-1.1837,-1.1837,-1.1837,-1.1776,-1.1776,-1.1647,-1.1402,-1.1216,-1.1035,-1.1035,-1.0974,-1.0974,-1.0978,-1.0853,-1.0849,-1.0846,-1.0785,-1.0793,-1.0793,-1.0793,-1.0793,-1.0793,-1.0543,-1.0425,-1.0425,-1.0365,-1.0429,-1.0486,-1.0607,-1.0793,-1.0785,-1.0849,-1.0789,-1.0607,-1.0725,-1.1503,-1.2457,-1.3112,-1.4068,-1.5978,-1.6685,-1.7461,-1.7883,-1.7948,-1.8129,-1.9068,-1.9127,-1.901,-1.9307,-1.9366,-1.9366,-1.9424,-1.9424,-1.9424,-1.9424,-1.9424,-1.9424,-1.9424,-1.9424,-1.9424,-1.9424,-1.9424,-1.9424,-1.9424,-1.9424,-1.9424,-1.9424,-1.9424,-1.9424,-1.9424,-1.9424,-1.9424,-1.9424,-1.9424,-1.9424,-1.9424,-1.988,-2.022,-2.022,-2.0277,-2.022,-2.0443,-2.0608,-2.0895,-2.0162,-1.9597,-1.9764,-1.988,-1.9931,-1.9758,-1.9352,-1.9403,-1.9513,-1.9424,-1.9424,-1.9424,-1.9424,-1.9424,-1.9424,-1.9424,-1.9424,-1.9424,-1.9424,-1.9424,-1.9424,-1.9424,-1.9424,-1.9424,-1.7941,-1.6225,-1.5451,-1.4212,-1.2074,-1.1837,-1.1837,-1.1837,-1.1837,-1.1837,-1.1837,-1.1837,-1.1776,-1.1651,-1.1591,-1.1651,-1.1591,-1.1402,-1.1341,-1.1466,-1.116,-1.0967,-1.1152,-1.097,-1.0853,-1.0853,-1.0853,-1.0853,-1.0853,-1.0789,-1.0728,-1.0728,-1.0728,-1.0728,-1.0728,-1.0789,-1.0789,-1.0849,-1.1088,-1.1209,-1.1091,-1.1152,-1.1503,-1.3057,-1.4068,-1.5198,-1.6932,-1.7707,-1.8181,-1.8415,-1.8473,-1.8596,-1.9249,-1.9307,-1.9307,-1.9366,-1.9424,-1.9424,-1.9424,-1.9424,-1.9424,-1.9424,-1.9424,-1.9424,-1.9424,-1.9424,-1.9424,-1.9424,-1.9424,-1.9424,-1.9424,-1.9424,-1.9424,-1.9424,-1.9424,-1.9424,-1.9424,-1.9815,-1.9873,-2.0155,-2.0046,-2.0162,-1.9989,-2.0385,-2.101,-2.1124,-2.1345,-2.2021,-2.2248,-2.2191,-2.168,-2.0838,-2.0385,-2.0277,-2.0558,-2.101,-2.05,-1.9655,-1.9873,-2.0436,-1.9424,-1.9424,-1.9424,-1.9424,-1.9424,-1.9424,-1.9424,-1.9424,-1.9424,-1.9424,-1.9424,-1.9424,-1.9424,-1.9424,-1.9424,-1.8006,-1.6042,-1.5569,-1.4212,-1.2255,-1.1837,-1.1837,-1.1837,-1.1837,-1.1837,-1.1837,-1.1837,-1.1837,-1.1837,-1.1837,-1.1837,-1.1772,-1.1647,-1.1647,-1.1776,-1.1526,-1.1466,-1.1526,-1.1466,-1.1345,-1.1345,-1.1345,-1.1345,-1.1345,-1.1156,-1.1091,-1.1091,-1.1091,-1.1091,-1.1091,-1.1216,-1.1345,-1.1405,-1.1526,-1.1583,-1.1647,-1.2234,-1.3126,-1.4436,-1.5558,-1.6803,-1.7877,-1.8719,-1.8952,-1.8952,-1.8952,-1.901,-1.9366,-1.9424,-1.9424,-1.9424,-1.9424,-1.9424,-1.9424,-1.9424,-1.9424,-1.9424,-1.9424,-1.9424,-1.9424,-1.9424,-1.9424,-1.9424,-1.9424,-1.9424,-1.9424,-1.9424,-1.9424,-1.9424,-1.9424,-1.9424,-1.9424,-1.9989,-2.0551,-2.1002,-2.1231,-2.1744,-2.1687,-2.1794,-2.2248,-2.2305,-2.2644,-2.3263,-2.3263,-2.2805,-2.2184,-2.1509,-2.1566,-2.1851,-2.2021,-2.2248,-2.1517,-2.0838,-2.1231,-2.1452,-1.9424,-1.9424,-1.9424,-1.9424,-1.9424,-1.9424,-1.9424,-1.9424,-1.9424,-1.9424,-1.9424,-1.9424,-1.9424,-1.9424,-1.9249,-1.8006,-1.5688,-1.5569,-1.4033,-1.2552,-1.1837,-1.1837,-1.1837,-1.1837,-1.1837,-1.1837,-1.1837,-1.1837,-1.1837,-1.1837,-1.1837,-1.1837,-1.1772,-1.1776,-1.1776,-1.1772,-1.1776,-1.1772,-1.1772,-1.1716,-1.1776,-1.1776,-1.1776,-1.1712,-1.1583,-1.1458,-1.1398,-1.1398,-1.1398,-1.1458,-1.1587,-1.1712,-1.1712,-1.1712,-1.1772,-1.213,-1.3015,-1.4376,-1.5445,-1.6514,-1.8052,-1.8946,-1.9424,-1.9307,-1.9366,-1.9424,-1.9424,-1.9424,-1.9424,-1.9424,-1.9424,-1.9424,-1.9424,-1.9424,-1.9424,-1.9424,-1.9424,-1.9424,-1.9424,-1.9424,-1.9424,-1.9424,-1.9424,-1.9424,-1.9424,-1.9424,-1.9424,-1.9424,-1.954,-1.9707,-1.9989,-2.0155,-2.0945,-2.1566,-2.1851,-2.2353,-2.2869,-2.3263,-2.3376,-2.3432,-2.3488,-2.388,-2.4501,-2.4158,-2.3704,-2.388,-2.3935,-2.3648,-2.3368,-2.3143,-2.2926,-2.258,-2.2305,-2.2531,-2.2021,-1.9424,-1.9424,-1.9424,-1.9424,-1.9424,-1.9424,-1.9424,-1.9424,-1.9424,-1.9424,-1.9424,-1.9424,-1.9424,-1.9366,-1.9068,-1.7883,-1.5634,-1.5569,-1.3913,-1.2492,-1.1837,-1.1837,-1.1837,-1.1837,-1.1837,-1.1837,-1.1837,-1.1837,-1.1837,-1.1837,-1.1837,-1.1837,-1.1837,-1.1837,-1.1837,-1.1837,-1.1837,-1.1837,-1.1837,-1.1837,-1.1837,-1.1837,-1.1837,-1.1837,-1.1772,-1.1772,-1.1772,-1.1712,-1.1712,-1.1712,-1.1772,-1.1837,-1.1837,-1.1837,-1.1837,-1.2487,-1.4033,-1.5273,-1.6101,-1.7109,-1.811,-1.9004,-1.9424,-1.9424,-1.9424,-1.9424,-1.9424,-1.9424,-1.9424,-1.9424,-1.9424,-1.9424,-1.9424,-1.9424,-1.9424,-1.9424,-1.9424,-1.9424,-1.9424,-1.9424,-1.9424,-1.9424,-1.9424,-1.9424,-1.9424,-1.9424,-1.9938,-1.9996,-2.0213,-2.0443,-2.0888,-2.1338,-2.2184,-2.2692,-2.2862,-2.3368,-2.3991,-2.4278,-2.4445,-2.4556,-2.4667,-2.5174,-2.5514,-2.5624,-2.5395,-2.5907,-2.6072,-2.5229,-2.4556,-2.3991,-2.3712,-2.3824,-2.2918,-2.2361,-2.1566,-1.9424,-1.9424,-1.9424,-1.9424,-1.9424,-1.9424,-1.9424,-1.9424,-1.9424,-1.9424,-1.9424,-1.9424,-1.9424,-1.9243,-1.8409,-1.7343,-1.5628,-1.4679,-1.3375,-1.2371,-1.1837,-1.1837,-1.1837,-1.1837,-1.1837,-1.1837,-1.1837,-1.1837,-1.1837,-1.1837,-1.1837,-1.1837,-1.1837,-1.1837,-1.1837,-1.1837,-1.1837,-1.1837,-1.1837,-1.1837,-1.1837,-1.1837,-1.1837,-1.1837,-1.1837,-1.1837,-1.1776,-1.1837,-1.1837,-1.1837,-1.1837,-1.1837,-1.1897,-1.1837,-1.2251,-1.296,-1.4743,-1.5865,-1.6809,-1.7818,-1.8887,-1.9127,-1.9424,-1.9424,-1.9424,-1.9424,-1.9424,-1.9424,-1.9424,-1.9424,-1.9424,-1.9424,-1.9424,-1.9424,-1.9424,-1.9424,-1.9424,-1.9424,-1.9424,-1.9424,-1.9424,-1.9424,-1.9424,-1.9424,-1.9424,-1.9482,-2.0046,-2.0558,-2.0895,-2.1452,-2.2013,-2.2572,-2.3416,-2.3927,-2.4094,-2.4548,-2.5064,-2.5229,-2.5395,-2.5514,-2.5624,-2.5907,-2.6245,-2.6582,-2.6591,-2.6473,-2.63,-2.6136,-2.5734,-2.5229,-2.5348,-2.5743,-2.439,-2.258,-2.1737,-1.9424,-1.9424,-1.9424,-1.9424,-1.9424,-1.9424,-1.9424,-1.9424,-1.9424,-1.9424,-1.9424,-1.9424,-1.9424,-1.9127,-1.8583,-1.7103,-1.5865,-1.4738,-1.332,-1.2371,-1.1837,-1.1837,-1.1837,-1.1837,-1.1837,-1.1837,-1.1837,-1.1837,-1.1837,-1.1837,-1.1837,-1.1837,-1.1837,-1.1837,-1.1837,-1.1837,-1.1837,-1.1837,-1.1837,-1.1837,-1.1837,-1.1837,-1.1837,-1.1837,-1.1837,-1.1837,-1.1837,-1.1837,-1.1837,-1.1837,-1.1837,-1.1837,-1.1957,-1.2255,-1.2844,-1.3909,-1.5208,-1.6568,-1.7519,-1.859,-1.9366,-1.9424,-1.9424,-1.9424,-1.9424,-1.9424,-1.9424,-1.9424,-1.9424,-1.9424,-1.9424,-1.9424,-1.9424,-1.9424,-1.9424,-1.9424,-1.9424,-1.9424,-1.9424,-1.9424,-1.9424,-1.9424,-1.9764,-1.988,-2.0328,-2.0558,-2.1174,-2.1687,-2.2021,-2.2636,-2.3472,-2.4022,-2.4586,-2.4982,-2.5331,-2.5569,-2.5798,-2.5907,-2.6081,-2.6245,-2.6418,-2.6591,-2.6591,-2.6591,-2.6591,-2.6591,-2.6527,-2.6364,-2.6418,-2.6473,-2.6309,-2.5907,-2.5119,-2.3368,-2.2926,-1.9366,-1.9424,-1.9424,-1.9424,-1.9424,-1.9424,-1.9424,-1.9424,-1.9424,-1.9424,-1.9424,-1.9424,-1.9424,-1.9249,-1.8829,-1.7343,-1.5811,-1.5159,-1.3913,-1.2191,-1.1837,-1.1837,-1.1837,-1.1837,-1.1837,-1.1837,-1.1837,-1.1837,-1.1837,-1.1837,-1.1837,-1.1837,-1.1837,-1.1837,-1.1837,-1.1837,-1.1837,-1.1837,-1.1837,-1.1837,-1.1837,-1.1837,-1.1837,-1.1837,-1.1837,-1.1837,-1.1837,-1.1837,-1.1837,-1.1837,-1.2074,-1.213,-1.2195,-1.32,-1.3789,-1.4257,-1.6214,-1.7279,-1.7689,-1.8765,-1.9301,-1.9424,-1.9424,-1.9424,-1.9424,-1.9424,-1.9424,-1.9424,-1.9424,-1.9424,-1.9424,-1.9424,-1.9424,-1.9424,-1.9424,-1.9424,-1.9424,-1.9424,-1.9424,-1.9424,-1.9424,-1.9482,-1.9938,-2.0385,-2.1174,-2.1737,-2.2418,-2.2862,-2.3143,-2.3975,-2.4863,-2.5203,-2.5652,-2.5817,-2.6118,-2.63,-2.6527,-2.6591,-2.6591,-2.6591,-2.6591,-2.6591,-2.6591,-2.6591,-2.6591,-2.6591,-2.6591,-2.6582,-2.6591,-2.6527,-2.5789,-2.5284,-2.4667,-2.439,-2.4047,-1.8648,-1.9366,-1.9424,-1.9424,-1.9424,-1.9424,-1.9424,-1.9424,-1.9424,-1.9424,-1.9424,-1.9424,-1.9424,-1.901,-1.7707,-1.652,-1.5575,-1.3444,-1.2134,-1.1953,-1.1837,-1.1837,-1.1837,-1.1837,-1.1837,-1.1837,-1.1837,-1.1837,-1.1837,-1.1837,-1.1837,-1.1837,-1.1837,-1.1837,-1.1837,-1.1837,-1.1837,-1.1837,-1.1837,-1.1837,-1.1837,-1.1837,-1.1837,-1.1837,-1.1837,-1.1837,-1.1837,-1.1837,-1.1837,-1.2074,-1.2427,-1.296,-1.32,-1.4262,-1.5268,-1.5854,-1.7455,-1.7877,-1.8467,-1.9301,-1.9366,-1.9424,-1.9424,-1.9424,-1.9424,-1.9424,-1.9424,-1.9424,-1.9424,-1.9424,-1.9424,-1.9424,-1.9424,-1.9424,-1.9424,-1.9424,-1.9424,-1.9424,-1.9424,-1.9424,-1.9424,-2.022,-2.078,-2.1851,-2.2692,-2.3255,-2.3927,-2.4197,-2.4531,-2.5423,-2.6373,-2.6436,-2.6663,-2.6663,-2.6781,-2.6845,-2.6745,-2.6691,-2.6636,-2.6591,-2.6591,-2.6591,-2.6591,-2.6591,-2.6591,-2.6591,-2.6591,-2.6591,-2.6591,-2.6354,-2.5907,-2.5734,-2.5624,-2.5569,-2.5404,-1.8227,-1.9366,-1.9424,-1.9424,-1.9424,-1.9424,-1.9424,-1.9424,-1.9424,-1.9424,-1.9424,-1.9424,-1.9424,-1.8771,-1.7349,-1.5865,-1.5451,-1.3559,-1.2018,-1.1957,-1.1837,-1.1837,-1.1837,-1.1837,-1.1837,-1.1837,-1.1837,-1.1837,-1.1837,-1.1837,-1.1837,-1.1837,-1.1837,-1.1837,-1.1837,-1.1837,-1.1837,-1.1837,-1.1837,-1.1837,-1.1837,-1.1837,-1.1837,-1.1837,-1.1837,-1.1837,-1.1837,-1.1897,-1.2014,-1.2548,-1.3195,-1.3963,-1.456,-1.5564,-1.6632,-1.7273,-1.8046,-1.8532,-1.9127,-1.9366,-1.9424,-1.9424,-1.9424,-1.9424,-1.9424,-1.9424,-1.9424,-1.9424,-1.9424,-1.9424,-1.9424,-1.9424,-1.9424,-1.9424,-1.9424,-1.9424,-1.9424,-1.9424,-1.9822,-1.9764,-2.027,-2.101,-2.2021,-2.3255,-2.4437,-2.5,-2.5505,-2.5652,-2.5753,-2.6591,-2.726,-2.7269,-2.7323,-2.7323,-2.7269,-2.7161,-2.7008,-2.6791,-2.6745,-2.6745,-2.6591,-2.6591,-2.6591,-2.6591,-2.6591,-2.6591,-2.6591,-2.6591,-2.6591,-2.6591,-2.6473,-2.6418,-2.6591,-2.6418,-2.6199,-1.8098,-1.9243,-1.9372,-1.9301,-1.9307,-1.9185,-1.9307,-1.9424,-1.9424,-1.9424,-1.9424,-1.9424,-1.9424,-1.9127,-1.7935,-1.6632,-1.5397,-1.4028,-1.2784,-1.2074,-1.1837,-1.1837,-1.1837,-1.1837,-1.1837,-1.1837,-1.1837,-1.1837,-1.1837,-1.1837,-1.1837,-1.1837,-1.1837,-1.1837,-1.1837,-1.1837,-1.1837,-1.1837,-1.1837,-1.1837,-1.1837,-1.1837,-1.1837,-1.1837,-1.1837,-1.1837,-1.1897,-1.2014,-1.2668,-1.3255,-1.3904,-1.4674,-1.5623,-1.6862,-1.7337,-1.787,-1.8823,-1.9185,-1.9366,-1.9424,-1.9424,-1.9424,-1.9424,-1.9424,-1.9424,-1.9424,-1.9424,-1.9424,-1.9424,-1.9424,-1.9424,-1.9424,-1.9424,-1.9424,-1.9424,-1.9424,-1.9417,-1.9707,-2.022,-2.0673,-2.1345,-2.2248,-2.36,-2.4889,-2.5505,-2.5944,-2.6327,-2.66,-2.6754,-2.7133,-2.7638,-2.7638,-2.7701,-2.7862,-2.7755,-2.7485,-2.7269,-2.7053,-2.6999,-2.6999,-2.6791,-2.6691,-2.6791,-2.6791,-2.6636,-2.6591,-2.6591,-2.6591,-2.6591,-2.6591,-2.6591,-2.6591,-2.6591,-2.6591,-2.6473,-1.594,-1.7987,-1.8052,-1.8046,-1.8052,-1.8052,-1.8525,-1.9366,-1.9424,-1.9424,-1.9424,-1.9424,-1.9249,-1.9243,-1.7167,-1.6101,-1.4922,-1.3559,-1.2432,-1.1897,-1.1837,-1.1837,-1.1837,-1.1837,-1.1837,-1.1837,-1.1837,-1.1837,-1.1837,-1.1837,-1.1837,-1.1837,-1.1837,-1.1837,-1.1837,-1.1837,-1.1837,-1.1837,-1.1837,-1.1837,-1.1837,-1.1837,-1.1837,-1.1953,-1.2014,-1.2014,-1.2195,-1.2844,-1.349,-1.3784,-1.5558,-1.6626,-1.6921,-1.811,-1.8887,-1.8887,-1.9249,-1.9424,-1.9424,-1.9424,-1.9424,-1.9424,-1.9424,-1.9424,-1.9424,-1.9424,-1.9424,-1.9424,-1.9424,-1.9424,-1.9424,-1.9424,-1.9424,-1.9424,-1.954,-1.9764,-1.9873,-2.0493,-2.101,-2.1801,-2.2474,-2.3656,-2.5008,-2.5679,-2.6227,-2.6718,-2.7098,-2.7314,-2.753,-2.7799,-2.796,-2.7916,-2.797,-2.8077,-2.7916,-2.7691,-2.753,-2.7368,-2.7314,-2.726,-2.7161,-2.7062,-2.7053,-2.6944,-2.6845,-2.6745,-2.6591,-2.6636,-2.6691,-2.6636,-2.6591,-2.6591,-2.6591,-2.6591,-2.6591,-1.546,-1.7384,-1.7513,-1.7513,-1.7572,-1.8052,-1.8765,-1.9366,-1.9424,-1.9424,-1.9307,-1.8829,-1.8648,-1.8292,-1.6573,-1.5332,-1.4619,-1.3555,-1.2487,-1.1837,-1.1837,-1.1837,-1.1837,-1.1837,-1.1837,-1.1837,-1.1837,-1.1837,-1.1837,-1.1837,-1.1837,-1.1837,-1.1837,-1.1837,-1.1837,-1.1837,-1.1837,-1.1837,-1.1837,-1.1837,-1.1837,-1.1893,-1.2074,-1.2483,-1.2543,-1.2724,-1.3264,-1.4202,-1.4614,-1.5198,-1.7267,-1.7975,-1.8273,-1.9294,-1.9533,-1.9475,-1.9424,-1.9424,-1.9424,-1.9424,-1.9424,-1.9424,-1.9424,-1.9424,-1.9424,-1.9424,-1.9424,-1.9424,-1.9424,-1.9424,-1.9424,-1.9424,-1.9424,-1.9424,-1.9764,-2.0104,-2.0666,-2.1338,-2.2078,-2.2869,-2.3888,-2.5008,-2.5907,-2.6464,-2.6845,-2.6989,-2.726,-2.7584,-2.7799,-2.796,-2.813,-2.813,-2.8184,-2.8237,-2.8067,-2.796,-2.7799,-2.7691,-2.7638,-2.7593,-2.7485,-2.7377,-2.7269,-2.7161,-2.7062,-2.6954,-2.6845,-2.6791,-2.6791,-2.6691,-2.6646,-2.6646,-2.6646,-2.6591,-2.6591,-1.5793,-1.7103,-1.7214,-1.7097,-1.7513,-1.8415,-1.8952,-1.9249,-1.9307,-1.9424,-1.9185,-1.8227,-1.7929,-1.7877,-1.6397,-1.51,-1.4381,-1.343,-1.2487,-1.1837,-1.1837,-1.1837,-1.1837,-1.1837,-1.1837,-1.1837,-1.1837,-1.1837,-1.1837,-1.1837,-1.1837,-1.1837,-1.1837,-1.1953,-1.2251,-1.2251,-1.2487,-1.2904,-1.2728,-1.2608,-1.2251,-1.2191,-1.2548,-1.3665,-1.4023,-1.4262,-1.5213,-1.5919,-1.6444,-1.7378,-1.826,-1.8971,-1.9506,-1.9931,-1.9866,-1.9815,-1.9707,-1.9649,-1.9649,-1.9655,-1.9597,-1.954,-1.9482,-1.9597,-1.9649,-1.9482,-1.9424,-1.9424,-1.9424,-1.9424,-1.9424,-1.9482,-1.9482,-1.988,-2.0385,-2.0895,-2.1566,-2.241,-2.3488,-2.4278,-2.5064,-2.6081,-2.6245,-2.6691,-2.6944,-2.7152,-2.7422,-2.7799,-2.8014,-2.813,-2.8237,-2.8301,-2.8291,-2.8291,-2.8237,-2.813,-2.8121,-2.8014,-2.7916,-2.7862,-2.7755,-2.7647,-2.7485,-2.7377,-2.7323,-2.7206,-2.7098,-2.7053,-2.6954,-2.6791,-2.6691,-2.6646,-2.6646,-2.6646,-2.6591,-1.3159,-1.4609,-1.4609,-1.5149,-1.6048,-1.6343,-1.7109,-1.8052,-1.901,-1.9366,-1.9307,-1.901,-1.8829,-1.835,-1.6338,-1.5095,-1.4738,-1.3375,-1.2251,-1.1897,-1.1837,-1.1837,-1.1837,-1.1837,-1.1837,-1.1837,-1.1837,-1.2074,-1.2251,-1.213,-1.1953,-1.1953,-1.213,-1.2603,-1.3255,-1.3315,-1.367,-1.4262,-1.4326,-1.4028,-1.361,-1.355,-1.3899,-1.4906,-1.5445,-1.5677,-1.6444,-1.7079,-1.756,-1.8267,-1.9267,-1.9859,-2.027,-2.0213,-2.022,-2.0162,-2.0104,-1.9989,-1.9989,-1.9989,-1.9989,-2.0046,-2.0046,-2.0046,-1.9938,-1.9597,-1.9424,-1.9424,-1.9424,-1.9424,-1.9482,-1.954,-1.9764,-2.0385,-2.1174,-2.1851,-2.2531,-2.3712,-2.4889,-2.5569,-2.6364,-2.6582,-2.6691,-2.6845,-2.7053,-2.7314,-2.7638,-2.796,-2.813,-2.8237,-2.8237,-2.8301,-2.8301,-2.8291,-2.8301,-2.8291,-2.8237,-2.8184,-2.813,-2.8077,-2.8023,-2.7916,-2.7755,-2.7701,-2.7584,-2.7476,-2.7422,-2.7314,-2.7215,-2.7008,-2.6899,-2.6845,-2.6745,-2.6691,-2.6636,-1.2705,-1.3706,-1.4321,-1.4619,-1.4857,-1.5337,-1.6042,-1.6809,-1.7994,-1.8525,-1.8415,-1.8058,-1.7994,-1.8058,-1.5924,-1.4976,-1.4679,-1.3375,-1.2487,-1.2014,-1.1953,-1.1837,-1.1837,-1.1953,-1.1837,-1.1893,-1.2659,-1.3075,-1.337,-1.3899,-1.4018,-1.3605,-1.3725,-1.4018,-1.4723,-1.4901,-1.5257,-1.5908,-1.609,-1.5913,-1.5381,-1.5375,-1.5612,-1.6503,-1.7032,-1.7267,-1.8027,-1.8726,-1.9022,-1.9441,-2.0263,-2.0565,-2.068,-2.0558,-2.05,-2.0443,-2.0385,-2.027,-2.0328,-2.0328,-2.0328,-2.0328,-2.0328,-2.022,-2.022,-1.9931,-1.9758,-1.9707,-1.9424,-1.9424,-1.9707,-1.9822,-2.0328,-2.0945,-2.2474,-2.3712,-2.4437,-2.5441,-2.5953,-2.6136,-2.6691,-2.6944,-2.7053,-2.7323,-2.7476,-2.7638,-2.7906,-2.8067,-2.8237,-2.8301,-2.8301,-2.8301,-2.8301,-2.8301,-2.8301,-2.8301,-2.8291,-2.8291,-2.8301,-2.8237,-2.813,-2.813,-2.8023,-2.797,-2.7916,-2.7853,-2.7745,-2.7638,-2.7485,-2.7269,-2.7161,-2.7107,-2.6954,-2.6745,-2.6736,-1.2996,-1.3646,-1.4565,-1.4446,-1.3729,-1.4798,-1.5332,-1.5569,-1.6691,-1.7273,-1.7161,-1.622,-1.6514,-1.6509,-1.5208,-1.456,-1.4143,-1.4143,-1.3315,-1.2724,-1.2311,-1.2668,-1.2668,-1.2307,-1.2543,-1.3075,-1.3834,-1.4782,-1.5553,-1.5784,-1.5779,-1.6074,-1.625,-1.6427,-1.6433,-1.655,-1.6903,-1.7255,-1.7547,-1.7846,-1.756,-1.7267,-1.756,-1.815,-1.8739,-1.9267,-2.0033,-2.0378,-2.0493,-2.0673,-2.091,-2.0974,-2.1031,-2.091,-2.0845,-2.073,-2.0622,-2.0565,-2.0507,-2.0565,-2.0507,-2.045,-2.0392,-2.0392,-2.045,-2.0385,-2.027,-2.004,-1.9764,-1.9815,-2.0097,-2.0493,-2.106,-2.2119,-2.3871,-2.5276,-2.6109,-2.6781,-2.6791,-2.6745,-2.6944,-2.7251,-2.752,-2.7736,-2.7799,-2.796,-2.8077,-2.8184,-2.8301,-2.8301,-2.8301,-2.8301,-2.8301,-2.8301,-2.8301,-2.8301,-2.8301,-2.8301,-2.8301,-2.8301,-2.8291,-2.8237,-2.8184,-2.8237,-2.8184,-2.8077,-2.8014,-2.796,-2.7745,-2.7539,-2.7476,-2.7422,-2.7215,-2.6999,-2.689,-1.1787,-1.2191,-1.2432,-1.2371,-1.2367,-1.355,-1.4083,-1.4262,-1.5386,-1.5924,-1.5838,-1.6037,-1.6756,-1.8823,-1.6343,-1.5494,-1.5911,-1.5467,-1.5203,-1.4862,-1.3734,-1.4028,-1.4187,-1.3682,-1.4187,-1.4811,-1.5429,-1.588,-1.6873,-1.6803,-1.6586,-1.6692,-1.6645,-1.7067,-1.7975,-1.815,-1.85,-1.8906,-1.9254,-1.9557,-1.9428,-1.9196,-1.908,-1.9557,-2.009,-2.0443,-2.0795,-2.073,-2.0852,-2.1031,-2.1153,-2.1211,-2.1146,-2.1146,-2.1081,-2.1024,-2.0917,-2.0917,-2.0917,-2.0917,-2.0859,-2.0917,-2.0917,-2.0917,-2.0974,-2.1139,-2.1017,-2.0831,-2.0723,-2.0888,-2.1167,-2.1502,-2.2119,-2.4014,-2.5808,-2.6373,-2.7043,-2.7215,-2.7215,-2.7225,-2.7269,-2.7638,-2.797,-2.8014,-2.7906,-2.8023,-2.813,-2.8237,-2.8291,-2.8301,-2.8301,-2.8301,-2.8301,-2.8301,-2.8301,-2.8301,-2.8301,-2.8301,-2.8301,-2.8301,-2.8301,-2.8301,-2.8301,-2.8301,-2.8301,-2.8237,-2.8184,-2.8121,-2.8023,-2.7862,-2.7799,-2.7745,-2.7476,-2.7323,-2.7215]},{"header":{"parameterUnit":"m.s-1","parameterCategory":1,"la1":31.0,"la2":29.5877,"lo1":-88.7671,"lo2":-86.6584,"dy":0.0162,"dx":0.0185,"nx":115,"ny":88,"refTime":"2023-09-23T12:00:00:Z","depth":0,"parameterNumber":3,"parameterNumberName":"V-component_of_WINDS"},"data":[0.0,0.0,0.0,0.0,0.0,0.0,0.0,0.0,0.0,0.0,0.0,0.0,0.0,0.0,0.0,0.0,0.0,0.0,0.0,0.0,0.0,0.0,0.0,0.0,0.0,0.0,0.0,0.0,0.0,0.0,0.0,0.0,0.0,0.0,0.0,0.0,0.0,0.0,0.0,0.0,0.0,0.0,0.0,0.0,0.0,0.0,0.0,0.0,0.0,0.0,0.0,0.0,0.0,0.0,0.0,0.0,0.0,0.0,0.0,0.0,0.0,0.0,0.0,0.0,0.0,0.0,0.0,0.0,0.0,0.0,0.0,0.0,0.0,0.0,0.0,0.0,0.0,0.0,0.0,0.0,0.0,0.0,0.0,0.0,0.0,0.0,0.0,0.0,0.0,0.0,0.0,0.0,0.0,0.0,0.0,0.0,0.0,0.0,0.0,0.0,0.0,0.0,0.0,0.0,0.0,0.0,0.0,0.0,0.0,0.0,0.0,0.0,0.0,0.0,0.0,0.0,0.0,0.0,0.0,0.0,0.0,0.0,0.0,0.0,0.0,0.0,0.0,0.0,0.0,0.0,0.0,0.0,0.0,0.0,0.0,0.0,0.0,0.0,0.0,0.0,0.0,0.0,0.0,0.0,0.0,0.0,0.0,0.0,0.0,0.0,0.0,0.0,0.0,0.0,0.0,0.0,0.0,0.0,0.0,0.0,0.0,0.0,0.0,0.0,0.0,0.0,0.0,0.0,0.0,0.0,0.0,0.0,0.0,0.0,0.0,0.0,0.0,0.0,0.0,0.0,0.0,0.0,0.0,0.0,0.0,0.0,0.0,0.0,0.0,0.0,0.0,0.0,0.0,0.0,0.0,0.0,0.0,0.0,0.0,0.0,0.0,0.0,0.0,0.0,0.0,0.0,0.0,0.0,0.0,0.0,0.0,0.0,0.0,0.0,0.0,0.0,0.0,0.0,0.0,0.0,0.0,0.0,0.0,0.0,0.0,0.0,0.0,0.0,0.0,0.0,0.0,0.0,0.0,0.0,0.0,0.0,0.0,0.0,0.0,0.0,0.0,0.0,0.0,0.0,0.0,0.0,0.0,0.0,0.0,0.0,0.0,0.0,0.0,0.0,0.0,0.0,0.0,0.0,0.0,0.0,0.0,0.0,0.0,0.0,0.0,0.0,0.0,0.0,0.0,0.0,0.0,0.0,0.0,0.0,0.0,0.0,0.0,0.0,0.0,0.0,0.0,0.0,0.0,0.0,0.0,0.0,0.0,0.0,0.0,0.0,0.0,0.0,0.0,0.0,0.0,0.0,0.0,0.0,0.0,0.0,0.0,0.0,0.0,0.0,0.0,0.0,0.0,0.0,0.0,0.0,0.0,0.0,0.0,0.0,0.0,0.0,0.0,0.0,0.0,0.0,0.0,0.0,0.0,0.0,0.0,0.0,0.0,0.0,0.0,0.0,0.0,0.0,0.0,0.0,0.0,0.0,0.0,0.0,0.0,0.0,0.0,0.0,0.0,0.0,0.0,0.0,0.0,0.0,0.0,0.0,0.0,0.0,0.0,0.0,0.0,0.0,0.0,0.0,0.0,0.0,0.0,0.0,0.0,0.0,0.0,0.0,0.0,0.0,0.0,0.0,0.0,0.0,0.0,0.0,0.0,0.0,0.0,0.0,0.0,0.0,0.0,0.0,0.0,0.0,0.0,0.0,0.0,0.0,0.0,0.0,0.0,0.0,0.0,0.0,0.0,0.0,0.0,0.0,0.0,0.0,0.0,0.0,0.0,0.0,0.0,0.0,0.0,0.0,0.0,0.0,0.0,0.0,0.0,0.0,0.0,0.0,0.0,0.0,0.0,0.0,0.0,0.0,0.0,0.0,0.0,0.0,0.0,0.0,0.0,0.0,0.0,0.0,0.0,0.0,0.0,0.0,0.0,0.0,0.0,0.0,0.0,0.0,0.0,0.0,0.0,0.0,0.0,0.0,0.0,0.0,0.0,0.0,0.0,0.0,0.0,0.0,0.0,0.0,0.0,0.0,0.0,0.0,0.0,0.0,0.0,0.0,0.0,0.0,0.0,0.0,0.0,0.0,0.0,0.0,0.0,0.0,0.0,0.0,0.0,0.0,0.0,0.0,0.0,0.0,0.0,0.0,0.0,0.0,0.0,0.0,0.0,0.0,0.0,0.0,0.0,0.0,0.0,0.0,0.0,0.0,0.0,0.0,0.0,0.0,0.0,0.0,0.0,0.0,0.0,0.0,0.0,0.0,0.0,0.0,0.0,0.0,0.0,0.0,0.0,0.0,0.0,0.0,0.0,0.0,0.0,0.0,0.0,0.0,0.0,0.0,0.0,0.0,0.0,0.0,0.0,0.0,0.0,0.0,0.0,0.0,0.0,0.0,0.0,0.0,0.0,0.0,0.0,0.0,0.0,0.0,0.0,0.0,0.0,0.0,0.0,0.0,0.0,0.0,0.0,0.0,0.0,0.0,0.0,0.0,0.0,0.0,0.0,0.0,0.0,0.0,0.0,0.0,0.0,0.0,0.0,0.0,0.0,0.0,0.0,0.0,0.0,0.0,0.0,0.0,0.0,0.0,0.0,0.0,0.0,0.0,0.0,0.0,0.0,0.0,0.0,0.0,0.0,0.0,0.0,0.0,0.0,0.0,0.0,0.0,0.0,0.0,0.0,0.0,0.0,0.0,0.0,0.0,0.0,0.0,0.0,0.0,0.0,0.0,0.0,0.0,0.0,0.0,0.0,0.0,0.0,0.0,0.0,0.0,0.0,0.0,0.0,0.0,0.0,0.0,0.0,0.0,0.0,0.0,0.0,0.0,0.0,0.0,0.0,0.0,0.0,0.0,0.0,0.0,0.0,0.0,0.0,0.0,0.0,0.0,0.0,0.0,0.0,0.0,0.0,0.0,0.0,0.0,0.0,0.0,0.0,0.0,0.0,0.0,0.0,0.0,0.0,0.0,0.0,0.0,0.0,0.0,0.0,0.0,0.0,0.0,0.0,0.0,0.0,0.0,0.0,0.0,0.0,0.0,0.0,0.0,0.0,0.0,0.0,0.0,0.0,0.0,0.0,0.0,0.0,0.0,0.0,0.0,0.0,0.0,0.0,0.0,0.0,0.0,0.0,0.0,0.0,0.0,0.0,0.0,0.0,0.0,0.0,0.0,0.0,0.0,0.0,0.0,0.0,0.0,0.0,0.0,0.0,0.0,0.0,0.0,0.0,0.0,0.0,0.0,0.0,0.0,0.0,0.0,0.0,0.0,0.0,0.0,0.0,0.0,0.0,0.0,0.0,0.0,0.0,0.0,0.0,0.0,0.0,0.0,0.0,0.0,0.0,0.0,0.0,0.0,0.0,0.0,0.0,0.0,0.0,0.0,0.0,0.0,0.0,0.0,0.0,0.0,0.0,0.0,0.0,0.0,0.0,0.0,0.0,0.0,0.0,0.0,0.0,0.0,0.0,0.0,0.0,0.0,0.0,0.0,0.0,0.0,0.0,0.0,0.0,0.0,0.0,0.0,0.0,0.0,0.0,0.0,0.0,0.0,0.0,0.0,0.0,0.0,0.0,0.0,0.0,0.0,0.0,0.0,0.0,0.0,0.0,0.0,0.0,0.0,0.0,0.0,0.0,0.0,0.0,0.0,0.0,0.0,0.0,0.0,0.0,0.0,0.0,0.0,0.0,0.0,0.0,0.0,0.0,0.0,0.0,0.0,0.0,0.0,0.0,0.0,0.0,0.0,0.0,0.0,0.0,0.0,0.0,0.0,0.0,0.0,0.0,0.0,0.0,0.0,0.0,0.0,0.0,0.0,0.0,0.0,0.0,0.0,0.0,0.0,0.0,0.0,0.0,0.0,0.0,0.0,0.0,0.0,0.0,0.0,0.0,0.0,0.0,0.0,0.0,0.0,0.0,0.0,0.0,0.0,0.0,0.0,0.0,0.0,0.0,0.0,0.0,0.0,0.0,0.0,0.0,0.0,0.0,0.0,0.0,0.0,0.0,0.0,0.0,0.0,0.0,0.0,0.0,0.0,0.0,0.0,0.0,0.0,0.0,0.0,0.0,0.0,0.0,0.0,0.0,0.0,0.0,0.0,0.0,0.0,0.0,0.0,0.0,0.0,0.0,0.0,0.0,0.0,0.0,0.0,0.0,0.0,0.0,0.0,0.0,0.0,0.0,0.0,0.0,0.0,0.0,0.0,0.0,0.0,0.0,0.0,0.0,0.0,0.0,0.0,0.0,0.0,0.0,0.0,0.0,0.0,1.0015,0.0,0.0,0.0,0.0,0.0,0.0,0.0,0.0,0.0,0.0,0.0,0.0,0.0,0.0,0.0,0.0,0.0,0.0,0.0,0.0,0.0,0.0,0.0,0.0,0.0,0.0,0.0,0.0,0.0,0.0,0.0,0.0,0.0,0.0,0.0,0.0,0.0,0.0,0.0,0.0,0.0,0.0,0.0,0.0,0.0,0.0,0.0,0.0,0.0,0.0,0.0,0.0,0.0,0.0,0.0,0.0,0.0,0.0,0.0,0.0,0.0,0.0,0.0,0.0,0.0,0.0,0.0,0.0,0.0,0.0,0.0,0.0,0.0,0.0,0.0,0.0,0.0,0.0,0.0,0.0,0.0,0.0,0.0,0.0,0.0,0.0,0.0,0.0,0.0,0.0,0.0,0.0,0.0,0.0,0.0,0.0,0.0,0.0,0.0,0.0,0.0,0.0,0.0,0.0,0.0,0.0,0.0,0.0,0.0,0.0,1.0047,1.0049,1.0056,1.0037,1.0056,0.0,0.0,0.0,0.0,0.0,0.0,0.0,0.0,0.0,0.0,0.0,0.0,0.0,0.0,0.0,0.0,0.0,0.0,0.0,0.0,0.0,0.0,0.0,0.0,0.0,0.0,0.0,0.0,0.0,0.0,0.0,0.0,0.0,0.0,0.0,0.0,0.0,0.0,0.0,0.0,0.0,0.0,0.0,0.0,0.0,0.0,0.0,0.0,0.0,0.0,0.0,0.0,0.0,0.0,0.0,0.0,0.0,0.0,0.0,0.0,0.0,0.0,0.0,0.0,0.0,0.0,0.0,0.0,0.0,0.0,0.0,0.0,0.0,0.0,0.0,0.0,0.0,0.0,0.0,0.0,0.0,0.0,0.0,0.0,0.0,0.0,0.0,0.0,0.0,0.0,0.0,0.0,0.0,0.0,0.0,0.0,0.0,0.0,0.0,0.0,0.0,0.0,0.0,0.0,0.0,0.0,0.0,0.0,0.0,0.0,0.0,0.0,1.0364,1.0364,1.0366,0.0,0.0,0.0,0.0,0.0,0.0,0.0,0.0,0.0,0.0,0.0,0.0,0.0,0.0,0.0,0.0,0.0,0.0,0.0,0.0,0.0,0.0,0.0,0.0,0.0,0.0,0.0,0.0,0.0,0.0,0.0,0.0,0.0,0.0,0.0,0.0,0.0,0.0,0.0,0.0,0.0,0.0,0.0,0.0,0.0,0.0,0.0,0.0,0.0,0.0,0.0,0.0,0.0,0.0,0.0,0.0,0.0,0.0,0.0,0.0,0.0,0.0,0.0,0.0,0.0,0.0,0.0,0.0,0.0,0.0,0.0,0.0,0.0,0.0,0.0,0.0,0.0,0.0,0.0,0.0,0.0,0.0,0.0,0.0,0.0,0.0,0.0,0.0,0.0,0.0,0.0,0.0,0.0,0.0,0.0,0.0,0.0,0.0,0.0,0.0,0.0,0.0,0.0,0.0,0.0,0.0,0.0,0.0,0.0,0.0,1.0457,1.1179,1.1195,0.0,1.1158,0.0,0.0,0.0,0.0,0.0,0.0,0.0,0.0,0.0,0.0,0.0,0.0,0.0,0.0,0.0,0.0,0.0,0.0,0.0,0.0,0.0,0.0,0.0,0.0,0.0,0.0,0.0,0.0,0.0,0.0,0.0,0.0,0.0,0.0,0.0,0.0,0.0,0.0,0.0,0.0,0.0,0.0,0.0,0.0,0.0,0.0,0.0,0.0,0.0,0.0,0.0,0.0,0.0,0.0,0.0,0.0,0.0,0.0,0.0,0.0,0.0,0.0,0.0,0.0,0.0,0.0,0.0,0.0,0.0,0.0,0.0,0.0,0.0,0.0,0.0,0.0,0.0,0.0,0.0,0.0,0.0,0.0,0.0,0.0,0.0,0.0,0.0,0.0,0.0,0.0,0.0,0.0,0.0,0.0,0.0,0.0,0.0,0.0,0.0,0.0,0.0,0.0,0.0,0.0,0.0,0.0,0.0,0.0,0.0,0.0,1.1214,1.2052,1.2071,1.1836,0.0,0.0,0.0,0.0,0.0,0.0,0.0,0.0,0.0,0.0,0.0,0.0,0.0,0.0,0.0,0.0,0.0,0.0,0.0,0.0,0.0,0.0,0.0,0.0,0.0,0.0,0.0,0.0,0.0,0.0,0.0,0.0,0.0,0.0,0.0,0.0,0.0,0.0,0.0,0.0,0.0,0.0,0.0,0.0,0.0,0.0,0.0,0.0,0.0,0.0,0.0,0.0,0.0,0.0,0.0,0.0,0.0,0.0,0.0,0.0,0.0,0.0,0.0,0.0,0.0,0.0,0.0,0.0,0.0,0.0,0.0,0.0,0.0,0.0,0.0,0.0,0.0,0.0,0.0,0.0,0.0,0.0,0.0,0.0,0.0,0.0,0.0,0.0,0.0,0.0,0.0,0.0,0.0,0.0,0.0,0.0,0.0,0.0,0.0,0.0,0.0,0.0,0.0,0.0,0.0,0.0,0.0,0.0,0.0,0.0,1.1179,1.1807,1.2838,1.2721,1.2312,1.175,0.0,0.0,0.0,0.0,0.0,0.0,0.0,0.0,0.0,0.0,0.0,0.0,0.0,0.0,0.0,0.0,0.0,0.0,0.0,0.0,0.0,0.0,0.0,0.0,0.0,0.0,0.0,0.0,0.0,0.0,0.0,0.0,0.0,0.0,0.0,0.0,0.0,0.0,0.0,0.0,0.0,0.0,0.0,0.0,0.0,0.0,0.0,0.0,0.0,0.0,0.0,0.0,0.0,0.0,0.0,0.0,0.0,0.0,0.0,0.0,0.0,0.0,0.0,0.0,0.0,0.0,0.0,0.0,0.0,0.0,0.0,0.0,0.0,0.0,0.0,0.0,0.0,0.0,0.0,0.0,0.0,0.0,0.0,0.0,0.0,0.0,0.0,0.0,0.0,0.0,0.0,0.0,0.0,0.0,0.0,0.0,0.0,0.0,0.0,0.0,0.0,0.0,0.0,0.0,0.0,0.0,0.0,0.0,1.0209,1.0949,1.2096,1.3669,1.3007,1.2579,0.0,0.0,0.0,0.0,0.0,0.0,0.0,0.0,0.0,0.0,0.0,0.0,0.0,0.0,0.0,0.0,0.0,0.0,0.0,0.0,0.0,0.0,0.0,0.0,0.0,0.0,0.0,0.0,0.0,0.0,0.0,0.0,0.0,0.0,0.0,0.0,0.0,0.0,0.0,0.0,0.0,0.0,0.0,0.0,0.0,0.0,0.0,0.0,0.0,0.0,0.0,0.0,0.0,0.0,0.0,0.0,0.0,0.0,0.0,0.0,0.0,0.0,0.0,0.0,0.0,0.0,0.0,0.0,0.0,0.0,0.0,0.0,0.0,0.0,0.0,0.0,0.0,0.0,0.0,0.0,0.0,0.0,0.0,0.0,0.0,0.0,0.0,0.0,0.0,0.0,0.0,0.0,0.0,0.0,0.0,0.0,0.0,0.0,0.0,0.0,0.0,0.0,0.0,0.0,0.0,0.0,0.0,0.0,0.0,1.1692,1.301,1.3758,1.38,1.3551,1.2916,0.0,0.0,0.0,0.0,0.0,0.0,0.0,0.0,0.0,0.0,0.0,0.0,0.0,0.0,0.0,0.0,0.0,0.0,0.0,0.0,0.0,0.0,0.0,0.0,0.0,0.0,0.0,0.0,0.0,0.0,0.0,0.0,0.0,0.0,0.0,0.0,0.0,0.0,0.0,0.0,0.0,0.0,0.0,0.0,0.0,0.0,0.0,0.0,0.0,0.0,0.0,0.0,0.0,0.0,0.0,0.0,0.0,0.0,0.0,0.0,0.0,0.0,0.0,0.0,0.0,0.0,0.0,0.0,0.0,0.0,0.0,0.0,0.0,0.0,0.0,0.0,0.0,0.0,0.0,0.0,0.0,0.0,0.0,0.0,0.0,0.0,0.0,0.0,0.0,0.0,0.0,0.0,0.0,0.0,0.0,0.0,0.0,0.0,0.0,0.0,0.0,0.0,0.0,0.0,0.0,0.0,0.0,0.0,0.0,1.2565,0.0,1.4523,1.4217,1.3746,1.2944,0.0,0.0,0.0,0.0,0.0,0.0,0.0,0.0,0.0,0.0,0.0,0.0,0.0,0.0,0.0,0.0,0.0,0.0,0.0,0.0,0.0,0.0,0.0,0.0,0.0,0.0,0.0,0.0,0.0,0.0,0.0,0.0,0.0,0.0,0.0,0.0,0.0,0.0,0.0,0.0,0.0,0.0,0.0,0.0,0.0,0.0,0.0,0.0,0.0,0.0,0.0,0.0,0.0,0.0,0.0,0.0,0.0,0.0,0.0,0.0,0.0,0.0,0.0,0.0,0.0,0.0,0.0,0.0,0.0,0.0,0.0,0.0,0.0,0.0,0.0,0.0,0.0,0.0,0.0,0.0,0.0,0.0,0.0,0.0,0.0,0.0,0.0,0.0,0.0,0.0,0.0,0.0,0.0,0.0,0.0,0.0,0.0,0.0,0.0,0.0,0.0,0.0,0.0,0.0,0.0,0.0,0.0,0.0,1.0956,1.2587,1.351,1.4389,1.5039,1.3538,1.2626,0.0,0.0,0.0,0.0,0.0,0.0,0.0,0.0,0.0,0.0,0.0,0.0,0.0,0.0,0.0,0.0,0.0,0.0,0.0,0.0,0.0,0.0,0.0,0.0,0.0,0.0,0.0,0.0,0.0,0.0,0.0,0.0,0.0,0.0,0.0,0.0,0.0,0.0,0.0,0.0,0.0,0.0,0.0,0.0,0.0,0.0,0.0,0.0,0.0,0.0,0.0,0.0,0.0,0.0,0.0,0.0,0.0,0.0,0.0,0.0,0.0,0.0,0.0,0.0,0.0,0.0,0.0,0.0,0.0,0.0,0.0,0.0,0.0,0.0,0.0,0.0,0.0,0.0,0.0,0.0,0.0,0.0,0.0,0.0,0.0,0.0,0.0,0.0,0.0,0.0,0.0,0.0,0.0,0.0,0.0,0.0,0.0,0.0,0.0,0.0,0.0,0.0,0.0,0.0,0.0,0.0,0.0,0.0,0.0,1.4328,1.5711,1.6273,1.5958,1.4383,1.2936,0.0,0.0,0.0,0.0,0.0,0.0,0.0,0.0,0.0,0.0,0.0,0.0,0.0,0.0,0.0,0.0,0.0,0.0,0.0,0.0,0.0,0.0,0.0,0.0,0.0,0.0,0.0,0.0,0.0,0.0,0.0,0.0,0.0,0.0,0.0,0.0,0.0,0.0,0.0,0.0,0.0,0.0,0.0,0.0,0.0,0.0,0.0,0.0,0.0,0.0,0.0,0.0,0.0,0.0,0.0,0.0,0.0,0.0,0.0,0.0,0.0,0.0,0.0,0.0,0.0,0.0,0.0,0.0,0.0,0.0,0.0,0.0,0.0,0.0,0.0,0.0,0.0,0.0,0.0,0.0,0.0,0.0,0.0,0.0,0.0,0.0,0.0,0.0,0.0,0.0,0.0,0.0,0.0,0.0,0.0,0.0,0.0,0.0,0.0,0.0,0.0,0.0,0.0,0.0,0.0,0.0,0.0,0.0,0.0,1.8378,1.941,1.971,1.9216,1.7286,1.5152,1.2918,0.0,0.0,0.0,0.0,0.0,0.0,0.0,0.0,0.0,0.0,0.0,0.0,0.0,0.0,0.0,0.0,0.0,0.0,0.0,0.0,0.0,0.0,0.0,0.0,0.0,0.0,0.0,0.0,0.0,0.0,0.0,0.0,0.0,0.0,0.0,0.0,0.0,0.0,0.0,0.0,0.0,0.0,0.0,0.0,0.0,0.0,0.0,0.0,0.0,0.0,0.0,0.0,0.0,0.0,0.0,0.0,0.0,0.0,0.0,0.0,0.0,0.0,0.0,0.0,0.0,0.0,0.0,0.0,0.0,0.0,0.0,0.0,0.0,0.0,0.0,0.0,0.0,0.0,0.0,0.0,0.0,0.0,0.0,0.0,0.0,0.0,0.0,0.0,0.0,0.0,0.0,0.0,0.0,0.0,0.0,0.0,0.0,0.0,0.0,0.0,0.0,0.0,0.0,0.0,0.0,0.0,0.0,0.0,2.4123,2.4467,2.4522,2.4219,2.167,1.8782,0.0,0.0,0.0,0.0,0.0,0.0,0.0,0.0,0.0,0.0,0.0,0.0,0.0,0.0,0.0,0.0,0.0,0.0,0.0,0.0,0.0,0.0,0.0,0.0,0.0,0.0,0.0,0.0,0.0,0.0,0.0,0.0,0.0,0.0,0.0,0.0,0.0,0.0,0.0,0.0,0.0,0.0,0.0,0.0,0.0,0.0,0.0,0.0,0.0,0.0,0.0,0.0,0.0,0.0,0.0,0.0,0.0,0.0,0.0,0.0,0.0,0.0,0.0,0.0,0.0,0.0,0.0,0.0,0.0,0.0,0.0,0.0,0.0,0.0,0.0,0.0,0.0,0.0,0.0,0.0,0.0,0.0,0.0,0.0,0.0,0.0,0.0,0.0,0.0,0.0,0.0,0.0,0.0,0.0,0.0,0.0,0.0,0.0,0.0,0.0,0.0,0.0,0.0,0.0,0.0,0.0,0.0,0.0,0.0,2.7498,3.1267,3.1721,2.8606,2.4333,2.0779,0.0,0.0,0.0,0.0,0.0,0.0,0.0,0.0,0.0,0.0,0.0,0.0,0.0,0.0,0.0,0.0,0.0,0.0,0.0,0.0,0.0,0.0,0.0,0.0,0.0,0.0,0.0,0.0,0.0,0.0,0.0,0.0,0.0,0.0,0.0,0.0,0.0,0.0,0.0,0.0,0.0,0.0,0.0,0.0,0.0,0.0,0.0,0.0,0.0,0.0,0.0,0.0,0.0,0.0,0.0,0.0,0.0,0.0,0.0,0.0,0.0,0.0,0.0,0.0,0.0,0.0,0.0,0.0,0.0,0.0,0.0,0.0,0.0,0.0,0.0,0.0,0.0,0.0,0.0,0.0,0.0,0.0,0.0,0.0,0.0,0.0,0.0,0.0,0.0,0.0,0.0,0.0,0.0,0.0,0.0,0.0,0.0,0.0,0.0,0.0,0.0,0.0,0.0,0.0,0.0,0.0,0.0,0.0,2.5646,3.0018,3.5337,3.6935,3.4546,2.8931,2.4212,0.0,0.0,0.0,0.0,0.0,0.0,0.0,0.0,0.0,0.0,0.0,0.0,0.0,0.0,0.0,0.0,0.0,0.0,0.0,0.0,0.0,0.0,0.0,0.0,0.0,0.0,0.0,0.0,0.0,0.0,0.0,0.0,0.0,0.0,0.0,0.0,0.0,0.0,0.0,0.0,0.0,0.0,0.0,0.0,0.0,0.0,0.0,0.0,0.0,0.0,0.0,0.0,0.0,0.0,0.0,0.0,0.0,0.0,0.0,0.0,0.0,0.0,0.0,0.0,0.0,0.0,0.0,0.0,0.0,0.0,0.0,0.0,0.0,0.0,0.0,0.0,0.0,0.0,0.0,0.0,0.0,0.0,0.0,0.0,0.0,0.0,0.0,0.0,0.0,0.0,0.0,0.0,0.0,0.0,0.0,0.0,0.0,0.0,0.0,0.0,0.0,0.0,0.0,0.0,0.0,0.0,0.0,0.0,2.8361,3.2081,3.7589,4.0496,4.0375,3.4067,2.8251,0.0,0.0,0.0,0.0,0.0,0.0,0.0,0.0,0.0,0.0,0.0,0.0,0.0,0.0,0.0,0.0,0.0,0.0,0.0,0.0,0.0,0.0,0.0,0.0,0.0,0.0,0.0,0.0,0.0,0.0,0.0,0.0,0.0,0.0,0.0,0.0,0.0,0.0,0.0,0.0,0.0,0.0,0.0,0.0,0.0,0.0,0.0,0.0,0.0,0.0,0.0,0.0,0.0,0.0,0.0,0.0,0.0,0.0,0.0,0.0,0.0,0.0,0.0,0.0,0.0,0.0,0.0,0.0,0.0,0.0,0.0,0.0,0.0,0.0,0.0,0.0,0.0,0.0,0.0,0.0,0.0,0.0,0.0,0.0,0.0,0.0,0.0,0.0,0.0,0.0,0.0,0.0,0.0,0.0,0.0,0.0,0.0,0.0,0.0,0.0,0.0,0.0,0.0,0.0,0.0,0.0,0.0,0.0,2.9908,3.4677,3.9215,4.157,4.1562,3.5596,3.026,0.0,0.0,0.0,0.0,0.0,0.0,0.0,0.0,0.0,0.0,0.0,0.0,0.0,0.0,0.0,0.0,0.0,0.0,0.0,0.0,0.0,0.0,0.0,0.0,0.0,0.0,0.0,0.0,0.0,0.0,0.0,0.0,0.0,0.0,0.0,0.0,0.0,0.0,0.0,0.0,0.0,0.0,0.0,0.0,0.0,0.0,0.0,0.0,1.7021,0.0,0.0,0.0,0.0,0.0,0.0,0.0,0.0,0.0,0.0,0.0,0.0,0.0,0.0,0.0,0.0,0.0,0.0,0.0,0.0,0.0,0.0,0.0,0.0,0.0,0.0,0.0,0.0,0.0,0.0,0.0,0.0,0.0,0.0,0.0,0.0,0.0,0.0,0.0,0.0,0.0,0.0,0.0,0.0,0.0,0.0,0.0,0.0,0.0,0.0,0.0,0.0,0.0,0.0,0.0,0.0,0.0,0.0,0.0,3.225,3.7356,4.0758,4.2534,4.2408,3.8646,3.3992,0.0,0.0,0.0,0.0,0.0,0.0,0.0,0.0,0.0,0.0,0.0,0.0,0.0,0.0,0.0,0.0,0.0,0.0,0.0,0.0,0.0,0.0,0.0,0.0,0.0,0.0,0.0,0.0,0.0,0.0,0.0,0.0,0.0,0.0,0.0,0.0,0.0,0.0,0.0,0.0,0.0,0.0,0.0,0.0,0.0,0.0,0.0,0.0,0.0,0.0,0.0,0.0,0.0,0.0,0.0,0.0,0.0,0.0,0.0,0.0,0.0,0.0,0.0,0.0,0.0,0.0,0.0,0.0,0.0,0.0,0.0,0.0,0.0,0.0,0.0,0.0,0.0,0.0,0.0,0.0,0.0,0.0,0.0,0.0,0.0,0.0,0.0,0.0,0.0,0.0,0.0,0.0,0.0,0.0,0.0,0.0,0.0,0.0,0.0,0.0,0.0,0.0,0.0,0.0,0.0,0.0,0.0,2.918,3.4681,4.0004,4.2305,4.346,4.3484,4.1838,3.7716,3.0969,0.0,0.0,0.0,0.0,0.0,0.0,0.0,0.0,0.0,0.0,0.0,0.0,0.0,0.0,0.0,0.0,0.0,0.0,0.0,0.0,0.0,0.0,0.0,0.0,0.0,0.0,0.0,0.0,0.0,0.0,0.0,0.0,0.0,0.0,0.0,0.0,0.0,0.0,1.3857,1.5982,0.0,0.0,0.0,0.0,0.0,0.0,0.0,0.0,2.1413,0.0,0.0,0.0,0.0,0.0,0.0,0.0,0.0,0.0,0.0,0.0,0.0,0.0,0.0,0.0,0.0,0.0,0.0,0.0,0.0,0.0,0.0,0.0,0.0,0.0,0.0,0.0,0.0,0.0,0.0,0.0,0.0,0.0,0.0,0.0,0.0,0.0,0.0,0.0,0.0,0.0,0.0,0.0,0.0,0.0,0.0,0.0,0.0,0.0,0.0,0.0,0.0,0.0,0.0,0.0,0.0,2.7162,3.1026,3.6177,4.2665,4.3951,4.4547,4.4505,4.2869,3.8753,3.2027,0.0,0.0,0.0,0.0,0.0,0.0,0.0,0.0,0.0,0.0,0.0,0.0,0.0,0.0,0.0,0.0,0.0,0.0,0.0,0.0,0.0,0.0,0.0,0.0,0.0,0.0,0.0,0.0,0.0,0.0,0.0,0.0,0.0,0.0,0.0,0.0,0.0,0.0,0.0,2.0064,2.0567,0.0,0.0,0.0,0.0,0.0,0.0,0.0,0.0,2.5039,0.0,0.0,0.0,0.0,0.0,0.0,0.0,0.0,0.0,0.0,0.0,0.0,0.0,0.0,0.0,0.0,0.0,0.0,0.0,0.0,0.0,0.0,0.0,0.0,0.0,0.0,0.0,0.0,0.0,0.0,0.0,0.0,0.0,0.0,0.0,0.0,0.0,0.0,0.0,0.0,0.0,0.0,0.0,0.0,0.0,0.0,0.0,0.0,0.0,0.0,0.0,0.0,0.0,0.0,0.0,2.8706,3.4315,3.9655,4.4598,4.52,4.5414,4.5375,4.2894,3.8538,0.0,0.0,0.0,0.0,0.0,0.0,0.0,0.0,0.0,0.0,0.0,0.0,0.0,0.0,0.0,0.0,0.0,0.0,0.0,0.0,0.0,0.0,0.0,0.0,0.0,0.0,0.0,0.0,0.0,0.0,0.0,0.0,0.0,0.0,0.0,0.0,0.0,0.0,0.0,0.0,2.4201,2.5621,2.8691,0.0,0.0,0.0,0.0,0.0,0.0,2.8963,2.7551,0.0,0.0,0.0,0.0,0.0,0.0,0.0,0.0,0.0,0.0,0.0,0.0,0.0,0.0,0.0,0.0,0.0,0.0,0.0,0.0,0.0,0.0,0.0,0.0,0.0,0.0,0.0,0.0,0.0,0.0,0.0,0.0,0.0,0.0,0.0,0.0,0.0,0.0,0.0,0.0,0.0,0.0,0.0,0.0,0.0,0.0,0.0,0.0,0.0,0.0,0.0,0.0,0.0,0.0,0.0,2.9961,3.7169,4.2549,4.5816,4.5997,4.5982,4.5924,4.2189,3.7411,0.0,0.0,0.0,0.0,0.0,0.0,0.0,0.0,0.0,0.0,0.0,0.0,0.0,0.0,0.0,0.0,0.0,0.0,0.0,0.0,0.0,0.0,0.0,0.0,0.0,0.0,0.0,0.0,0.0,0.0,0.0,0.0,0.0,0.0,0.0,0.0,0.0,0.0,0.0,0.0,0.0,2.9782,3.4039,3.0843,0.0,0.0,0.0,0.0,3.1437,3.1604,0.0,0.0,0.0,0.0,0.0,0.0,0.0,0.0,0.0,0.0,0.0,0.0,0.0,0.0,0.0,0.0,0.0,0.0,0.0,0.0,0.0,0.0,0.0,0.0,0.0,0.0,0.0,0.0,0.0,0.0,0.0,0.0,0.0,0.0,0.0,0.0,0.0,0.0,0.0,0.0,0.0,0.0,0.0,0.0,0.0,0.0,0.0,0.0,0.0,0.0,0.0,0.0,0.0,0.0,0.0,0.0,3.158,3.772,4.2562,4.5789,4.5986,4.5982,4.5905,4.0499,3.508,0.0,0.0,0.0,0.0,0.0,0.0,0.0,0.0,0.0,0.0,0.0,0.0,0.0,0.0,0.0,0.0,0.0,0.0,0.0,0.0,0.0,0.0,0.0,0.0,0.0,0.0,0.0,0.0,0.0,0.0,0.0,0.0,0.0,0.0,0.0,0.0,0.0,0.0,0.0,0.0,0.0,2.9824,3.4115,3.2888,3.0921,0.0,0.0,3.4937,3.5268,3.7149,0.0,0.0,0.0,0.0,0.0,0.0,0.0,0.0,0.0,0.0,0.0,0.0,0.0,0.0,0.0,0.0,0.0,0.0,0.0,0.0,0.0,0.0,0.0,0.0,0.0,0.0,0.0,0.0,0.0,0.0,0.0,0.0,0.0,0.0,0.0,0.0,0.0,0.0,0.0,0.0,0.0,0.0,0.0,0.0,0.0,0.0,0.0,0.0,0.0,0.0,0.0,0.0,0.0,0.0,0.0,2.7884,3.2014,3.9717,4.4455,4.5871,4.5941,4.5947,4.5908,4.0155,3.4861,0.0,0.0,0.0,0.0,0.0,0.0,0.0,0.0,0.0,0.0,0.0,0.0,0.0,0.0,0.0,0.0,0.0,0.0,0.0,0.0,0.0,0.0,0.0,0.0,0.0,0.0,0.0,0.0,0.0,0.0,0.0,0.0,0.0,0.0,0.0,0.0,0.0,0.0,0.0,0.0,0.0,0.0,3.5602,3.5906,0.0,0.0,0.0,3.7019,3.6057,0.0,0.0,0.0,0.0,0.0,0.0,0.0,0.0,0.0,0.0,0.0,0.0,0.0,0.0,0.0,0.0,0.0,0.0,0.0,0.0,0.0,0.0,0.0,0.0,0.0,0.0,0.0,0.0,0.0,0.0,0.0,0.0,0.0,0.0,0.0,0.0,0.0,0.0,0.0,0.0,0.0,0.0,0.0,0.0,0.0,0.0,0.0,0.0,0.0,0.0,0.0,0.0,0.0,0.0,0.0,0.0,0.0,3.2283,4.1241,4.5899,4.5899,4.5905,4.5892,4.5795,4.0726,0.0,0.0,0.0,0.0,0.0,0.0,0.0,0.0,0.0,0.0,0.0,0.0,0.0,0.0,0.0,0.0,0.0,0.0,0.0,0.0,0.0,0.0,0.0,0.0,0.0,0.0,0.0,1.4028,0.0,0.0,0.0,0.0,0.0,0.0,0.0,0.0,0.0,0.0,0.0,0.0,0.0,0.0,3.3347,3.6758,3.8339,3.9238,0.0,0.0,3.8785,3.7704,4.0264,3.9989,0.0,0.0,0.0,0.0,0.0,0.0,0.0,0.0,0.0,0.0,0.0,0.0,0.0,0.0,0.0,0.0,0.0,0.0,0.0,0.0,0.0,0.0,0.0,0.0,0.0,0.0,0.0,0.0,0.0,0.0,0.0,0.0,0.0,0.0,0.0,0.0,0.0,0.0,0.0,0.0,0.0,0.0,0.0,0.0,0.0,0.0,0.0,0.0,0.0,0.0,0.0,0.0,0.0,0.0,0.0,3.3176,4.1517,4.59,4.5906,4.5893,4.5892,4.5853,4.2435,3.7414,0.0,0.0,0.0,0.0,0.0,0.0,0.0,0.0,0.0,0.0,0.0,0.0,0.0,0.0,0.0,0.0,0.0,0.0,0.0,0.0,0.0,0.0,0.0,0.0,0.0,0.0,0.0,0.0,0.0,0.0,0.0,0.0,0.0,0.0,0.0,0.0,0.0,0.0,0.0,0.0,0.0,3.3352,3.6804,3.938,4.1214,0.0,0.0,4.1156,4.1837,4.4165,4.3349,3.5666,0.0,0.0,0.0,0.0,0.0,0.0,0.0,0.0,0.0,0.0,0.0,0.0,0.0,0.0,0.0,0.0,0.0,0.0,0.0,0.0,0.0,0.0,0.0,0.0,0.0,0.0,0.0,0.0,0.0,0.0,0.0,0.0,0.0,0.0,0.0,0.0,0.0,0.0,0.0,0.0,0.0,0.0,0.0,0.0,0.0,0.0,0.0,0.0,0.0,0.0,0.0,0.0,0.0,2.9678,3.3136,4.1506,4.5847,4.5847,4.5841,4.5848,4.5848,4.3085,3.8869,0.0,0.0,0.0,0.0,0.0,0.0,0.0,0.0,0.0,0.0,0.0,0.0,0.0,0.0,0.0,0.0,0.0,0.0,0.0,0.0,0.0,0.0,0.0,0.0,0.0,0.0,0.0,0.0,2.8333,2.8625,2.5265,0.0,0.0,0.0,0.0,0.0,0.0,0.0,0.0,0.0,0.0,3.5143,3.9086,4.1391,0.0,0.0,4.2916,4.2445,4.1719,4.289,4.1815,3.5674,3.1827,0.0,0.0,0.0,0.0,0.0,0.0,0.0,0.0,0.0,0.0,0.0,0.0,0.0,0.0,0.0,0.0,0.0,0.0,0.0,0.0,0.0,0.0,0.0,0.0,0.0,0.0,0.0,0.0,0.0,0.0,0.0,0.0,0.0,0.0,0.0,0.0,0.0,0.0,0.0,0.0,0.0,0.0,0.0,0.0,0.0,0.0,0.0,0.0,0.0,0.0,0.0,0.0,2.9809,3.3474,4.1622,4.5807,4.5807,4.5807,4.5807,4.5768,4.4098,4.0918,0.0,0.0,0.0,0.0,0.0,0.0,0.0,0.0,0.0,0.0,0.0,0.0,0.0,0.0,0.0,0.0,0.0,0.0,0.0,0.0,0.0,0.0,0.0,0.0,0.0,0.0,0.0,0.0,3.0699,2.9721,2.4233,0.0,0.0,0.0,0.0,0.0,0.0,0.0,0.0,0.0,0.0,3.7337,4.0323,4.22,4.3216,4.2962,4.2708,4.2141,4.0928,4.1258,4.024,3.6154,0.0,0.0,0.0,0.0,0.0,0.0,0.0,0.0,0.0,0.0,0.0,0.0,0.0,0.0,0.0,0.0,0.0,0.0,0.0,0.0,0.0,0.0,0.0,0.0,0.0,0.0,0.0,0.0,0.0,0.0,1.1412,0.0,0.0,0.0,0.0,0.0,0.0,0.0,0.0,0.0,0.0,0.0,0.0,0.0,0.0,0.0,0.0,0.0,0.0,0.0,0.0,0.0,0.0,3.0099,3.4394,4.1919,4.5807,4.5807,4.5807,4.5807,4.5807,4.5749,4.3705,3.9422,0.0,0.0,0.0,0.0,0.0,0.0,0.0,0.0,0.0,0.0,0.0,0.0,0.0,0.0,0.0,0.0,0.0,0.0,0.0,0.0,0.0,0.0,0.0,0.0,0.0,0.0,2.4685,2.6869,2.6691,0.0,0.0,0.0,0.0,0.0,0.0,0.0,0.0,0.0,0.0,3.5973,3.978,3.9936,4.1361,4.2122,4.138,4.054,3.9992,3.9953,3.9934,3.9349,0.0,0.0,0.0,0.0,0.0,0.0,0.0,0.0,0.0,0.0,0.0,0.0,0.0,0.0,0.0,0.0,0.0,0.0,0.0,0.0,0.0,0.0,0.0,0.0,0.0,0.0,0.0,1.8609,1.8686,0.0,0.0,0.0,0.0,0.0,0.0,0.0,0.0,0.0,0.0,0.0,2.9493,2.9512,0.0,0.0,0.0,0.0,0.0,0.0,0.0,0.0,0.0,0.0,0.0,0.0,3.068,3.4549,4.1919,4.5807,4.5807,4.5807,4.5807,4.5807,4.5807,4.3834,3.9603,0.0,0.0,0.0,0.0,0.0,0.0,0.0,0.0,0.0,0.0,0.0,0.0,0.0,0.0,0.0,0.0,0.0,0.0,0.0,0.0,0.0,0.0,0.0,0.0,0.0,2.6054,0.0,0.0,0.0,0.0,0.0,0.0,0.0,0.0,0.0,0.0,0.0,3.1229,3.4706,3.6911,3.8783,4.0464,4.066,4.1169,0.0,0.0,0.0,0.0,0.0,0.0,0.0,0.0,0.0,0.0,0.0,0.0,0.0,0.0,2.9251,2.6269,2.617,2.6579,2.6578,0.0,0.0,0.0,0.0,0.0,0.0,0.0,0.0,0.0,0.0,0.0,0.0,0.0,0.0,2.3715,0.0,2.2568,0.0,0.0,0.0,0.0,0.0,0.0,0.0,0.0,3.1808,3.4159,3.5318,3.5337,3.4855,0.0,3.326,2.9692,0.0,0.0,0.0,0.0,0.0,0.0,0.0,0.0,3.1536,3.5403,4.2512,4.6252,4.6252,4.6535,4.6709,4.6709,4.6689,4.542,4.2673,3.9017,3.4974,0.0,0.0,0.0,0.0,0.0,0.0,0.0,0.0,0.0,0.0,0.0,0.0,0.0,0.0,0.0,0.0,0.0,0.0,0.0,0.0,0.0,0.0,0.0,2.8209,0.0,0.0,0.0,0.0,0.0,0.0,0.0,0.0,0.0,3.1082,3.3096,3.5245,3.7765,3.916,3.9997,4.0166,0.0,0.0,0.0,0.0,0.0,0.0,0.0,3.7304,3.7322,3.7822,3.8647,3.9978,3.9678,3.9525,4.0396,0.0,0.0,3.3189,3.2659,3.2956,3.2666,3.2841,3.3056,3.3056,3.3308,3.3659,0.0,0.0,0.0,0.0,0.0,0.0,0.0,0.0,2.8651,2.8624,0.0,2.8537,0.0,0.0,0.0,0.0,0.0,2.9674,0.0,0.0,4.081,4.3106,4.0923,4.081,4.0415,3.9446,3.7522,3.597,3.4641,3.0968,0.0,0.0,0.0,0.0,0.0,0.0,3.2775,3.7166,4.3708,4.712,4.7146,4.7939,4.8365,4.8372,4.8372,4.8333,4.8198,4.433,4.1351,3.9539,3.1729,0.0,0.0,0.0,0.0,0.0,0.0,0.0,0.0,0.0,0.0,0.0,0.0,0.0,0.0,0.0,0.0,0.0,0.0,0.0,0.0,2.8164,0.0,0.0,0.0,0.0,0.0,0.0,0.0,0.0,0.0,0.0,3.539,3.7286,3.8731,3.9513,0.0,0.0,0.0,0.0,4.1938,3.8176,3.812,3.8349,3.7664,3.8775,4.0322,4.1987,0.0,0.0,4.5946,4.4768,4.4001,4.4846,4.5546,4.4303,3.8618,3.7676,3.7355,3.6547,3.7137,3.7478,3.7556,3.8406,3.8864,3.2622,0.0,0.0,0.0,0.0,3.0119,3.2209,3.445,3.532,3.5567,3.5293,3.4251,0.0,0.0,0.0,0.0,0.0,0.0,3.481,3.7859,4.0597,4.2331,4.3306,4.3292,4.3128,4.2871,4.2297,4.1841,4.1485,4.0356,3.5625,2.7611,0.0,0.0,0.0,0.0,3.6826,4.0949,4.5294,4.7597,4.7745,4.7976,4.8219,4.8392,4.8411,4.8411,4.8392,4.7212,4.522,4.2318,3.8752,0.0,0.0,0.0,0.0,0.0,0.0,0.0,0.0,0.0,0.0,0.0,0.0,0.0,0.0,0.0,0.0,0.0,0.0,0.0,3.0281,3.2511,3.1892,0.0,0.0,0.0,0.0,0.0,0.0,0.0,0.0,0.0,3.7975,3.8775,3.9544,0.0,0.0,3.9903,3.9286,4.0049,4.1077,4.23,4.1126,0.0,0.0,4.1872,4.1785,4.2903,4.5495,4.7719,4.8572,4.8735,4.887,4.9102,4.9348,4.8631,4.641,4.5497,4.5005,4.4517,4.4826,4.5297,4.532,4.5531,4.5589,3.8439,3.5525,3.4041,3.3604,3.402,3.5409,3.7156,3.907,3.9921,3.9933,3.9344,3.9258,3.7382,3.4148,3.2816,0.0,0.0,0.0,3.8346,4.1736,4.2121,4.3031,4.4336,4.4374,4.4306,4.4226,4.4855,4.5011,4.4695,4.4636,4.168,3.5912,0.0,0.0,3.3895,3.7041,4.0189,4.3348,4.6743,4.8548,4.8666,4.8975,4.9228,4.939,4.9397,4.9397,4.9397,4.9397,4.8295,4.5935,4.3582,3.9487,0.0,0.0,0.0,0.0,0.0,0.0,0.0,0.0,0.0,0.0,0.0,1.9489,1.8942,0.0,0.0,0.0,2.8785,3.4844,3.5911,3.588,0.0,0.0,0.0,0.0,0.0,0.0,0.0,3.0673,3.6021,3.9772,3.967,4.0738,4.1817,4.2625,4.2131,4.1525,4.1022,0.0,4.335,4.4414,4.3517,4.3273,4.482,4.4788,4.4963,4.6138,4.7995,4.9509,5.0089,5.0573,5.0858,5.0877,5.0885,5.0689,4.9989,4.9686,4.9227,4.8454,4.84,4.8524,4.8505,4.8524,4.8505,4.2266,4.2671,3.9127,3.8052,3.8746,3.9545,4.0686,4.2044,4.2777,4.2263,4.1089,4.3305,4.1795,3.7558,3.6873,0.0,4.0253,4.1006,4.2617,4.5003,4.4757,4.4638,4.4551,4.4556,4.4425,4.4259,4.5754,4.6114,4.5422,4.5286,4.5119,4.4851,4.2009,3.9798,3.8542,4.0915,4.3127,4.4986,4.8118,4.9745,4.978,5.0523,5.0898,5.0898,5.0898,5.0898,5.0898,5.0898,5.055,4.9745,4.6806,4.3885,4.1035,0.0,0.0,0.0,0.0,0.0,0.0,0.0,0.0,0.0,0.0,0.0,0.0,0.0,0.0,0.0,3.2825,0.0,4.1866,3.8698,0.0,0.0,0.0,3.3495,3.5751,3.6957,3.7228,3.6311,0.0,0.0,4.1397,4.3327,4.5057,4.5968,4.6574,4.6078,4.3784,4.6055,4.7389,4.5375,4.5672,4.6182,4.6452,4.7442,4.8693,5.0085,5.0821,5.0733,5.0752,5.0771,5.0821,5.0801,5.0846,5.0869,5.089,5.0801,5.0581,4.9506,4.8972,4.865,4.8742,4.8742,4.8788,4.3556,4.3664,4.2742,4.2551,4.2871,4.3058,4.3361,4.3725,4.3893,4.3777,4.3473,4.4057,4.3631,4.2468,4.2296,4.252,4.3023,4.3229,4.3669,4.4254,4.4199,4.4528,4.5093,4.5112,4.5382,4.5932,4.6318,4.6396,4.6213,4.6181,4.6448,4.6946,4.6438,4.5584,4.4526,4.4891,4.6345,4.8809,4.9654,5.0189,5.0393,5.0717,5.0898,5.0898,5.0898,5.0898,5.0898,5.0898,5.0821,5.0608,4.9834,4.7669,4.3846,3.7295,0.0,0.0,0.0,0.0,0.0,0.0,0.0,0.0,0.0,2.4288,2.4277,0.0,3.3553,0.0,3.5796,4.3544,4.3935,4.2975,0.0,0.0,3.8684,3.8832,3.9438,4.1933,4.3049,4.1559,4.4286,4.6824,4.8124,4.7681,4.7816,4.923,4.743,4.5928,4.6014,4.716,4.8191,4.8256,4.8862,4.9517,4.9449,4.9843,5.0245,5.0715,5.0821,5.0821,5.0821,5.0821,5.0821,5.0821,5.081,5.0846,5.0891,5.0863,5.0741,5.0482,5.0339,5.0299,5.0299,5.0279,5.0279,4.5101,4.5101,4.5101,4.5183,4.5224,4.4497,4.4162,4.4162,4.4162,4.4162,4.4143,4.4162,4.4147,4.4157,4.451,4.4687,4.4741,4.5114,4.5357,4.5457,4.5324,4.5634,4.6179,4.6179,4.6423,4.6869,4.7377,4.755,4.747,4.7676,4.8068,4.8618,4.8667,4.854,4.8247,4.806,4.877,5.0344,5.0383,5.0446,5.0596,5.0816,5.0357,4.9243,4.8836,4.8094,4.698,4.6593,4.6419,4.6419,4.6748,4.587,4.3498,3.8179,3.3098,0.0,0.0,0.0,0.0,0.0,0.0,0.0,0.0,0.0,0.0,0.0,3.8414,3.209,4.1484,4.7003,4.4717,4.4438,4.3941,4.2852,4.3173,4.389,4.5024,4.6791,4.7563,4.6667,4.8133,4.9625,5.0539,4.9856,4.9586,5.0577,4.9077,4.8038,4.849,4.899,4.9433,4.9942,5.0385,5.0683,5.0683,5.0693,5.0721,5.0749,5.0749,5.0758,5.0758,5.0758,5.0777,5.0758,5.0748,5.0766,5.0803,5.0812,5.0812,5.0812,5.0827,5.085,5.0885,5.0913,5.0901,4.6513,4.6513,4.6513,4.6513,4.6401,4.4934,4.4321,4.4321,4.4321,4.4321,4.4321,4.4321,4.4321,4.4358,4.5119,4.5538,4.5775,4.6532,4.7029,4.7222,4.7043,4.7137,4.7472,4.7472,4.7504,4.7675,4.8641,4.899,4.8768,4.9215,4.9554,4.9771,4.9573,4.9735,5.0286,5.0298,5.0374,5.0577,5.05,5.0404,5.0317,5.0372,4.9254,4.6883,4.5935,4.4369,4.2106,4.1216,4.0797,4.0835,4.1583,4.2164,4.2357,3.7876,3.4582,0.0,2.7705,0.0,0.0,0.0,0.0,0.0,0.0,0.0,0.0,3.882,4.0614,4.2382,4.7505,4.9191,4.5555,4.5197,4.5797,4.7188,4.74,4.8268,5.0404,5.0683,5.0683,5.0683,5.0683,5.0683,5.0683,5.0683,5.0683,5.0693,5.0731,5.0616,5.0779,5.0654,5.0567,5.0683,5.0683,5.0789,5.1077,5.1039,5.1,5.1039,5.1154,5.101,5.1135,5.1097,5.1058,5.1077,5.1164,5.1116,5.1019,5.1114,5.1141,5.1229,5.1238,5.1178,5.0932,5.0891,5.0888,4.6513,4.6513,4.6513,4.6513,4.6475,4.616,4.603,4.6011,4.603,4.603,4.6011,4.6011,4.6048,4.6048,4.6197,4.6285,4.6347,4.6705,4.6928,4.6981,4.7151,4.7636,4.8332,4.837,4.8712,4.9324,4.9554,4.961,4.957,4.9673,4.9749,4.9803,4.9749,4.9917,5.0286,0.0,0.0,0.0,4.9941,4.9412,4.8821,4.8172,4.695,4.5135,4.4233,0.0,4.2048,4.1222,4.0797,4.0835,4.1564,0.0,0.0,0.0,0.0,0.0,0.0,0.0,0.0,0.0,0.0,0.0,3.7956,3.8579,3.8844,4.1068,4.3451,4.5781,4.8845,5.0385,4.9615,4.9519,4.9644,4.9933,4.9962,5.0192,5.0654,5.0683,5.0683,5.0683,5.0683,5.0683,5.0683,5.0683,5.0712,5.076,5.1279,5.1645,5.1673,5.1164,5.0741,5.0683,5.0798,5.1241,5.2529,5.2318,5.2202,5.2587,5.2722,5.2683,5.2626,5.2664,5.2683,5.2645,5.2713,5.2674,5.2693,5.2742,5.2646,5.2733,5.2713,5.2358,5.1101,5.0829,5.081,4.7683,0.0,4.7701,4.7683,0.0,4.7683,4.7683,4.7627,4.6847,4.6513,4.651,4.6635,4.6676,4.6729,4.7271,4.7533,4.7567,4.8089,4.8329,4.8329,4.8461,4.8833,4.9397,4.9397,4.9687,5.0225,5.0075,5.0075,5.0214,4.9949,4.9884,4.9993,4.9993,5.0099,5.0252,5.038,5.0423,5.0396,5.0095,4.9769,4.941,4.912,4.7971,4.5919,4.4974,0.0,0.0,0.0,0.0,0.0,0.0,0.0,0.0,0.0,0.0,4.1912,3.9592,3.8691,3.9823,4.0323,4.1636,4.4127,4.5111,4.4861,4.3203,4.5426,4.7419,4.8653,4.9962,5.0683,5.0683,5.0683,5.0683,5.0683,5.0683,5.0683,5.0683,5.0683,5.0683,5.0683,5.0683,5.0683,5.0683,5.1068,5.1279,5.1337,5.2029,5.2549,5.25,5.2222,5.1933,5.1914,5.1664,5.1924,5.2933,5.326,5.3145,5.3222,5.3203,5.3203,5.3203,5.3203,5.3203,5.3203,5.3203,5.3203,5.3203,5.3203,5.3203,5.3203,5.3203,5.3001,5.2098,5.1683,5.1402,4.889,4.889,4.889,4.889,4.889,4.889,4.889,4.8816,0.0,0.0,0.0,4.7171,4.7256,4.7327,4.8305,4.8745,4.8783,4.9521,4.9884,4.9884,4.9936,5.0075,5.0283,5.0264,5.0432,5.0673,5.0421,5.0432,5.0673,5.019,5.0062,5.0272,5.0264,5.0283,5.0313,5.0565,5.0623,5.0459,5.0319,5.0159,5.0045,5.0122,4.9048,4.67,4.5803,4.4271,4.2093,4.1203,4.0752,4.0791,4.1525,4.2202,4.2627,4.2801,4.3091,4.3497,4.2883,4.3689,4.6378,4.654,4.7699,5.0519,5.0683,4.9798,4.7721,4.95,5.0683,5.0683,5.0683,5.0683,5.0683,5.0683,5.0683,5.0683,5.0683,5.0683,5.0683,5.0683,5.075,5.0856,5.0933,5.0991,5.1202,5.1741,5.2135,5.2231,5.2895,5.353,5.3568,5.3337,5.3126,5.328,5.2856,5.276,5.353,5.403,5.4087,5.3837,5.3722,5.3645,5.3645,5.3645,5.3645,5.378,5.3645,5.3703,5.3664,5.376,5.3664,5.3626,5.3664,5.3645,5.3587,5.3021,5.2473,4.889,4.889,4.889,4.889,4.889,4.889,4.889,4.889,4.8649,4.8556,4.8556,4.8607,4.8606,4.8623,4.9112,4.9288,4.9333,4.9879,5.0147,5.0159,5.0451,5.0594,5.0624,5.0643,5.0644,5.0683,5.0634,5.0663,5.0673,5.0604,5.0594,5.0614,5.0643,5.0624,5.0624,5.0673,5.0702,5.0634,4.9913,4.924,4.86,4.7848,4.6629,4.4935,4.4114,4.3091,4.2019,4.12,4.0639,4.0658,4.1449,4.2883,4.5032,4.5881,4.7279,4.9352,4.944,4.9588,4.994,4.9988,5.0173,5.0616,5.0683,5.0539,5.0231,5.05,5.0683,5.0683,5.0683,5.0683,5.0683,5.0683,5.0683,5.0683,5.0683,5.0683,5.075,5.0741,5.101,5.1645,5.1731,5.2049,5.2587,5.2914,5.301,5.3145,5.376,5.4549,5.4838,5.4107,5.3626,5.401,5.3606,5.3799,5.4799,5.5357,5.5299,5.5357,5.5241,5.5145,5.5145,5.5126,5.5145,5.528,5.5164,5.5203,5.5222,5.5338,5.5203,5.5145,5.5126,5.5184,5.5126,5.4559,5.3896,4.8732,4.875,4.8804,4.8839,4.8839,4.8891,4.889,4.889,4.889,4.889,4.8907,4.9094,4.9176,4.9206,4.9622,4.983,4.9857,5.0279,5.0464,5.0464,5.0643,5.0683,5.0683,5.0683,5.0683,5.0683,5.0683,5.0683,5.0683,5.0683,5.0683,5.0683,5.0683,5.0683,5.0683,5.0683,5.0683,5.0683,5.0308,4.9942,4.9613,4.919,4.86,4.7882,4.7497,4.7166,4.6804,4.6375,4.6135,4.6135,4.6502,4.7254,4.8381,4.8844,4.9597,5.0696,5.0775,5.0748,5.0682,5.0692,5.0693,5.0693,5.0683,5.0683,5.0683,5.0683,5.0683,5.0683,5.0683,5.0683,5.0683,5.0683,5.0683,5.0683,5.0683,5.0875,5.126,5.1356,5.1683,5.2423,5.2596,5.276,5.3164,5.3606,5.3895,5.3972,5.4626,5.5299,5.5645,5.5088,5.4664,5.503,5.4818,5.4876,5.5568,5.5684,5.5684,5.5684,5.5684,5.5684,5.5684,5.5684,5.5684,5.5684,5.5684,5.5684,5.5684,5.5684,5.5684,5.5684,5.5684,5.5684,5.5626,5.5376,5.4722,4.8605,4.8678,4.875,4.8804,4.884,4.8874,4.889,4.889,4.889,4.889,4.8925,4.9158,4.9383,4.9577,4.9898,5.0043,5.0147,5.0432,5.0643,5.0683,5.0683,5.0683,5.0683,5.0683,5.0683,5.0683,5.0683,5.0683,5.0683,5.0683,5.0683,5.0683,5.0683,5.0683,5.0683,5.0683,5.0683,5.0683,5.0683,5.0683,5.0693,5.0683,5.0682,5.0701,5.0729,5.0775,5.0784,5.0794,5.0766,5.0785,5.0766,5.0785,5.0785,5.0785,5.0766,5.0785,5.073,5.0682,5.0702,5.0693,5.0683,5.0683,5.0683,5.0683,5.0683,5.0683,5.0683,5.0683,5.0683,5.0683,5.0731,5.0894,5.0971,5.0952,5.1144,5.1587,5.2096,5.2173,5.2549,5.3299,5.351,5.3549,5.3818,5.4337,5.4722,5.4857,5.5318,5.5665,5.5684,5.5684,5.5684,5.5684,5.5684,5.5645,5.5684,5.5684,5.5684,5.5684,5.5684,5.5684,5.5684,5.5684,5.5684,5.5684,5.5684,5.5684,5.5684,5.5684,5.5684,5.5684,5.5684,5.5673,5.5596,5.5632,5.5338,4.8678,4.8769,4.8787,4.8821,4.8891,4.889,4.889,4.889,4.889,4.889,4.8946,4.8925,4.937,4.9906,4.9671,4.9669,4.9914,5.0142,5.0429,5.0712,5.0683,5.0683,5.0683,5.0683,5.0683,5.0683,5.0683,5.0683,5.0683,5.0683,5.0683,5.0683,5.0683,5.0683,5.0683,5.0683,5.0683,5.0683,5.0683,5.0683,5.0693,5.0693,5.0693,5.0692,5.0702,5.0702,5.0701,5.0731,5.0702,5.0702,5.0712,5.0721,5.0731,5.0702,5.0702,5.0721,5.0702,5.0702,5.0693,5.0693,5.0712,5.0683,5.0731,5.077,5.076,5.0712,5.0683,5.0779,5.0741,5.0818,5.0741,5.1375,5.1788,5.1837,5.2395,5.301,5.3049,5.3087,5.3414,5.426,5.4376,5.4645,5.5164,5.5415,5.5511,5.5453,5.5549,5.5684,5.5684,5.5684,5.5684,5.5684,5.5684,5.5684,5.5684,5.5684,5.5684,5.5684,5.5684,5.5684,5.5684,5.5684,5.5684,5.5684,5.5684,5.5684,5.5684,5.5684,5.5684,5.5684,5.5673,5.5629,5.5449,5.5527,5.5448,4.8495,4.8643,4.866,4.875,4.8891,4.889,4.889,4.889,4.889,4.9187,4.9633,4.9633,4.98,5.0097,5.0083,5.0435,5.0983,5.0957,5.1044,5.1138,5.0854,5.0683,5.0683,5.0683,5.0683,5.0683,5.0683,5.0683,5.0683,5.0683,5.0683,5.0683,5.0683,5.0683,5.0683,5.0683,5.0683,5.0683,5.0683,5.0683,5.0683,5.0683,5.0702,5.0693,5.0702,5.0702,5.0693,5.0702,5.0683,5.0683,5.0683,5.0683,5.0683,5.0683,5.0683,5.0683,5.0683,5.0683,5.0683,5.0683,5.0894,5.1356,5.1414,5.1606,5.2068,5.1279,5.1068,5.201,5.2164,5.2164,5.2202,5.2491,5.2673,5.2712,5.3,5.3395,5.3933,5.3972,5.4299,5.5068,5.5203,5.5299,5.5607,5.5684,5.5684,5.5684,5.5684,5.5684,5.5684,5.5684,5.5684,5.5684,5.5684,5.5684,5.5684,5.5684,5.5684,5.5684,5.5684,5.5684,5.5684,5.5684,5.5684,5.5684,5.5684,5.5684,5.5684,5.5684,5.5684,5.5662,5.5684,5.5651,5.5562,5.5504,5.5473,4.9061,4.9157,4.9252,4.9398,4.9524,4.9524,4.9524,4.9524,4.9524,4.9766,5.0118,5.0117,5.0265,5.0486,5.071,5.1246,5.1845,5.1776,5.1667,5.1607,5.1439,5.1144,5.077,5.0933,5.0923,5.0731,5.0683,5.0683,5.0683,5.0683,5.0683,5.0683,5.0683,5.0683,5.0683,5.0683,5.0683,5.0712,5.0904,5.1029,5.1068,5.127,5.126,5.1068,5.126,5.1395,5.1385,5.1375,5.1385,5.1395,5.1395,5.1395,5.1375,5.1375,5.1375,5.1375,5.1375,5.1375,5.1375,5.1375,5.1625,5.2173,5.225,5.2519,5.2856,5.2068,5.2087,5.3318,5.3741,5.378,5.3241,5.3414,5.3568,5.3568,5.3722,5.4164,5.4741,5.4838,5.503,5.5588,5.5626,5.5684,5.5684,5.5684,5.5684,5.5684,5.5684,5.5684,5.5684,5.5684,5.5684,5.5684,5.5684,5.5684,5.5684,5.5684,5.5684,5.5684,5.5684,5.5684,5.5684,5.5684,5.5618,5.5573,5.564,5.5566,5.5394,5.5418,5.552,5.5485,5.5454,5.5418,5.5179,5.5172,5.5064,5.0732,5.0777,5.0989,5.0972,5.1083,5.1009,5.1028,5.0935,5.1009,5.0676,5.0139,5.0174,5.0563,5.1323,5.1416,5.1724,5.2256,5.2243,5.2088,5.1964,5.2644,5.2222,5.0808,5.1452,5.1471,5.0856,5.0798,5.0741,5.0712,5.0683,5.0683,5.0683,5.0683,5.0683,5.0683,5.0683,5.0712,5.0837,5.1433,5.1827,5.1942,5.2664,5.2664,5.2077,5.2606,5.2972,5.301,5.3068,5.3049,5.3049,5.2972,5.301,5.3029,5.301,5.2972,5.2991,5.301,5.3029,5.2991,5.2953,5.3029,5.3145,5.3145,5.3183,5.3414,5.3241,5.351,5.4376,5.5011,5.4838,5.3722,5.4068,5.4414,5.4491,5.5088,5.5453,5.5568,5.5511,5.5626,5.5684,5.5684,5.5684,5.5684,5.5684,5.5703,5.5703,5.5684,5.5684,5.5684,5.5684,5.5684,5.5684,5.5684,5.5684,5.5684,5.5684,5.5684,5.5684,5.5684,5.5673,5.5684,5.5662,5.552,5.5437,5.5466,5.535,5.5064,5.4981,5.5111,5.5097,5.5009,5.4909,5.4876,5.4791,5.4685,5.0844,5.0926,5.1061,5.1137,5.1137,5.1118,5.1137,5.1156,5.1118,5.097,5.086,5.1306,5.1751,5.2047,5.2661,5.305,5.3166,5.2606,5.2227,5.219,5.2861,5.2587,5.1664,5.2337,5.2279,5.1568,5.1471,5.1202,5.0731,5.0683,5.0683,5.0683,5.0683,5.0683,5.0683,5.0683,5.0933,5.1452,5.1769,5.2154,5.2769,5.3587,5.3857,5.3568,5.3318,5.3203,5.3203,5.3203,5.3203,5.3203,5.3203,5.3203,5.3203,5.3203,5.3203,5.3203,5.3203,5.3203,5.3203,5.3203,5.3472,5.3972,5.403,5.4241,5.4664,5.4799,5.4934,5.5241,5.5491,5.5318,5.5088,5.5107,5.5261,5.5318,5.5511,5.5684,5.5684,5.5684,5.5684,5.5684,5.5684,5.5684,5.5703,5.5671,5.564,5.5692,5.5662,5.5651,5.5684,5.5684,5.5692,5.5684,5.5703,5.5649,5.5468,5.5607,5.5703,5.5684,5.5673,5.5543,5.5508,5.5449,5.5307,5.5064,5.5126,5.5126,5.4821,5.4746,5.4821,5.4806,5.4716,5.4607,5.4654,5.4528,5.4382,5.1595,5.1658,5.1758,5.1815,5.1815,5.1797,5.1815,5.1815,5.1797,5.1668,5.1614,5.2099,5.2378,5.2416,5.2808,5.3367,5.3813,5.3337,5.2992,5.2889,5.3614,5.3414,5.2606,5.3222,5.3183,5.2385,5.2,5.1596,5.1106,5.0818,5.0683,5.0683,5.0683,5.0683,5.0683,5.0683,5.1087,5.1769,5.2154,5.2731,5.3606,5.4453,5.4876,5.4799,5.4318,5.3991,5.401,5.401,5.401,5.401,5.3991,5.401,5.3991,5.3991,5.401,5.401,5.403,5.401,5.401,5.401,5.428,5.4818,5.4895,5.5145,5.5645,5.5684,5.5684,5.5684,5.5684,5.5684,5.5684,5.5684,5.5684,5.5684,5.5684,5.5684,5.5684,5.5684,5.5684,5.5684,5.5684,5.5684,5.5684,5.5671,5.5671,5.5703,5.5651,5.5651,5.5673,5.5618,5.5573,5.5562,5.5449,5.5307,5.5178,5.5224,5.5275,5.5288,5.535,5.5288,5.5224,5.5159,5.5023,5.4776,5.4685,5.47,5.467,5.456,5.4528,5.4511,5.4397,5.4264,5.4264,5.4246,5.4143,5.3151,5.3099,5.3238,5.3134,5.3097,5.3077,5.3205,5.3134,5.3132,5.269,5.2195,5.2295,5.2428,5.2282,5.1989,5.2419,5.3825,5.433,5.4268,5.3945,5.4986,5.4664,5.3318,5.4087,5.403,5.3183,5.2346,5.1942,5.1895,5.1202,5.0818,5.076,5.075,5.0683,5.0683,5.0779,5.1164,5.2,5.2788,5.3626,5.4472,5.5222,5.5568,5.5607,5.553,5.5491,5.5568,5.5549,5.5472,5.553,5.553,5.5645,5.5472,5.5491,5.5588,5.5472,5.5588,5.5626,5.5588,5.5511,5.5434,5.5568,5.5645,5.5588,5.5665,5.5684,5.5684,5.5684,5.5684,5.5684,5.5684,5.5684,5.5684,5.5684,5.5684,5.5684,5.5684,5.5684,5.5684,5.5684,5.5684,5.5684,5.5684,5.5673,5.5682,5.566,5.5629,5.5577,5.5512,5.535,5.5282,5.5198,5.5078,5.4905,5.4832,5.4791,5.4773,5.4773,5.4876,5.489,5.4847,5.4791,5.4654,5.4449,5.4432,5.443,5.4296,5.4212,5.4089,5.4035,5.3944,5.3981,5.3981,5.4,5.3926,5.3185,5.3185,5.3209,5.3248,5.323,5.323,5.323,5.323,5.323,5.3083,5.292,5.295,5.2991,5.2956,5.2816,5.312,5.3738,5.4319,5.443,5.4276,5.5189,5.5145,5.4434,5.4934,5.4914,5.4068,5.3212,5.2818,5.2645,5.1952,5.1529,5.1452,5.0981,5.0712,5.0808,5.1241,5.1942,5.2799,5.3664,5.4491,5.5241,5.5549,5.5684,5.5684,5.5684,5.5684,5.5684,5.5684,5.5684,5.5684,5.5684,5.5684,5.5684,5.5684,5.5684,5.5684,5.5684,5.5684,5.5684,5.5684,5.5684,5.5684,5.5684,5.5684,5.5684,5.5684,5.5684,5.5684,5.5684,5.5684,5.5684,5.5684,5.5684,5.5684,5.5684,5.5684,5.5684,5.5684,5.5684,5.5684,5.5684,5.5684,5.5673,5.564,5.552,5.5425,5.5376,5.5295,5.5021,5.4905,5.4794,5.4735,5.4601,5.4476,5.4378,5.4294,5.426,5.4311,5.4428,5.4511,5.4463,5.4449,5.4281,5.4196,5.4196,5.4143,5.3999,5.3907,5.3832,5.3813,5.3851,5.3851,5.3813,5.3813,5.3813,5.3185,5.3185,5.3185,5.3185,5.3185,5.3185,5.3185,5.3185,5.3185,5.3185,5.3206,5.3233,5.332,5.3442,5.3442,5.368,5.4015,5.442,5.4567,5.4631,5.5278,5.5395,5.503,5.5415,5.5472,5.4895,5.4107,5.3703,5.3626,5.2837,5.2385,5.2269,5.1875,5.1664,5.1664,5.2145,5.2808,5.3645,5.4222,5.4895,5.5511,5.5684,5.5684,5.5684,5.5684,5.5684,5.5684,5.5684,5.5684,5.5684,5.5684,5.5684,5.5684,5.5684,5.5684,5.5684,5.5684,5.5684,5.5684,5.5684,5.5684,5.5684,5.5684,5.5684,5.5684,5.5684,5.5684,5.5684,5.5684,5.5684,5.5684,5.5684,5.5684,5.5684,5.5684,5.5684,5.5684,5.5684,5.5684,5.5673,5.5577,5.5423,5.5282,5.5212,5.5153,5.5018,5.4962,5.489,5.4594,5.4449,5.4371,5.4274,5.4138,5.3997,5.3851,5.3776,5.3719,5.3851,5.4017,5.4072,5.409,5.4107,5.4036,5.3981,5.3963,5.3981,5.387,5.3851,5.3813,5.3813,5.3813,5.3813,5.3813,5.3813,5.3813,5.3185,5.3185,5.3185,5.3185,5.3185,5.3185,5.3185,5.3185,5.3185,5.3227,5.323,5.3293,5.3442,5.3623,5.3505,5.3833,5.4613,5.4566,5.4745,5.5167,5.5543,5.5585,5.5577,5.5665,5.5626,5.5472,5.4876,5.4568,5.4511,5.3703,5.328,5.3241,5.3068,5.3126,5.2991,5.3203,5.3645,5.428,5.453,5.503,5.5665,5.5684,5.5684,5.5684,5.5684,5.5684,5.5684,5.5684,5.5684,5.5684,5.5684,5.5684,5.5684,5.5684,5.5684,5.5684,5.5684,5.5684,5.5684,5.5684,5.5684,5.5684,5.5684,5.5684,5.5684,5.5684,5.5684,5.5684,5.5684,5.5684,5.5684,5.5651,5.564,5.561,5.564,5.5673,5.5662,5.5621,5.564,5.5599,5.5343,5.489,5.4532,5.4484,5.4582,5.4503,5.4487,5.4455,5.4272,5.4085,5.3979,5.3833,5.3719,5.3641,5.3542,5.3522,5.3501,5.3542,5.3679,5.3756,5.3793,5.3813,5.3832,5.3775,5.3774,5.3793,5.3793,5.3793,5.3793,5.3813,5.3813,5.3813,5.3813,5.3813,5.3813,5.3185,5.3185,5.3185,5.3185,5.3185,5.3185,5.3185,5.3185,5.3185,5.3316,5.3504,5.3564,5.3738,5.407,5.3739,5.3777,5.4085,5.4307,5.4474,5.4754,5.532,5.5562,5.5629,5.5692,5.5684,5.5645,5.5453,5.5376,5.5318,5.453,5.4164,5.4126,5.3587,5.326,5.326,5.3876,5.4222,5.4568,5.5126,5.5434,5.5626,5.5684,5.5684,5.5684,5.5684,5.5684,5.5684,5.5684,5.5684,5.5684,5.5684,5.5684,5.5684,5.5684,5.5684,5.5684,5.5684,5.5684,5.5684,5.5684,5.5684,5.5684,5.5684,5.5684,5.5684,5.5703,5.5684,5.5684,5.5684,5.5692,5.5671,5.5508,5.5269,5.5002,5.5331,5.5543,5.5319,5.525,5.5343,5.5546,5.5048,5.4387,5.3943,5.405,5.4324,5.4154,5.4086,5.4033,5.3814,5.3682,5.3564,5.3442,5.3336,5.3314,5.3272,5.3272,5.3272,5.3274,5.3378,5.3501,5.3541,5.36,5.3619,5.3579,5.3676,5.3716,5.3735,5.3754,5.3774,5.3793,5.3813,5.3813,5.3813,5.3813,5.3813,5.3185,5.3185,5.3185,5.3185,5.3185,5.3185,5.3185,5.3185,5.3206,5.3314,5.3462,5.3502,5.37,5.398,5.3662,5.3758,5.4138,5.4294,5.4509,5.4899,5.5288,5.5504,5.5596,5.5682,5.5684,5.5684,5.5684,5.5684,5.5607,5.5203,5.503,5.4934,5.4511,5.426,5.4357,5.4684,5.4991,5.5088,5.5472,5.5684,5.5684,5.5684,5.5684,5.5684,5.5684,5.5684,5.5684,5.5684,5.5684,5.5684,5.5684,5.5684,5.5684,5.5684,5.5684,5.5684,5.5684,5.5684,5.5684,5.5684,5.5684,5.5684,5.5684,5.5684,5.5662,5.5618,5.5562,5.5673,5.5497,5.5425,5.5461,5.5205,5.4914,5.4731,5.496,5.5088,5.4867,5.4852,5.4933,5.496,5.4606,5.396,5.3274,5.37,5.3795,5.3719,5.3661,5.3522,5.3359,5.3274,5.3254,5.3209,5.3185,5.3206,5.3227,5.3227,5.3227,5.3227,5.323,5.3316,5.3398,5.3479,5.3499,5.3499,5.3578,5.3617,5.3637,5.3676,5.3734,5.3754,5.3793,5.3793,5.3793,5.3813,5.3813,5.3185,5.3185,5.3185,5.3185,5.3185,5.3185,5.3185,5.3185,5.3185,5.3248,5.3295,5.3272,5.3582,5.3739,5.3563,5.3776,5.4588,5.4364,5.4784,5.514,5.5421,5.5468,5.5551,5.5629,5.5662,5.5692,5.5703,5.5684,5.5665,5.5645,5.5645,5.5549,5.5549,5.5626,5.5415,5.5588,5.5665,5.5607,5.5626,5.5684,5.5684,5.5684,5.5684,5.5684,5.5684,5.5684,5.5684,5.5684,5.5684,5.5684,5.5684,5.5684,5.5684,5.5684,5.5684,5.5684,5.5684,5.5684,5.5684,5.5684,5.5684,5.5684,5.5662,5.5651,5.5566,5.5401,5.5326,5.5466,5.5105,5.5009,5.499,5.4745,5.4497,5.4371,5.4387,5.439,5.4373,5.4406,5.4423,5.4357,5.3941,5.3604,5.3339,5.3185,5.3227,5.3461,5.3378,5.3336,5.3251,5.323,5.3209,5.3206,5.3185,5.3185,5.3185,5.3185,5.3206,5.3206,5.3206,5.3251,5.3336,5.3398,5.3439,5.3459,5.3477,5.3477,5.3499,5.3558,5.3656,5.3695,5.3716,5.3736,5.3793,5.3813,5.3813,5.3185,5.3185,5.3185,5.3185,5.3185,5.3185,5.3185,5.3185,5.3185,5.3336,5.3524,5.3564,5.3795,5.4105,5.3719,5.3739,5.4033,5.4209,5.4707,5.5313,5.539,5.5408,5.5468,5.5562,5.5626,5.5649,5.5682,5.5703,5.5703,5.5703,5.5684,5.5684,5.5684,5.5684,5.5684,5.5684,5.5684,5.5684,5.5684,5.5684,5.5684,5.5684,5.5684,5.5684,5.5684,5.5684,5.5684,5.5684,5.5684,5.5684,5.5684,5.5684,5.5684,5.5684,5.5684,5.5684,5.5684,5.5684,5.5684,5.5684,5.5684,5.5671,5.5527,5.5376,5.5364,5.5091,5.4952,5.4995,5.4866,5.4616,5.4423,5.4288,5.4031,5.3796,5.3662,5.3603,5.3563,5.3777,5.3814,5.3584,5.3442,5.3295,5.3227,5.3185,5.3185,5.3185,5.3185,5.3185,5.3185,5.3185,5.3185,5.3185,5.3185,5.3185,5.3185,5.3185,5.3185,5.3185,5.3185,5.3185,5.3272,5.3314,5.3334,5.3316,5.3316,5.3336,5.3378,5.344,5.3539,5.3598,5.3637,5.3696,5.3716,5.3755,5.3813,5.3185,5.3185,5.3185,5.3185,5.3185,5.3185,5.3185,5.3185,5.3185,5.3293,5.3422,5.3444,5.3583,5.3757,5.3582,5.3524,5.3814,5.4294,5.4844,5.53,5.5403,5.5396,5.5409,5.5476,5.5516,5.5551,5.5618,5.564,5.5651,5.5692,5.5684,5.5684,5.5684,5.5684,5.5684,5.5684,5.5684,5.5684,5.5684,5.5684,5.5684,5.5684,5.5684,5.5684,5.5684,5.5684,5.5684,5.5684,5.5684,5.5684,5.5684,5.5684,5.5684,5.5684,5.5684,5.5684,5.5684,5.5684,5.5684,5.5684,5.564,5.5527,5.5376,5.5217,5.5069,5.4806,5.4731,5.4685,5.446,5.4105,5.3833,5.3739,5.3545,5.3404,5.3274,5.3233,5.323,5.3381,5.3464,5.3251,5.323,5.3227,5.3185,5.3185,5.3185,5.3185,5.3185,5.3185,5.3185,5.3185,5.3185,5.3185,5.3185,5.3185,5.3185,5.3185,5.3185,5.3185,5.3185,5.3185,5.3227,5.3227,5.3206,5.3209,5.3251,5.3251,5.3293,5.3357,5.34,5.342,5.3499,5.3598,5.3657,5.3696,5.3755,5.3185,5.3185,5.3185,5.3185,5.3185,5.3185,5.3185,5.3185,5.3185,5.3206,5.3206,5.3185,5.3272,5.3227,5.3248,5.342,5.3888,5.4345,5.4889,5.5345,5.5384,5.5384,5.5409,5.5409,5.5439,5.548,5.5551,5.5573,5.5596,5.5629,5.5629,5.5651,5.5673,5.5651,5.5651,5.5684,5.5684,5.5673,5.5703,5.5684,5.5684,5.5684,5.5684,5.5684,5.5684,5.5684,5.5684,5.5684,5.5684,5.5684,5.5684,5.5684,5.5684,5.5684,5.5684,5.5684,5.5684,5.5684,5.5651,5.5629,5.5527,5.5301,5.5151,5.5009,5.4746,5.4511,5.443,5.4313,5.407,5.3621,5.3461,5.3442,5.3361,5.3277,5.3248,5.3206,5.3185,5.3185,5.3206,5.3206,5.3185,5.3185,5.3185,5.3185,5.3185,5.3185,5.3185,5.3185,5.3185,5.3185,5.3185,5.3185,5.3185,5.3185,5.3185,5.3185,5.3185,5.3185,5.3185,5.3185,5.3185,5.3185,5.3185,5.3185,5.3206,5.3206,5.3227,5.3272,5.3295,5.3297,5.3359,5.3459,5.3558,5.3636,5.3676,5.3185,5.3185,5.3185,5.3185,5.3185,5.3185,5.3185,5.3185,5.3185,5.3185,5.3185,5.3185,5.3185,5.3185,5.3185,5.358,5.407,5.4413,5.4784,5.5286,5.539,5.539,5.5384,5.5396,5.5409,5.5428,5.5463,5.5523,5.5516,5.5527,5.5551,5.5551,5.5585,5.5596,5.5585,5.5629,5.5651,5.5618,5.5671,5.5662,5.5673,5.5673,5.5673,5.5673,5.5673,5.5673,5.5703,5.5703,5.5684,5.5684,5.5684,5.5684,5.5673,5.5673,5.5692,5.5703,5.5692,5.564,5.5554,5.5449,5.5339,5.5143,5.4791,5.4493,5.4313,5.4106,5.4054,5.3907,5.3699,5.34,5.332,5.3297,5.3274,5.323,5.3206,5.3185,5.3185,5.3185,5.3185,5.3185,5.3185,5.3185,5.3185,5.3185,5.3185,5.3185,5.3185,5.3185,5.3185,5.3185,5.3185,5.3185,5.3185,5.3185,5.3185,5.3185,5.3185,5.3185,5.3185,5.3185,5.3185,5.3185,5.3185,5.3185,5.3185,5.3206,5.3206,5.3227,5.3209,5.3251,5.3295,5.3339,5.342,5.3499,5.3539,5.3185,5.3185,5.3185,5.3185,5.3185,5.3185,5.3185,5.3185,5.3185,5.3185,5.3185,5.3185,5.3185,5.3185,5.3185,5.3601,5.4123,5.4296,5.4723,5.526,5.539,5.539,5.539,5.539,5.539,5.5416,5.5447,5.5439,5.5456,5.5492,5.5511,5.5504,5.5539,5.5527,5.5516,5.5562,5.5573,5.5543,5.5585,5.5596,5.5596,5.5596,5.5596,5.5607,5.5629,5.564,5.564,5.566,5.564,5.5629,5.5607,5.5596,5.5596,5.5596,5.5626,5.5649,5.5638,5.5497,5.5326,5.5172,5.499,5.4604,5.4277,5.407,5.3926,5.3813,5.3698,5.3519,5.3499,5.3357,5.3272,5.3254,5.323,5.3206,5.3185,5.3185,5.3185,5.3185,5.3185,5.3185,5.3185,5.3185,5.3185,5.3185,5.3185,5.3185,5.3185,5.3185,5.3185,5.3185,5.3185,5.3185,5.3185,5.3185,5.3185,5.3185,5.3185,5.3185,5.3082,5.3082,5.3082,5.3039,5.3121,5.3185,5.3185,5.3017,5.3185,5.3206,5.3185,5.3164,5.3148,5.3172,5.3258,5.3341,5.3359,5.3185,5.3185,5.3185,5.3185,5.3185,5.3185,5.3185,5.3185,5.3185,5.3185,5.3185,5.3185,5.3185,5.3185,5.3272,5.3582,5.4245,5.4296,5.4723,5.526,5.539,5.539,5.539,5.539,5.539,5.5403,5.5403,5.539,5.5421,5.5439,5.5476,5.5476,5.5488,5.5488,5.5507,5.5511,5.5492,5.5473,5.5485,5.5523,5.5523,5.5523,5.5523,5.5523,5.5531,5.5573,5.5573,5.5585,5.5593,5.5562,5.5539,5.5523,5.5485,5.5492,5.5504,5.5539,5.5497,5.5301,5.5053,5.4881,5.4644,5.4157,5.3943,5.3738,5.364,5.3639,5.3599,5.3293,5.3272,5.3314,5.3227,5.3206,5.3206,5.3185,5.3185,5.3185,5.3185,5.3185,5.3185,5.3185,5.3185,5.3185,5.3185,5.3185,5.3185,5.3185,5.3185,5.3185,5.3185,5.3185,5.3185,5.3185,5.3185,5.3185,5.3185,5.3185,5.3185,5.3185,5.2995,5.2846,5.2846,5.2824,5.2846,5.2739,5.2654,5.254,5.2868,5.3121,5.3039,5.2995,5.2955,5.302,5.317,5.313,5.3069,5.3185,5.3185,5.3185,5.3185,5.3185,5.3185,5.3185,5.3185,5.3185,5.3185,5.3185,5.3185,5.3185,5.3185,5.3185,5.3621,5.4124,5.433,5.4707,5.5319,5.539,5.539,5.539,5.539,5.539,5.539,5.539,5.5403,5.5409,5.5422,5.5409,5.5422,5.5421,5.5434,5.5428,5.547,5.5449,5.5432,5.5468,5.5511,5.5511,5.5511,5.5511,5.5511,5.5504,5.5516,5.5516,5.5516,5.5516,5.5516,5.5504,5.5504,5.5492,5.5425,5.5401,5.5444,5.5432,5.5301,5.4914,5.4644,5.434,5.3907,5.3699,5.3561,5.3481,5.3461,5.3439,5.3248,5.3227,5.3227,5.3206,5.3185,5.3185,5.3185,5.3185,5.3185,5.3185,5.3185,5.3185,5.3185,5.3185,5.3185,5.3185,5.3185,5.3185,5.3185,5.3185,5.3185,5.3185,5.3185,5.3185,5.3185,5.2999,5.2977,5.285,5.2912,5.2868,5.2934,5.2761,5.2495,5.2449,5.2338,5.2036,5.1939,5.1964,5.2179,5.2563,5.2761,5.2824,5.2694,5.2495,5.2717,5.31,5.2977,5.2721,5.3185,5.3185,5.3185,5.3185,5.3185,5.3185,5.3185,5.3185,5.3185,5.3185,5.3185,5.3185,5.3185,5.3185,5.3185,5.362,5.4158,5.4296,5.4707,5.5279,5.539,5.539,5.539,5.539,5.539,5.539,5.539,5.539,5.539,5.539,5.539,5.5384,5.539,5.539,5.5403,5.5415,5.5428,5.5415,5.5428,5.5453,5.5453,5.5453,5.5453,5.5453,5.5451,5.5444,5.5444,5.5444,5.5444,5.5444,5.5439,5.5453,5.544,5.5415,5.5384,5.539,5.5183,5.4938,5.4588,5.4259,5.3907,5.3622,5.3416,5.3334,5.3334,5.3334,5.3314,5.3206,5.3185,5.3185,5.3185,5.3185,5.3185,5.3185,5.3185,5.3185,5.3185,5.3185,5.3185,5.3185,5.3185,5.3185,5.3185,5.3185,5.3185,5.3185,5.3185,5.3185,5.3185,5.3185,5.3185,5.3185,5.2934,5.2676,5.2477,5.2384,5.2173,5.2197,5.2132,5.1939,5.1915,5.1768,5.1493,5.1493,5.1676,5.1946,5.225,5.2226,5.2108,5.2036,5.1939,5.2268,5.2563,5.2384,5.2273,5.3185,5.3185,5.3185,5.3185,5.3185,5.3185,5.3185,5.3185,5.3185,5.3185,5.3185,5.3185,5.3185,5.3185,5.3248,5.362,5.4262,5.4296,5.4754,5.5192,5.539,5.539,5.539,5.539,5.539,5.539,5.539,5.539,5.539,5.539,5.539,5.539,5.5384,5.5403,5.5403,5.5384,5.5403,5.5384,5.5384,5.5416,5.5403,5.5403,5.5403,5.5396,5.5384,5.539,5.5402,5.5402,5.5402,5.539,5.5403,5.5396,5.5396,5.5396,5.5384,5.5286,5.5004,5.4604,5.4311,5.4016,5.3563,5.3316,5.3185,5.3227,5.3206,5.3185,5.3185,5.3185,5.3185,5.3185,5.3185,5.3185,5.3185,5.3185,5.3185,5.3185,5.3185,5.3185,5.3185,5.3185,5.3185,5.3185,5.3185,5.3185,5.3185,5.3185,5.3185,5.3185,5.3143,5.306,5.2934,5.285,5.2499,5.2226,5.2108,5.1873,5.1669,5.1493,5.1442,5.1416,5.1391,5.121,5.0937,5.1079,5.127,5.121,5.1184,5.1296,5.1424,5.1525,5.1644,5.1775,5.1915,5.1817,5.2036,5.3185,5.3185,5.3185,5.3185,5.3185,5.3185,5.3185,5.3185,5.3185,5.3185,5.3185,5.3185,5.3185,5.3206,5.3293,5.364,5.4298,5.4296,5.4784,5.5206,5.539,5.539,5.539,5.539,5.539,5.539,5.539,5.539,5.539,5.539,5.539,5.539,5.539,5.539,5.539,5.539,5.539,5.539,5.539,5.539,5.539,5.539,5.539,5.539,5.5384,5.5384,5.5384,5.5396,5.5396,5.5396,5.5384,5.539,5.539,5.539,5.539,5.5187,5.4754,5.438,5.4141,5.3851,5.3543,5.3295,5.3185,5.3185,5.3185,5.3185,5.3185,5.3185,5.3185,5.3185,5.3185,5.3185,5.3185,5.3185,5.3185,5.3185,5.3185,5.3185,5.3185,5.3185,5.3185,5.3185,5.3185,5.3185,5.3185,5.3185,5.2974,5.2952,5.2828,5.2739,5.2522,5.232,5.1946,5.1725,5.1651,5.1424,5.1158,5.1044,5.0964,5.091,5.0857,5.063,5.0481,5.0425,5.0519,5.0302,5.0217,5.0602,5.091,5.1158,5.1288,5.1236,5.1626,5.1891,5.2226,5.3185,5.3185,5.3185,5.3185,5.3185,5.3185,5.3185,5.3185,5.3185,5.3185,5.3185,5.3185,5.3185,5.323,5.3462,5.3776,5.4279,5.4544,5.4918,5.5233,5.539,5.539,5.539,5.539,5.539,5.539,5.539,5.539,5.539,5.539,5.539,5.539,5.539,5.539,5.539,5.539,5.539,5.539,5.539,5.539,5.539,5.539,5.539,5.539,5.539,5.539,5.5403,5.539,5.539,5.539,5.539,5.539,5.5377,5.539,5.526,5.5038,5.4546,5.421,5.3925,5.3641,5.3336,5.3272,5.3185,5.3185,5.3185,5.3185,5.3185,5.3185,5.3185,5.3185,5.3185,5.3185,5.3185,5.3185,5.3185,5.3185,5.3185,5.3185,5.3185,5.3185,5.3185,5.3185,5.3185,5.3185,5.3185,5.3164,5.2912,5.2694,5.254,5.2273,5.2018,5.1757,5.1381,5.1166,5.1087,5.0893,5.0684,5.0602,5.0519,5.0481,5.0425,5.0302,5.0149,4.9993,5.0011,5.0051,5.012,5.0206,5.0369,5.0602,5.0564,5.0387,5.0991,5.1775,5.2155,5.3185,5.3185,5.3185,5.3185,5.3185,5.3185,5.3185,5.3185,5.3185,5.3185,5.3185,5.3185,5.3185,5.3272,5.3402,5.3833,5.421,5.4528,5.4952,5.5233,5.539,5.539,5.539,5.539,5.539,5.539,5.539,5.539,5.539,5.539,5.539,5.539,5.539,5.539,5.539,5.539,5.539,5.539,5.539,5.539,5.539,5.539,5.539,5.539,5.539,5.539,5.539,5.539,5.539,5.539,5.539,5.539,5.5364,5.5279,5.5085,5.4765,5.4378,5.3979,5.3719,5.342,5.3206,5.3185,5.3185,5.3185,5.3185,5.3185,5.3185,5.3185,5.3185,5.3185,5.3185,5.3185,5.3185,5.3185,5.3185,5.3185,5.3185,5.3185,5.3185,5.3185,5.3185,5.3185,5.3039,5.2995,5.2783,5.2694,5.2408,5.2197,5.2036,5.175,5.1355,5.1078,5.0831,5.0659,5.053,5.0453,5.0359,5.0302,5.0235,5.0149,5.008,5.0011,5.0011,5.0011,5.0011,5.0011,5.0022,5.0109,5.008,5.0051,5.0138,5.0302,5.0657,5.1424,5.1644,5.3206,5.3185,5.3185,5.3185,5.3185,5.3185,5.3185,5.3185,5.3185,5.3185,5.3185,5.3185,5.3185,5.3248,5.3357,5.3776,5.4246,5.4432,5.4784,5.5273,5.539,5.539,5.539,5.539,5.539,5.539,5.539,5.539,5.539,5.539,5.539,5.539,5.539,5.539,5.539,5.539,5.539,5.539,5.539,5.539,5.539,5.539,5.539,5.539,5.539,5.539,5.539,5.539,5.539,5.539,5.5319,5.5286,5.5292,5.4981,5.4795,5.4635,5.4087,5.3777,5.3643,5.3359,5.3209,5.3185,5.3185,5.3185,5.3185,5.3185,5.3185,5.3185,5.3185,5.3185,5.3185,5.3185,5.3185,5.3185,5.3185,5.3185,5.3185,5.3185,5.3185,5.3185,5.3185,5.3164,5.2974,5.2761,5.2408,5.2155,5.1866,5.1651,5.1525,5.1122,5.0696,5.055,5.0345,5.0261,5.0171,5.012,5.0022,5.0011,5.0011,5.0011,5.0011,5.0011,5.0011,5.0011,5.0011,5.0011,5.0011,4.9993,5.0011,5.0022,5.0341,5.0575,5.0857,5.0991,5.1131,5.34,5.3206,5.3185,5.3185,5.3185,5.3185,5.3185,5.3185,5.3185,5.3185,5.3185,5.3185,5.3185,5.3314,5.3699,5.4035,5.4315,5.4941,5.5305,5.5345,5.539,5.539,5.539,5.539,5.539,5.539,5.539,5.539,5.539,5.539,5.539,5.539,5.539,5.539,5.539,5.539,5.539,5.539,5.539,5.539,5.539,5.539,5.539,5.539,5.539,5.539,5.539,5.539,5.539,5.5319,5.52,5.5038,5.4981,5.4654,5.4361,5.4173,5.372,5.3622,5.3442,5.3209,5.3206,5.3185,5.3185,5.3185,5.3185,5.3185,5.3185,5.3185,5.3185,5.3185,5.3185,5.3185,5.3185,5.3185,5.3185,5.3185,5.3185,5.3185,5.3185,5.3185,5.3185,5.2846,5.2586,5.2108,5.1725,5.1475,5.1166,5.1017,5.0858,5.0439,4.9994,4.9982,4.9884,4.9884,4.9842,4.983,4.9906,4.9935,4.9964,5.0011,5.0011,5.0011,5.0011,5.0011,5.0011,5.0011,5.0011,5.0011,5.0011,5.0092,5.0302,5.0369,5.0425,5.0453,5.0537,5.3504,5.3206,5.3185,5.3185,5.3185,5.3185,5.3185,5.3185,5.3185,5.3185,5.3185,5.3185,5.3185,5.3378,5.3795,5.421,5.433,5.4893,5.5351,5.5364,5.539,5.539,5.539,5.539,5.539,5.539,5.539,5.539,5.539,5.539,5.539,5.539,5.539,5.539,5.539,5.539,5.539,5.539,5.539,5.539,5.539,5.539,5.539,5.539,5.539,5.539,5.539,5.5377,5.5332,5.5173,5.4962,5.4731,5.4576,5.4277,5.398,5.3758,5.3545,5.344,5.3272,5.3206,5.3185,5.3185,5.3185,5.3185,5.3185,5.3185,5.3185,5.3185,5.3185,5.3185,5.3185,5.3185,5.3185,5.3185,5.3185,5.3185,5.3185,5.3185,5.3017,5.3039,5.2806,5.2495,5.2036,5.1475,5.0946,5.0694,5.0464,5.0345,5.0272,4.9878,4.956,4.9577,4.9547,4.9547,4.9577,4.9637,4.9742,4.986,4.9906,4.9906,5.0011,5.0011,5.0011,5.0011,5.0011,5.0011,5.0011,5.0011,5.0011,5.0011,5.0051,5.008,5.0011,5.008,5.0195,5.3506,5.323,5.3225,5.3209,5.3227,5.3251,5.3227,5.3185,5.3185,5.3185,5.3185,5.3185,5.3185,5.3272,5.3602,5.398,5.4366,5.4735,5.5099,5.5319,5.539,5.539,5.539,5.539,5.539,5.539,5.539,5.539,5.539,5.539,5.539,5.539,5.539,5.539,5.539,5.539,5.539,5.539,5.539,5.539,5.539,5.539,5.539,5.539,5.539,5.539,5.5377,5.5332,5.5146,5.4947,5.4746,5.4525,5.426,5.3888,5.3758,5.3603,5.3339,5.3251,5.3206,5.3185,5.3185,5.3185,5.3185,5.3185,5.3185,5.3185,5.3185,5.3185,5.3185,5.3185,5.3185,5.3185,5.3185,5.3185,5.3185,5.3185,5.3167,5.306,5.2846,5.2649,5.2338,5.1939,5.1339,5.0749,5.0464,5.0239,5.004,4.9895,4.9791,4.9585,4.935,4.935,4.9337,4.9246,4.9307,4.9458,4.9577,4.9696,4.9725,4.9725,4.986,4.9935,4.986,4.986,4.9964,5.0011,5.0011,5.0011,5.0011,5.0011,5.0011,5.0011,5.0011,5.0011,5.0051,5.3598,5.3564,5.3563,5.3545,5.3563,5.3563,5.3422,5.3206,5.3185,5.3185,5.3185,5.3185,5.3248,5.323,5.3833,5.4141,5.4498,5.4893,5.5219,5.5377,5.539,5.539,5.539,5.539,5.539,5.539,5.539,5.539,5.539,5.539,5.539,5.539,5.539,5.539,5.539,5.539,5.539,5.539,5.539,5.539,5.539,5.539,5.539,5.5345,5.5332,5.5332,5.5292,5.5085,5.487,5.4776,5.4259,5.3961,5.387,5.3543,5.3336,5.3336,5.3248,5.3185,5.3185,5.3185,5.3185,5.3185,5.3185,5.3185,5.3185,5.3185,5.3185,5.3185,5.3185,5.3185,5.3185,5.3185,5.3185,5.3185,5.3143,5.3039,5.2977,5.2698,5.2495,5.215,5.1842,5.1314,5.0712,5.0397,5.0114,4.9854,4.9649,4.953,4.9411,4.926,4.9168,4.9216,4.9185,4.9124,4.9216,4.932,4.9411,4.95,4.953,4.956,4.9637,4.9713,4.9696,4.9755,4.983,4.9906,5.0011,4.9964,4.9935,4.9964,5.0011,5.0011,5.0011,5.0011,5.0011,5.3474,5.3702,5.3701,5.3701,5.3682,5.3563,5.3359,5.3206,5.3185,5.3185,5.3227,5.3357,5.34,5.3502,5.3998,5.4364,5.456,5.4874,5.5187,5.539,5.539,5.539,5.539,5.539,5.539,5.539,5.539,5.539,5.539,5.539,5.539,5.539,5.539,5.539,5.539,5.539,5.539,5.539,5.539,5.539,5.539,5.5358,5.5319,5.5168,5.5154,5.5113,5.4985,5.467,5.4541,5.434,5.3739,5.3527,5.3447,5.3191,5.3124,5.3146,5.3185,5.3185,5.3185,5.3185,5.3185,5.3185,5.3185,5.3185,5.3185,5.3185,5.3185,5.3185,5.3185,5.3185,5.3185,5.3185,5.3185,5.3185,5.3039,5.289,5.2631,5.232,5.2012,5.1669,5.1228,5.0712,5.0302,5.0034,4.983,4.9708,4.956,4.9381,4.926,4.9168,4.9094,4.9094,4.9063,4.9032,4.9107,4.9168,4.926,4.932,4.935,4.9398,4.9458,4.9518,4.9577,4.9637,4.9713,4.9772,4.983,4.986,4.986,4.9935,4.9982,4.9982,4.9982,5.0011,5.0011,5.3315,5.3833,5.3777,5.3814,5.3701,5.3481,5.3334,5.3248,5.3227,5.3185,5.3251,5.3504,5.3584,5.3622,5.4052,5.4449,5.4623,5.4884,5.5187,5.539,5.539,5.539,5.539,5.539,5.539,5.539,5.539,5.539,5.539,5.539,5.539,5.539,5.539,5.5345,5.526,5.526,5.5187,5.5071,5.5132,5.5159,5.526,5.5273,5.5173,5.4806,5.4716,5.4654,5.4397,5.4174,5.3997,5.3683,5.341,5.3203,5.3051,5.2955,5.2959,5.2999,5.306,5.3082,5.3082,5.31,5.3121,5.3143,5.3164,5.3121,5.3082,5.3164,5.3185,5.3185,5.3185,5.3185,5.3185,5.3164,5.3164,5.2995,5.2761,5.254,5.2226,5.1848,5.1391,5.1044,5.0684,5.0235,5.0149,4.9935,4.9755,4.9619,4.9471,4.926,4.9138,4.9094,4.9032,4.9018,4.9001,4.9001,4.9032,4.9094,4.9077,4.9138,4.9216,4.9246,4.9307,4.9367,4.9458,4.9518,4.9547,4.959,4.9649,4.9696,4.9772,4.986,4.9935,4.9982,4.9982,4.9982,5.0011,5.3523,5.4522,5.4522,5.4395,5.4177,5.4089,5.3851,5.3563,5.3314,5.3206,5.3227,5.3314,5.3357,5.3482,5.407,5.443,5.4528,5.4918,5.526,5.5377,5.539,5.539,5.539,5.539,5.539,5.539,5.539,5.5319,5.526,5.5286,5.5345,5.5345,5.5286,5.514,5.4947,5.4933,5.4825,5.4654,5.4657,5.4735,5.484,5.4855,5.4727,5.4441,5.4311,5.4225,5.3997,5.3758,5.3644,5.3428,5.3117,5.294,5.2806,5.2828,5.2846,5.2868,5.289,5.2934,5.2934,5.2934,5.2934,5.2912,5.2912,5.2912,5.2974,5.3121,5.3185,5.3185,5.3185,5.3185,5.3164,5.3143,5.3039,5.2761,5.2408,5.2108,5.1817,5.1288,5.0749,5.0453,5.0109,4.9993,4.9935,4.983,4.9696,4.953,4.935,4.9168,4.9094,4.9032,4.9032,4.9018,4.9018,4.9001,4.9018,4.9001,4.9032,4.9063,4.9094,4.9124,4.9155,4.9216,4.9307,4.9337,4.9381,4.9441,4.9471,4.953,4.9607,4.9742,4.9801,4.983,4.9906,4.9935,4.9964,5.3432,5.4716,5.4639,5.456,5.4495,5.4382,5.4158,5.3925,5.3583,5.3422,5.3481,5.3582,5.3583,5.3582,5.4193,5.4463,5.4544,5.4918,5.5187,5.5332,5.5345,5.539,5.539,5.5345,5.539,5.5358,5.5107,5.499,5.4899,5.4727,5.4697,5.4821,5.4791,5.4697,5.4471,5.4423,5.4324,5.4137,5.4103,5.4156,5.4309,5.429,5.4223,5.3979,5.3814,5.3739,5.3489,5.3249,5.3164,5.3054,5.2787,5.2712,5.2667,5.2694,5.2717,5.2739,5.2761,5.2806,5.2783,5.2783,5.2783,5.2783,5.2783,5.2846,5.2846,5.2955,5.302,5.306,5.3185,5.3185,5.306,5.3017,5.2783,5.2499,5.1842,5.1288,5.0946,5.0474,5.0257,5.0206,4.9935,4.9755,4.9696,4.9547,4.9441,4.935,4.9199,4.9107,4.9032,4.9018,4.9018,4.9018,4.9018,4.9018,4.9018,4.9018,4.9001,4.9001,4.9018,4.9032,4.9094,4.9094,4.9155,4.9185,4.9216,4.9229,4.929,4.935,4.9458,4.9577,4.9637,4.9666,4.9772,4.9906,4.9889,5.3362,5.4731,5.4594,5.4626,5.481,5.4511,5.4364,5.4296,5.3962,5.3758,5.3814,5.4105,5.4016,5.3997,5.4378,5.4576,5.4685,5.4685,5.4933,5.5113,5.5246,5.5146,5.5146,5.5227,5.5154,5.499,5.4724,5.4455,5.424,5.4153,5.4134,5.4047,5.3994,5.3941,5.3959,5.3923,5.3814,5.3702,5.3607,5.3529,5.3644,5.3739,5.3644,5.3468,5.3285,5.3117,5.2875,5.2743,5.2698,5.2649,5.2577,5.2572,5.2549,5.2577,5.2581,5.2627,5.269,5.2712,5.2735,5.2712,5.2735,5.2757,5.2779,5.2779,5.2757,5.2761,5.2806,5.2893,5.3039,5.2999,5.2872,5.2698,5.2454,5.1952,5.1192,5.0557,5.0154,4.9842,4.986,4.9906,4.9755,4.9543,4.9394,4.9273,4.926,4.9168,4.9124,4.9063,4.9018,4.9018,4.9018,4.9018,4.9018,4.9018,4.9018,4.9018,4.9018,4.9018,4.9018,4.9018,4.9001,4.9032,4.9063,4.9032,4.9063,4.9124,4.9138,4.9168,4.929,4.9428,4.9441,4.9471,4.9607,4.9725,4.9784,5.3722,5.5273,5.5219,5.5233,5.5214,5.4855,5.47,5.4654,5.4328,5.4193,5.4117,5.4139,5.3962,5.3339,5.4089,5.4257,5.3932,5.4163,5.4359,5.4514,5.4829,5.4735,5.4613,5.4621,5.4613,5.4326,5.4031,5.4043,5.3311,5.3497,5.3831,5.3757,5.3813,5.3721,5.3527,5.3468,5.3348,5.3205,5.3081,5.3011,5.3017,5.3101,5.3143,5.3011,5.2853,5.2739,5.2622,5.2627,5.2599,5.2549,5.2521,5.2498,5.2503,5.2503,5.2508,5.2531,5.2595,5.2595,5.2595,5.2595,5.2618,5.2595,5.2595,5.2595,5.2572,5.2485,5.2513,5.2545,5.2608,5.2522,5.2389,5.2232,5.1952,5.1061,5.0244,4.9994,4.9679,4.9607,4.9607,4.9624,4.9577,4.935,4.9185,4.9138,4.9199,4.9155,4.9094,4.9032,4.9001,4.9018,4.9018,4.9018,4.9018,4.9018,4.9018,4.9018,4.9018,4.9018,4.9018,4.9018,4.9018,4.9018,4.9018,4.9018,4.9018,4.9032,4.9063,4.9077,4.9155,4.9246,4.926,4.929,4.9441,4.9547,4.9607]}]]